<?xml version="1.0" encoding="UTF-8" standalone="no" ?>
<gpx xmlns="http://www.topografix.com/GPX/1/1" xmlns:xsi="http://www.w3.org/2001/XMLSchema-instance" xsi:schemaLocation="http://www.topografix.com/GPX/1/1 http://www.topografix.com/GPX/1/1/gpx.xsd" version="1.1" creator="VisuGPX - https://www.visugpx.com">
  <metadata>
    <name>Neoules-Pilon saint Clément</name>
    <desc><![CDATA[boucle au départ de Néoules]]></desc>
  </metadata>
  <trk>
    <name><![CDATA[2016-02-21 Néoules]]></name>
    <trkseg>
      <trkpt lat="43.31062" lon="6.01087">
        <ele>329.78515625</ele>
        <time>2016-02-21T08:09:02Z</time>
      </trkpt>
      <trkpt lat="43.31061" lon="6.01086">
        <ele>329.81640625</ele>
        <time>2016-02-21T08:09:22Z</time>
      </trkpt>
      <trkpt lat="43.31061" lon="6.01085">
        <ele>329.796875</ele>
        <time>2016-02-21T08:09:47Z</time>
      </trkpt>
      <trkpt lat="43.31061" lon="6.01089">
        <ele>329.80859375</ele>
        <time>2016-02-21T08:10:20Z</time>
      </trkpt>
      <trkpt lat="43.31062" lon="6.01089">
        <ele>329.765625</ele>
        <time>2016-02-21T08:10:24Z</time>
      </trkpt>
      <trkpt lat="43.3106" lon="6.01089">
        <ele>329.828125</ele>
        <time>2016-02-21T08:11:02Z</time>
      </trkpt>
      <trkpt lat="43.31058" lon="6.01087">
        <ele>329.8984375</ele>
        <time>2016-02-21T08:11:32Z</time>
      </trkpt>
      <trkpt lat="43.3106" lon="6.01088">
        <ele>329.85546875</ele>
        <time>2016-02-21T08:11:48Z</time>
      </trkpt>
      <trkpt lat="43.31059" lon="6.0109">
        <ele>329.87109375</ele>
        <time>2016-02-21T08:12:00Z</time>
      </trkpt>
      <trkpt lat="43.31061" lon="6.01092">
        <ele>329.8203125</ele>
        <time>2016-02-21T08:12:11Z</time>
      </trkpt>
      <trkpt lat="43.31066" lon="6.01131">
        <ele>329.63671875</ele>
        <time>2016-02-21T08:12:25Z</time>
      </trkpt>
      <trkpt lat="43.31067" lon="6.01159">
        <ele>330.5234375</ele>
        <time>2016-02-21T08:12:31Z</time>
      </trkpt>
      <trkpt lat="43.31049" lon="6.01168">
        <ele>331.05078125</ele>
        <time>2016-02-21T08:12:36Z</time>
      </trkpt>
      <trkpt lat="43.31048" lon="6.01182">
        <ele>331.21484375</ele>
        <time>2016-02-21T08:12:40Z</time>
      </trkpt>
      <trkpt lat="43.31056" lon="6.01237">
        <ele>332</ele>
        <time>2016-02-21T08:12:54Z</time>
      </trkpt>
      <trkpt lat="43.31054" lon="6.01283">
        <ele>332</ele>
        <time>2016-02-21T08:13:06Z</time>
      </trkpt>
      <trkpt lat="43.31056" lon="6.01296">
        <ele>332</ele>
        <time>2016-02-21T08:13:10Z</time>
      </trkpt>
      <trkpt lat="43.3106" lon="6.01299">
        <ele>332</ele>
        <time>2016-02-21T08:13:12Z</time>
      </trkpt>
      <trkpt lat="43.31062" lon="6.01302">
        <ele>332</ele>
        <time>2016-02-21T08:13:13Z</time>
      </trkpt>
      <trkpt lat="43.31063" lon="6.01306">
        <ele>332</ele>
        <time>2016-02-21T08:13:14Z</time>
      </trkpt>
      <trkpt lat="43.31063" lon="6.01309">
        <ele>332</ele>
        <time>2016-02-21T08:13:15Z</time>
      </trkpt>
      <trkpt lat="43.31063" lon="6.01313">
        <ele>332</ele>
        <time>2016-02-21T08:13:16Z</time>
      </trkpt>
      <trkpt lat="43.31063" lon="6.01316">
        <ele>332</ele>
        <time>2016-02-21T08:13:17Z</time>
      </trkpt>
      <trkpt lat="43.31063" lon="6.01319">
        <ele>332</ele>
        <time>2016-02-21T08:13:18Z</time>
      </trkpt>
      <trkpt lat="43.31064" lon="6.01323">
        <ele>332</ele>
        <time>2016-02-21T08:13:19Z</time>
      </trkpt>
      <trkpt lat="43.31063" lon="6.01326">
        <ele>332</ele>
        <time>2016-02-21T08:13:20Z</time>
      </trkpt>
      <trkpt lat="43.31061" lon="6.01328">
        <ele>332</ele>
        <time>2016-02-21T08:13:21Z</time>
      </trkpt>
      <trkpt lat="43.31059" lon="6.0133">
        <ele>332</ele>
        <time>2016-02-21T08:13:22Z</time>
      </trkpt>
      <trkpt lat="43.31057" lon="6.01331">
        <ele>332</ele>
        <time>2016-02-21T08:13:23Z</time>
      </trkpt>
      <trkpt lat="43.31055" lon="6.01332">
        <ele>332</ele>
        <time>2016-02-21T08:13:24Z</time>
      </trkpt>
      <trkpt lat="43.31017" lon="6.01343">
        <ele>332.39453125</ele>
        <time>2016-02-21T08:13:37Z</time>
      </trkpt>
      <trkpt lat="43.30993" lon="6.0135">
        <ele>333.0546875</ele>
        <time>2016-02-21T08:13:48Z</time>
      </trkpt>
      <trkpt lat="43.30975" lon="6.01359">
        <ele>332.9921875</ele>
        <time>2016-02-21T08:13:57Z</time>
      </trkpt>
      <trkpt lat="43.30974" lon="6.01358">
        <ele>332.99609375</ele>
        <time>2016-02-21T08:13:58Z</time>
      </trkpt>
      <trkpt lat="43.30974" lon="6.01356">
        <ele>333</ele>
        <time>2016-02-21T08:13:59Z</time>
      </trkpt>
      <trkpt lat="43.30978" lon="6.01354">
        <ele>333.05078125</ele>
        <time>2016-02-21T08:14:05Z</time>
      </trkpt>
      <trkpt lat="43.30979" lon="6.01354">
        <ele>333.0625</ele>
        <time>2016-02-21T08:14:06Z</time>
      </trkpt>
      <trkpt lat="43.30978" lon="6.01356">
        <ele>333</ele>
        <time>2016-02-21T08:14:12Z</time>
      </trkpt>
      <trkpt lat="43.30975" lon="6.01355">
        <ele>333.02734375</ele>
        <time>2016-02-21T08:14:15Z</time>
      </trkpt>
      <trkpt lat="43.30973" lon="6.01356">
        <ele>333.00390625</ele>
        <time>2016-02-21T08:14:16Z</time>
      </trkpt>
      <trkpt lat="43.30972" lon="6.01358">
        <ele>333</ele>
        <time>2016-02-21T08:14:17Z</time>
      </trkpt>
      <trkpt lat="43.30973" lon="6.0136">
        <ele>332.99609375</ele>
        <time>2016-02-21T08:14:18Z</time>
      </trkpt>
      <trkpt lat="43.30975" lon="6.0136">
        <ele>332.98828125</ele>
        <time>2016-02-21T08:14:19Z</time>
      </trkpt>
      <trkpt lat="43.30977" lon="6.01358">
        <ele>332.984375</ele>
        <time>2016-02-21T08:14:20Z</time>
      </trkpt>
      <trkpt lat="43.30978" lon="6.01356">
        <ele>332.99609375</ele>
        <time>2016-02-21T08:14:21Z</time>
      </trkpt>
      <trkpt lat="43.30997" lon="6.01351">
        <ele>333.015625</ele>
        <time>2016-02-21T08:14:27Z</time>
      </trkpt>
      <trkpt lat="43.31002" lon="6.01349">
        <ele>332.92578125</ele>
        <time>2016-02-21T08:14:28Z</time>
      </trkpt>
      <trkpt lat="43.31007" lon="6.01347">
        <ele>332.74609375</ele>
        <time>2016-02-21T08:14:29Z</time>
      </trkpt>
      <trkpt lat="43.31042" lon="6.01338">
        <ele>332</ele>
        <time>2016-02-21T08:14:39Z</time>
      </trkpt>
      <trkpt lat="43.3106" lon="6.01331">
        <ele>332</ele>
        <time>2016-02-21T08:14:46Z</time>
      </trkpt>
      <trkpt lat="43.31061" lon="6.01329">
        <ele>332</ele>
        <time>2016-02-21T08:14:47Z</time>
      </trkpt>
      <trkpt lat="43.3106" lon="6.01327">
        <ele>332</ele>
        <time>2016-02-21T08:14:48Z</time>
      </trkpt>
      <trkpt lat="43.31059" lon="6.01324">
        <ele>332</ele>
        <time>2016-02-21T08:14:49Z</time>
      </trkpt>
      <trkpt lat="43.31059" lon="6.01322">
        <ele>332</ele>
        <time>2016-02-21T08:14:50Z</time>
      </trkpt>
      <trkpt lat="43.31058" lon="6.01319">
        <ele>332</ele>
        <time>2016-02-21T08:14:51Z</time>
      </trkpt>
      <trkpt lat="43.31058" lon="6.01317">
        <ele>332</ele>
        <time>2016-02-21T08:14:52Z</time>
      </trkpt>
      <trkpt lat="43.31058" lon="6.01315">
        <ele>332</ele>
        <time>2016-02-21T08:14:53Z</time>
      </trkpt>
      <trkpt lat="43.31058" lon="6.01312">
        <ele>332</ele>
        <time>2016-02-21T08:14:54Z</time>
      </trkpt>
      <trkpt lat="43.31058" lon="6.0131">
        <ele>332</ele>
        <time>2016-02-21T08:14:55Z</time>
      </trkpt>
      <trkpt lat="43.31057" lon="6.01307">
        <ele>332</ele>
        <time>2016-02-21T08:14:56Z</time>
      </trkpt>
      <trkpt lat="43.31057" lon="6.01305">
        <ele>332</ele>
        <time>2016-02-21T08:14:57Z</time>
      </trkpt>
      <trkpt lat="43.31057" lon="6.01303">
        <ele>332</ele>
        <time>2016-02-21T08:14:58Z</time>
      </trkpt>
      <trkpt lat="43.31062" lon="6.01299">
        <ele>332</ele>
        <time>2016-02-21T08:15:05Z</time>
      </trkpt>
      <trkpt lat="43.31062" lon="6.01301">
        <ele>332</ele>
        <time>2016-02-21T08:15:06Z</time>
      </trkpt>
      <trkpt lat="43.31062" lon="6.01307">
        <ele>332</ele>
        <time>2016-02-21T08:15:20Z</time>
      </trkpt>
      <trkpt lat="43.31065" lon="6.01308">
        <ele>332</ele>
        <time>2016-02-21T08:15:37Z</time>
      </trkpt>
      <trkpt lat="43.31066" lon="6.01309">
        <ele>332</ele>
        <time>2016-02-21T08:15:38Z</time>
      </trkpt>
      <trkpt lat="43.31067" lon="6.0131">
        <ele>332</ele>
        <time>2016-02-21T08:15:39Z</time>
      </trkpt>
      <trkpt lat="43.31067" lon="6.01313">
        <ele>332</ele>
        <time>2016-02-21T08:15:53Z</time>
      </trkpt>
      <trkpt lat="43.31064" lon="6.01313">
        <ele>332</ele>
        <time>2016-02-21T08:16:15Z</time>
      </trkpt>
      <trkpt lat="43.31065" lon="6.01315">
        <ele>332</ele>
        <time>2016-02-21T08:16:42Z</time>
      </trkpt>
      <trkpt lat="43.31065" lon="6.01317">
        <ele>332</ele>
        <time>2016-02-21T08:17:07Z</time>
      </trkpt>
      <trkpt lat="43.31069" lon="6.01317">
        <ele>332</ele>
        <time>2016-02-21T08:17:25Z</time>
      </trkpt>
      <trkpt lat="43.31069" lon="6.01317">
        <ele>332</ele>
        <time>2016-02-21T08:17:50Z</time>
      </trkpt>
      <trkpt lat="43.31067" lon="6.01317">
        <ele>332</ele>
        <time>2016-02-21T08:18:14Z</time>
      </trkpt>
      <trkpt lat="43.31067" lon="6.0132">
        <ele>332</ele>
        <time>2016-02-21T08:18:21Z</time>
      </trkpt>
      <trkpt lat="43.31067" lon="6.01328">
        <ele>332</ele>
        <time>2016-02-21T08:18:27Z</time>
      </trkpt>
      <trkpt lat="43.31066" lon="6.01329">
        <ele>332</ele>
        <time>2016-02-21T08:18:28Z</time>
      </trkpt>
      <trkpt lat="43.31064" lon="6.0133">
        <ele>332</ele>
        <time>2016-02-21T08:18:29Z</time>
      </trkpt>
      <trkpt lat="43.3105" lon="6.01335">
        <ele>332</ele>
        <time>2016-02-21T08:18:40Z</time>
      </trkpt>
      <trkpt lat="43.31012" lon="6.01345">
        <ele>332.58203125</ele>
        <time>2016-02-21T08:18:52Z</time>
      </trkpt>
      <trkpt lat="43.30961" lon="6.01361">
        <ele>333.390625</ele>
        <time>2016-02-21T08:19:08Z</time>
      </trkpt>
      <trkpt lat="43.30956" lon="6.01362">
        <ele>333.58203125</ele>
        <time>2016-02-21T08:19:11Z</time>
      </trkpt>
      <trkpt lat="43.30955" lon="6.01361">
        <ele>333.63671875</ele>
        <time>2016-02-21T08:19:12Z</time>
      </trkpt>
      <trkpt lat="43.30953" lon="6.01358">
        <ele>333.69921875</ele>
        <time>2016-02-21T08:19:13Z</time>
      </trkpt>
      <trkpt lat="43.30933" lon="6.01329">
        <ele>334</ele>
        <time>2016-02-21T08:19:23Z</time>
      </trkpt>
      <trkpt lat="43.3093" lon="6.01329">
        <ele>334</ele>
        <time>2016-02-21T08:19:24Z</time>
      </trkpt>
      <trkpt lat="43.30927" lon="6.0133">
        <ele>334</ele>
        <time>2016-02-21T08:19:25Z</time>
      </trkpt>
      <trkpt lat="43.30923" lon="6.01331">
        <ele>334</ele>
        <time>2016-02-21T08:19:26Z</time>
      </trkpt>
      <trkpt lat="43.30921" lon="6.01333">
        <ele>334</ele>
        <time>2016-02-21T08:19:27Z</time>
      </trkpt>
      <trkpt lat="43.30884" lon="6.01347">
        <ele>334.7265625</ele>
        <time>2016-02-21T08:19:40Z</time>
      </trkpt>
      <trkpt lat="43.3084" lon="6.0136">
        <ele>335.15234375</ele>
        <time>2016-02-21T08:19:55Z</time>
      </trkpt>
      <trkpt lat="43.30793" lon="6.01392">
        <ele>336.61328125</ele>
        <time>2016-02-21T08:20:11Z</time>
      </trkpt>
      <trkpt lat="43.30753" lon="6.01425">
        <ele>337.94140625</ele>
        <time>2016-02-21T08:20:26Z</time>
      </trkpt>
      <trkpt lat="43.30707" lon="6.01457">
        <ele>339.35546875</ele>
        <time>2016-02-21T08:20:41Z</time>
      </trkpt>
      <trkpt lat="43.30661" lon="6.01483">
        <ele>341.203125</ele>
        <time>2016-02-21T08:20:56Z</time>
      </trkpt>
      <trkpt lat="43.30621" lon="6.01509">
        <ele>343.47265625</ele>
        <time>2016-02-21T08:21:11Z</time>
      </trkpt>
      <trkpt lat="43.30584" lon="6.01528">
        <ele>345.21484375</ele>
        <time>2016-02-21T08:21:25Z</time>
      </trkpt>
      <trkpt lat="43.30547" lon="6.01551">
        <ele>347.62109375</ele>
        <time>2016-02-21T08:21:40Z</time>
      </trkpt>
      <trkpt lat="43.30546" lon="6.01587">
        <ele>347.60546875</ele>
        <time>2016-02-21T08:21:50Z</time>
      </trkpt>
      <trkpt lat="43.30545" lon="6.01641">
        <ele>347.40234375</ele>
        <time>2016-02-21T08:22:03Z</time>
      </trkpt>
      <trkpt lat="43.30529" lon="6.01693">
        <ele>348.16796875</ele>
        <time>2016-02-21T08:22:16Z</time>
      </trkpt>
      <trkpt lat="43.30517" lon="6.01739">
        <ele>350.2890625</ele>
        <time>2016-02-21T08:22:25Z</time>
      </trkpt>
      <trkpt lat="43.30521" lon="6.01793">
        <ele>352.96484375</ele>
        <time>2016-02-21T08:22:37Z</time>
      </trkpt>
      <trkpt lat="43.30539" lon="6.01845">
        <ele>357</ele>
        <time>2016-02-21T08:22:52Z</time>
      </trkpt>
      <trkpt lat="43.30561" lon="6.01869">
        <ele>360.03515625</ele>
        <time>2016-02-21T08:23:03Z</time>
      </trkpt>
      <trkpt lat="43.30567" lon="6.01908">
        <ele>363.0078125</ele>
        <time>2016-02-21T08:23:16Z</time>
      </trkpt>
      <trkpt lat="43.30569" lon="6.01936">
        <ele>366.12890625</ele>
        <time>2016-02-21T08:23:27Z</time>
      </trkpt>
      <trkpt lat="43.30561" lon="6.01976">
        <ele>369.234375</ele>
        <time>2016-02-21T08:23:43Z</time>
      </trkpt>
      <trkpt lat="43.30553" lon="6.02005">
        <ele>370.9296875</ele>
        <time>2016-02-21T08:23:56Z</time>
      </trkpt>
      <trkpt lat="43.30535" lon="6.02045">
        <ele>373.28125</ele>
        <time>2016-02-21T08:24:13Z</time>
      </trkpt>
      <trkpt lat="43.30521" lon="6.02077">
        <ele>374.18359375</ele>
        <time>2016-02-21T08:24:25Z</time>
      </trkpt>
      <trkpt lat="43.30499" lon="6.02121">
        <ele>372.9296875</ele>
        <time>2016-02-21T08:24:41Z</time>
      </trkpt>
      <trkpt lat="43.30467" lon="6.02146">
        <ele>371.52734375</ele>
        <time>2016-02-21T08:24:56Z</time>
      </trkpt>
      <trkpt lat="43.30438" lon="6.02146">
        <ele>374.15625</ele>
        <time>2016-02-21T08:25:10Z</time>
      </trkpt>
      <trkpt lat="43.30409" lon="6.02145">
        <ele>377.4765625</ele>
        <time>2016-02-21T08:25:25Z</time>
      </trkpt>
      <trkpt lat="43.30376" lon="6.02138">
        <ele>381.38671875</ele>
        <time>2016-02-21T08:25:41Z</time>
      </trkpt>
      <trkpt lat="43.3035" lon="6.0213">
        <ele>384.2578125</ele>
        <time>2016-02-21T08:25:54Z</time>
      </trkpt>
      <trkpt lat="43.30318" lon="6.02124">
        <ele>388.65625</ele>
        <time>2016-02-21T08:26:10Z</time>
      </trkpt>
      <trkpt lat="43.30291" lon="6.02096">
        <ele>389.78515625</ele>
        <time>2016-02-21T08:26:27Z</time>
      </trkpt>
      <trkpt lat="43.3029" lon="6.02053">
        <ele>386.19140625</ele>
        <time>2016-02-21T08:26:42Z</time>
      </trkpt>
      <trkpt lat="43.30287" lon="6.02032">
        <ele>386.921875</ele>
        <time>2016-02-21T08:26:50Z</time>
      </trkpt>
      <trkpt lat="43.30286" lon="6.02029">
        <ele>387.0625</ele>
        <time>2016-02-21T08:26:51Z</time>
      </trkpt>
      <trkpt lat="43.30275" lon="6.0199">
        <ele>389.75390625</ele>
        <time>2016-02-21T08:27:07Z</time>
      </trkpt>
      <trkpt lat="43.30258" lon="6.01953">
        <ele>394.2734375</ele>
        <time>2016-02-21T08:27:25Z</time>
      </trkpt>
      <trkpt lat="43.30244" lon="6.01918">
        <ele>397.640625</ele>
        <time>2016-02-21T08:27:40Z</time>
      </trkpt>
      <trkpt lat="43.30244" lon="6.01885">
        <ele>400.17578125</ele>
        <time>2016-02-21T08:27:53Z</time>
      </trkpt>
      <trkpt lat="43.30243" lon="6.01875">
        <ele>401.7578125</ele>
        <time>2016-02-21T08:27:57Z</time>
      </trkpt>
      <trkpt lat="43.30241" lon="6.01874">
        <ele>402.2109375</ele>
        <time>2016-02-21T08:27:58Z</time>
      </trkpt>
      <trkpt lat="43.3024" lon="6.01874">
        <ele>402.578125</ele>
        <time>2016-02-21T08:27:59Z</time>
      </trkpt>
      <trkpt lat="43.30238" lon="6.01874">
        <ele>402.80859375</ele>
        <time>2016-02-21T08:28:00Z</time>
      </trkpt>
      <trkpt lat="43.30237" lon="6.01875">
        <ele>402.9453125</ele>
        <time>2016-02-21T08:28:01Z</time>
      </trkpt>
      <trkpt lat="43.30236" lon="6.01876">
        <ele>403.05859375</ele>
        <time>2016-02-21T08:28:02Z</time>
      </trkpt>
      <trkpt lat="43.30235" lon="6.01878">
        <ele>403.06640625</ele>
        <time>2016-02-21T08:28:03Z</time>
      </trkpt>
      <trkpt lat="43.30234" lon="6.01881">
        <ele>402.92578125</ele>
        <time>2016-02-21T08:28:04Z</time>
      </trkpt>
      <trkpt lat="43.30233" lon="6.01923">
        <ele>400.37109375</ele>
        <time>2016-02-21T08:28:19Z</time>
      </trkpt>
      <trkpt lat="43.30223" lon="6.01959">
        <ele>403.7578125</ele>
        <time>2016-02-21T08:28:34Z</time>
      </trkpt>
      <trkpt lat="43.30205" lon="6.01989">
        <ele>408.53515625</ele>
        <time>2016-02-21T08:28:49Z</time>
      </trkpt>
      <trkpt lat="43.30193" lon="6.02026">
        <ele>411.5390625</ele>
        <time>2016-02-21T08:29:04Z</time>
      </trkpt>
      <trkpt lat="43.30192" lon="6.02068">
        <ele>411.25</ele>
        <time>2016-02-21T08:29:20Z</time>
      </trkpt>
      <trkpt lat="43.30186" lon="6.02109">
        <ele>412.4375</ele>
        <time>2016-02-21T08:29:36Z</time>
      </trkpt>
      <trkpt lat="43.3017" lon="6.02141">
        <ele>416.78515625</ele>
        <time>2016-02-21T08:29:51Z</time>
      </trkpt>
      <trkpt lat="43.30149" lon="6.0217">
        <ele>421.91015625</ele>
        <time>2016-02-21T08:30:07Z</time>
      </trkpt>
      <trkpt lat="43.30132" lon="6.02198">
        <ele>426.5859375</ele>
        <time>2016-02-21T08:30:21Z</time>
      </trkpt>
      <trkpt lat="43.30114" lon="6.02227">
        <ele>432.10546875</ele>
        <time>2016-02-21T08:30:36Z</time>
      </trkpt>
      <trkpt lat="43.30093" lon="6.0226">
        <ele>437.21484375</ele>
        <time>2016-02-21T08:30:53Z</time>
      </trkpt>
      <trkpt lat="43.3008" lon="6.02288">
        <ele>441.40234375</ele>
        <time>2016-02-21T08:31:07Z</time>
      </trkpt>
      <trkpt lat="43.30095" lon="6.02313">
        <ele>445.09375</ele>
        <time>2016-02-21T08:31:22Z</time>
      </trkpt>
      <trkpt lat="43.30115" lon="6.02324">
        <ele>447.35546875</ele>
        <time>2016-02-21T08:31:34Z</time>
      </trkpt>
      <trkpt lat="43.30114" lon="6.02326">
        <ele>447.81640625</ele>
        <time>2016-02-21T08:31:35Z</time>
      </trkpt>
      <trkpt lat="43.30113" lon="6.02329">
        <ele>448.21484375</ele>
        <time>2016-02-21T08:31:36Z</time>
      </trkpt>
      <trkpt lat="43.30112" lon="6.02331">
        <ele>448.5078125</ele>
        <time>2016-02-21T08:31:37Z</time>
      </trkpt>
      <trkpt lat="43.3011" lon="6.02333">
        <ele>448.6796875</ele>
        <time>2016-02-21T08:31:38Z</time>
      </trkpt>
      <trkpt lat="43.30108" lon="6.02334">
        <ele>448.828125</ele>
        <time>2016-02-21T08:31:39Z</time>
      </trkpt>
      <trkpt lat="43.30106" lon="6.02335">
        <ele>448.953125</ele>
        <time>2016-02-21T08:31:40Z</time>
      </trkpt>
      <trkpt lat="43.30104" lon="6.02336">
        <ele>449.1015625</ele>
        <time>2016-02-21T08:31:41Z</time>
      </trkpt>
      <trkpt lat="43.30101" lon="6.02337">
        <ele>449.15234375</ele>
        <time>2016-02-21T08:31:42Z</time>
      </trkpt>
      <trkpt lat="43.30099" lon="6.02338">
        <ele>449.22265625</ele>
        <time>2016-02-21T08:31:43Z</time>
      </trkpt>
      <trkpt lat="43.30097" lon="6.02339">
        <ele>449.35546875</ele>
        <time>2016-02-21T08:31:44Z</time>
      </trkpt>
      <trkpt lat="43.30095" lon="6.0234">
        <ele>449.46875</ele>
        <time>2016-02-21T08:31:45Z</time>
      </trkpt>
      <trkpt lat="43.30093" lon="6.02341">
        <ele>449.6328125</ele>
        <time>2016-02-21T08:31:46Z</time>
      </trkpt>
      <trkpt lat="43.30063" lon="6.02361">
        <ele>451.33203125</ele>
        <time>2016-02-21T08:32:04Z</time>
      </trkpt>
      <trkpt lat="43.3003" lon="6.0238">
        <ele>452.76953125</ele>
        <time>2016-02-21T08:32:23Z</time>
      </trkpt>
      <trkpt lat="43.30004" lon="6.02391">
        <ele>451.75</ele>
        <time>2016-02-21T08:32:38Z</time>
      </trkpt>
      <trkpt lat="43.29971" lon="6.02403">
        <ele>454.15234375</ele>
        <time>2016-02-21T08:32:55Z</time>
      </trkpt>
      <trkpt lat="43.29947" lon="6.02434">
        <ele>455.00390625</ele>
        <time>2016-02-21T08:33:10Z</time>
      </trkpt>
      <trkpt lat="43.29923" lon="6.02488">
        <ele>452.03125</ele>
        <time>2016-02-21T08:33:28Z</time>
      </trkpt>
      <trkpt lat="43.29892" lon="6.02518">
        <ele>452.91015625</ele>
        <time>2016-02-21T08:33:43Z</time>
      </trkpt>
      <trkpt lat="43.29863" lon="6.02545">
        <ele>453.546875</ele>
        <time>2016-02-21T08:33:55Z</time>
      </trkpt>
      <trkpt lat="43.29852" lon="6.02553">
        <ele>453.89453125</ele>
        <time>2016-02-21T08:33:58Z</time>
      </trkpt>
      <trkpt lat="43.29848" lon="6.02555">
        <ele>454.23828125</ele>
        <time>2016-02-21T08:33:59Z</time>
      </trkpt>
      <trkpt lat="43.29844" lon="6.02555">
        <ele>454.79296875</ele>
        <time>2016-02-21T08:34:00Z</time>
      </trkpt>
      <trkpt lat="43.2984" lon="6.02555">
        <ele>455.42578125</ele>
        <time>2016-02-21T08:34:01Z</time>
      </trkpt>
      <trkpt lat="43.29835" lon="6.02555">
        <ele>455.97265625</ele>
        <time>2016-02-21T08:34:02Z</time>
      </trkpt>
      <trkpt lat="43.29831" lon="6.02557">
        <ele>456.2109375</ele>
        <time>2016-02-21T08:34:03Z</time>
      </trkpt>
      <trkpt lat="43.29827" lon="6.02559">
        <ele>456.3203125</ele>
        <time>2016-02-21T08:34:04Z</time>
      </trkpt>
      <trkpt lat="43.29798" lon="6.02579">
        <ele>457.55078125</ele>
        <time>2016-02-21T08:34:14Z</time>
      </trkpt>
      <trkpt lat="43.29781" lon="6.02594">
        <ele>458.74609375</ele>
        <time>2016-02-21T08:34:20Z</time>
      </trkpt>
      <trkpt lat="43.29779" lon="6.02598">
        <ele>458.91015625</ele>
        <time>2016-02-21T08:34:21Z</time>
      </trkpt>
      <trkpt lat="43.29778" lon="6.02601">
        <ele>459.05859375</ele>
        <time>2016-02-21T08:34:22Z</time>
      </trkpt>
      <trkpt lat="43.29776" lon="6.02605">
        <ele>459.16796875</ele>
        <time>2016-02-21T08:34:23Z</time>
      </trkpt>
      <trkpt lat="43.29775" lon="6.02609">
        <ele>459.2578125</ele>
        <time>2016-02-21T08:34:24Z</time>
      </trkpt>
      <trkpt lat="43.29774" lon="6.02612">
        <ele>459.33203125</ele>
        <time>2016-02-21T08:34:25Z</time>
      </trkpt>
      <trkpt lat="43.29773" lon="6.02614">
        <ele>459.4296875</ele>
        <time>2016-02-21T08:34:26Z</time>
      </trkpt>
      <trkpt lat="43.29764" lon="6.02629">
        <ele>460.0546875</ele>
        <time>2016-02-21T08:34:33Z</time>
      </trkpt>
      <trkpt lat="43.29764" lon="6.02631">
        <ele>460.0703125</ele>
        <time>2016-02-21T08:34:34Z</time>
      </trkpt>
      <trkpt lat="43.29764" lon="6.02633">
        <ele>460.078125</ele>
        <time>2016-02-21T08:34:35Z</time>
      </trkpt>
      <trkpt lat="43.29759" lon="6.02655">
        <ele>460.1796875</ele>
        <time>2016-02-21T08:34:44Z</time>
      </trkpt>
      <trkpt lat="43.29757" lon="6.02658">
        <ele>460.33984375</ele>
        <time>2016-02-21T08:34:45Z</time>
      </trkpt>
      <trkpt lat="43.29755" lon="6.0266">
        <ele>460.54296875</ele>
        <time>2016-02-21T08:34:46Z</time>
      </trkpt>
      <trkpt lat="43.29753" lon="6.02661">
        <ele>460.640625</ele>
        <time>2016-02-21T08:34:47Z</time>
      </trkpt>
      <trkpt lat="43.2975" lon="6.02663">
        <ele>460.65625</ele>
        <time>2016-02-21T08:34:48Z</time>
      </trkpt>
      <trkpt lat="43.29748" lon="6.02663">
        <ele>460.6875</ele>
        <time>2016-02-21T08:34:49Z</time>
      </trkpt>
      <trkpt lat="43.29746" lon="6.02664">
        <ele>460.72265625</ele>
        <time>2016-02-21T08:34:50Z</time>
      </trkpt>
      <trkpt lat="43.29741" lon="6.02666">
        <ele>460.8515625</ele>
        <time>2016-02-21T08:34:55Z</time>
      </trkpt>
      <trkpt lat="43.29739" lon="6.02665">
        <ele>461.21484375</ele>
        <time>2016-02-21T08:34:56Z</time>
      </trkpt>
      <trkpt lat="43.29737" lon="6.02663">
        <ele>461.66796875</ele>
        <time>2016-02-21T08:34:57Z</time>
      </trkpt>
      <trkpt lat="43.29735" lon="6.02662">
        <ele>461.9765625</ele>
        <time>2016-02-21T08:34:58Z</time>
      </trkpt>
      <trkpt lat="43.29733" lon="6.02662">
        <ele>462.20703125</ele>
        <time>2016-02-21T08:34:59Z</time>
      </trkpt>
      <trkpt lat="43.29731" lon="6.02661">
        <ele>462.3828125</ele>
        <time>2016-02-21T08:35:00Z</time>
      </trkpt>
      <trkpt lat="43.29728" lon="6.02662">
        <ele>462.453125</ele>
        <time>2016-02-21T08:35:01Z</time>
      </trkpt>
      <trkpt lat="43.29726" lon="6.02664">
        <ele>462.51171875</ele>
        <time>2016-02-21T08:35:02Z</time>
      </trkpt>
      <trkpt lat="43.29724" lon="6.02665">
        <ele>462.640625</ele>
        <time>2016-02-21T08:35:03Z</time>
      </trkpt>
      <trkpt lat="43.29721" lon="6.02666">
        <ele>462.70703125</ele>
        <time>2016-02-21T08:35:04Z</time>
      </trkpt>
      <trkpt lat="43.29718" lon="6.02666">
        <ele>462.82421875</ele>
        <time>2016-02-21T08:35:05Z</time>
      </trkpt>
      <trkpt lat="43.29715" lon="6.02666">
        <ele>462.953125</ele>
        <time>2016-02-21T08:35:06Z</time>
      </trkpt>
      <trkpt lat="43.29713" lon="6.02666">
        <ele>463.015625</ele>
        <time>2016-02-21T08:35:07Z</time>
      </trkpt>
      <trkpt lat="43.29711" lon="6.02668">
        <ele>463.01953125</ele>
        <time>2016-02-21T08:35:08Z</time>
      </trkpt>
      <trkpt lat="43.29709" lon="6.0267">
        <ele>462.96875</ele>
        <time>2016-02-21T08:35:09Z</time>
      </trkpt>
      <trkpt lat="43.29708" lon="6.02673">
        <ele>462.9140625</ele>
        <time>2016-02-21T08:35:10Z</time>
      </trkpt>
      <trkpt lat="43.29706" lon="6.02675">
        <ele>462.890625</ele>
        <time>2016-02-21T08:35:11Z</time>
      </trkpt>
      <trkpt lat="43.29703" lon="6.02677">
        <ele>462.953125</ele>
        <time>2016-02-21T08:35:12Z</time>
      </trkpt>
      <trkpt lat="43.29701" lon="6.02677">
        <ele>463.078125</ele>
        <time>2016-02-21T08:35:13Z</time>
      </trkpt>
      <trkpt lat="43.29684" lon="6.02688">
        <ele>463.40234375</ele>
        <time>2016-02-21T08:35:25Z</time>
      </trkpt>
      <trkpt lat="43.29679" lon="6.02701">
        <ele>463.1796875</ele>
        <time>2016-02-21T08:35:32Z</time>
      </trkpt>
      <trkpt lat="43.29678" lon="6.02709">
        <ele>463.0625</ele>
        <time>2016-02-21T08:35:47Z</time>
      </trkpt>
      <trkpt lat="43.29678" lon="6.02709">
        <ele>463.0390625</ele>
        <time>2016-02-21T08:36:06Z</time>
      </trkpt>
      <trkpt lat="43.29679" lon="6.02709">
        <ele>462.93359375</ele>
        <time>2016-02-21T08:36:28Z</time>
      </trkpt>
      <trkpt lat="43.29679" lon="6.02717">
        <ele>462.71484375</ele>
        <time>2016-02-21T08:36:52Z</time>
      </trkpt>
      <trkpt lat="43.29682" lon="6.02759">
        <ele>457.75390625</ele>
        <time>2016-02-21T08:37:02Z</time>
      </trkpt>
      <trkpt lat="43.29666" lon="6.02801">
        <ele>457.46484375</ele>
        <time>2016-02-21T08:37:13Z</time>
      </trkpt>
      <trkpt lat="43.29657" lon="6.02856">
        <ele>458.3203125</ele>
        <time>2016-02-21T08:37:28Z</time>
      </trkpt>
      <trkpt lat="43.29643" lon="6.02931">
        <ele>461.703125</ele>
        <time>2016-02-21T08:37:47Z</time>
      </trkpt>
      <trkpt lat="43.29625" lon="6.02968">
        <ele>464.125</ele>
        <time>2016-02-21T08:37:59Z</time>
      </trkpt>
      <trkpt lat="43.29624" lon="6.0297">
        <ele>464.22265625</ele>
        <time>2016-02-21T08:38:00Z</time>
      </trkpt>
      <trkpt lat="43.29622" lon="6.02971">
        <ele>464.34375</ele>
        <time>2016-02-21T08:38:01Z</time>
      </trkpt>
      <trkpt lat="43.29621" lon="6.02972">
        <ele>464.41796875</ele>
        <time>2016-02-21T08:38:02Z</time>
      </trkpt>
      <trkpt lat="43.29621" lon="6.02972">
        <ele>464.44921875</ele>
        <time>2016-02-21T08:38:18Z</time>
      </trkpt>
      <trkpt lat="43.29622" lon="6.02976">
        <ele>464.29296875</ele>
        <time>2016-02-21T08:38:51Z</time>
      </trkpt>
      <trkpt lat="43.2961" lon="6.02991">
        <ele>464.41796875</ele>
        <time>2016-02-21T08:39:08Z</time>
      </trkpt>
      <trkpt lat="43.29572" lon="6.03031">
        <ele>467.66015625</ele>
        <time>2016-02-21T08:39:23Z</time>
      </trkpt>
      <trkpt lat="43.29533" lon="6.03063">
        <ele>469.26953125</ele>
        <time>2016-02-21T08:39:38Z</time>
      </trkpt>
      <trkpt lat="43.29498" lon="6.03097">
        <ele>470.83203125</ele>
        <time>2016-02-21T08:39:52Z</time>
      </trkpt>
      <trkpt lat="43.29476" lon="6.03134">
        <ele>470.828125</ele>
        <time>2016-02-21T08:40:04Z</time>
      </trkpt>
      <trkpt lat="43.29476" lon="6.0314">
        <ele>470.8359375</ele>
        <time>2016-02-21T08:40:05Z</time>
      </trkpt>
      <trkpt lat="43.29477" lon="6.03146">
        <ele>470.80859375</ele>
        <time>2016-02-21T08:40:06Z</time>
      </trkpt>
      <trkpt lat="43.29479" lon="6.03152">
        <ele>470.75</ele>
        <time>2016-02-21T08:40:07Z</time>
      </trkpt>
      <trkpt lat="43.29482" lon="6.03157">
        <ele>470.65625</ele>
        <time>2016-02-21T08:40:08Z</time>
      </trkpt>
      <trkpt lat="43.29486" lon="6.0316">
        <ele>470.54296875</ele>
        <time>2016-02-21T08:40:09Z</time>
      </trkpt>
      <trkpt lat="43.2949" lon="6.03161">
        <ele>470.421875</ele>
        <time>2016-02-21T08:40:10Z</time>
      </trkpt>
      <trkpt lat="43.29495" lon="6.03162">
        <ele>470.28125</ele>
        <time>2016-02-21T08:40:11Z</time>
      </trkpt>
      <trkpt lat="43.29504" lon="6.03165">
        <ele>470.0546875</ele>
        <time>2016-02-21T08:40:13Z</time>
      </trkpt>
      <trkpt lat="43.29508" lon="6.03168">
        <ele>470.00390625</ele>
        <time>2016-02-21T08:40:14Z</time>
      </trkpt>
      <trkpt lat="43.29515" lon="6.03174">
        <ele>469.9921875</ele>
        <time>2016-02-21T08:40:16Z</time>
      </trkpt>
      <trkpt lat="43.29519" lon="6.03179">
        <ele>470.03125</ele>
        <time>2016-02-21T08:40:17Z</time>
      </trkpt>
      <trkpt lat="43.29523" lon="6.03184">
        <ele>470.08203125</ele>
        <time>2016-02-21T08:40:18Z</time>
      </trkpt>
      <trkpt lat="43.29526" lon="6.03189">
        <ele>470.19140625</ele>
        <time>2016-02-21T08:40:19Z</time>
      </trkpt>
      <trkpt lat="43.29528" lon="6.03195">
        <ele>470.48828125</ele>
        <time>2016-02-21T08:40:20Z</time>
      </trkpt>
      <trkpt lat="43.29529" lon="6.032">
        <ele>470.87890625</ele>
        <time>2016-02-21T08:40:21Z</time>
      </trkpt>
      <trkpt lat="43.29529" lon="6.03206">
        <ele>471.30078125</ele>
        <time>2016-02-21T08:40:22Z</time>
      </trkpt>
      <trkpt lat="43.29529" lon="6.03211">
        <ele>471.65625</ele>
        <time>2016-02-21T08:40:23Z</time>
      </trkpt>
      <trkpt lat="43.29529" lon="6.03216">
        <ele>472.03125</ele>
        <time>2016-02-21T08:40:24Z</time>
      </trkpt>
      <trkpt lat="43.29529" lon="6.03222">
        <ele>472.44921875</ele>
        <time>2016-02-21T08:40:25Z</time>
      </trkpt>
      <trkpt lat="43.2953" lon="6.03227">
        <ele>472.87890625</ele>
        <time>2016-02-21T08:40:26Z</time>
      </trkpt>
      <trkpt lat="43.29529" lon="6.03233">
        <ele>473.29296875</ele>
        <time>2016-02-21T08:40:27Z</time>
      </trkpt>
      <trkpt lat="43.29528" lon="6.03239">
        <ele>473.62890625</ele>
        <time>2016-02-21T08:40:28Z</time>
      </trkpt>
      <trkpt lat="43.29526" lon="6.03245">
        <ele>473.875</ele>
        <time>2016-02-21T08:40:29Z</time>
      </trkpt>
      <trkpt lat="43.29525" lon="6.0325">
        <ele>473.98828125</ele>
        <time>2016-02-21T08:40:30Z</time>
      </trkpt>
      <trkpt lat="43.29523" lon="6.03255">
        <ele>474.0859375</ele>
        <time>2016-02-21T08:40:31Z</time>
      </trkpt>
      <trkpt lat="43.29502" lon="6.03299">
        <ele>475.06640625</ele>
        <time>2016-02-21T08:40:43Z</time>
      </trkpt>
      <trkpt lat="43.29489" lon="6.03333">
        <ele>476.7109375</ele>
        <time>2016-02-21T08:40:56Z</time>
      </trkpt>
      <trkpt lat="43.29492" lon="6.03373">
        <ele>478.44921875</ele>
        <time>2016-02-21T08:41:09Z</time>
      </trkpt>
      <trkpt lat="43.29492" lon="6.03413">
        <ele>481.1796875</ele>
        <time>2016-02-21T08:41:23Z</time>
      </trkpt>
      <trkpt lat="43.29491" lon="6.03418">
        <ele>481.40625</ele>
        <time>2016-02-21T08:41:52Z</time>
      </trkpt>
      <trkpt lat="43.2949" lon="6.0342">
        <ele>481.4453125</ele>
        <time>2016-02-21T08:41:53Z</time>
      </trkpt>
      <trkpt lat="43.29489" lon="6.03423">
        <ele>481.44140625</ele>
        <time>2016-02-21T08:41:54Z</time>
      </trkpt>
      <trkpt lat="43.29488" lon="6.03425">
        <ele>481.37890625</ele>
        <time>2016-02-21T08:41:55Z</time>
      </trkpt>
      <trkpt lat="43.29486" lon="6.03427">
        <ele>481.28515625</ele>
        <time>2016-02-21T08:41:56Z</time>
      </trkpt>
      <trkpt lat="43.29464" lon="6.03456">
        <ele>480.6171875</ele>
        <time>2016-02-21T08:42:07Z</time>
      </trkpt>
      <trkpt lat="43.29463" lon="6.035">
        <ele>482</ele>
        <time>2016-02-21T08:42:17Z</time>
      </trkpt>
      <trkpt lat="43.29479" lon="6.03543">
        <ele>484.91015625</ele>
        <time>2016-02-21T08:42:29Z</time>
      </trkpt>
      <trkpt lat="43.29491" lon="6.03586">
        <ele>486.96484375</ele>
        <time>2016-02-21T08:42:41Z</time>
      </trkpt>
      <trkpt lat="43.29505" lon="6.03641">
        <ele>489.0859375</ele>
        <time>2016-02-21T08:42:56Z</time>
      </trkpt>
      <trkpt lat="43.29515" lon="6.03684">
        <ele>491.03125</ele>
        <time>2016-02-21T08:43:09Z</time>
      </trkpt>
      <trkpt lat="43.29514" lon="6.03721">
        <ele>491.3671875</ele>
        <time>2016-02-21T08:43:20Z</time>
      </trkpt>
      <trkpt lat="43.2952" lon="6.03781">
        <ele>492.5078125</ele>
        <time>2016-02-21T08:43:37Z</time>
      </trkpt>
      <trkpt lat="43.29505" lon="6.03815">
        <ele>490.55078125</ele>
        <time>2016-02-21T08:43:49Z</time>
      </trkpt>
      <trkpt lat="43.29479" lon="6.03832">
        <ele>488.62109375</ele>
        <time>2016-02-21T08:44:02Z</time>
      </trkpt>
      <trkpt lat="43.29471" lon="6.03871">
        <ele>489.61328125</ele>
        <time>2016-02-21T08:44:16Z</time>
      </trkpt>
      <trkpt lat="43.29473" lon="6.03915">
        <ele>491.17578125</ele>
        <time>2016-02-21T08:44:29Z</time>
      </trkpt>
      <trkpt lat="43.29453" lon="6.03955">
        <ele>493.078125</ele>
        <time>2016-02-21T08:44:43Z</time>
      </trkpt>
      <trkpt lat="43.29413" lon="6.03971">
        <ele>496.7734375</ele>
        <time>2016-02-21T08:44:59Z</time>
      </trkpt>
      <trkpt lat="43.29384" lon="6.03983">
        <ele>499.58203125</ele>
        <time>2016-02-21T08:45:12Z</time>
      </trkpt>
      <trkpt lat="43.29355" lon="6.03998">
        <ele>501.78125</ele>
        <time>2016-02-21T08:45:27Z</time>
      </trkpt>
      <trkpt lat="43.29338" lon="6.04018">
        <ele>504.58984375</ele>
        <time>2016-02-21T08:45:39Z</time>
      </trkpt>
      <trkpt lat="43.29319" lon="6.04046">
        <ele>506.23828125</ele>
        <time>2016-02-21T08:45:53Z</time>
      </trkpt>
      <trkpt lat="43.29292" lon="6.04074">
        <ele>508.765625</ele>
        <time>2016-02-21T08:46:08Z</time>
      </trkpt>
      <trkpt lat="43.29262" lon="6.04099">
        <ele>510.79296875</ele>
        <time>2016-02-21T08:46:23Z</time>
      </trkpt>
      <trkpt lat="43.29244" lon="6.0411">
        <ele>512.09765625</ele>
        <time>2016-02-21T08:46:33Z</time>
      </trkpt>
      <trkpt lat="43.29242" lon="6.04111">
        <ele>512.2734375</ele>
        <time>2016-02-21T08:46:34Z</time>
      </trkpt>
      <trkpt lat="43.2924" lon="6.04111">
        <ele>512.37890625</ele>
        <time>2016-02-21T08:46:35Z</time>
      </trkpt>
      <trkpt lat="43.29238" lon="6.04111">
        <ele>512.43359375</ele>
        <time>2016-02-21T08:46:36Z</time>
      </trkpt>
      <trkpt lat="43.29236" lon="6.04111">
        <ele>512.46875</ele>
        <time>2016-02-21T08:46:37Z</time>
      </trkpt>
      <trkpt lat="43.29234" lon="6.0411">
        <ele>512.484375</ele>
        <time>2016-02-21T08:46:38Z</time>
      </trkpt>
      <trkpt lat="43.29206" lon="6.04089">
        <ele>511.02734375</ele>
        <time>2016-02-21T08:46:54Z</time>
      </trkpt>
      <trkpt lat="43.29174" lon="6.04066">
        <ele>510.47265625</ele>
        <time>2016-02-21T08:47:11Z</time>
      </trkpt>
      <trkpt lat="43.29149" lon="6.04071">
        <ele>511.49609375</ele>
        <time>2016-02-21T08:47:24Z</time>
      </trkpt>
      <trkpt lat="43.29129" lon="6.04102">
        <ele>514.7890625</ele>
        <time>2016-02-21T08:47:38Z</time>
      </trkpt>
      <trkpt lat="43.2911" lon="6.04136">
        <ele>517.34765625</ele>
        <time>2016-02-21T08:47:51Z</time>
      </trkpt>
      <trkpt lat="43.29104" lon="6.04143">
        <ele>517.91796875</ele>
        <time>2016-02-21T08:47:56Z</time>
      </trkpt>
      <trkpt lat="43.29098" lon="6.04148">
        <ele>518.21875</ele>
        <time>2016-02-21T08:48:01Z</time>
      </trkpt>
      <trkpt lat="43.29075" lon="6.04157">
        <ele>518.06640625</ele>
        <time>2016-02-21T08:48:17Z</time>
      </trkpt>
      <trkpt lat="43.29049" lon="6.04162">
        <ele>517.48828125</ele>
        <time>2016-02-21T08:48:32Z</time>
      </trkpt>
      <trkpt lat="43.29042" lon="6.04167">
        <ele>518.02734375</ele>
        <time>2016-02-21T08:48:36Z</time>
      </trkpt>
      <trkpt lat="43.29041" lon="6.04169">
        <ele>518.1875</ele>
        <time>2016-02-21T08:48:37Z</time>
      </trkpt>
      <trkpt lat="43.29039" lon="6.04171">
        <ele>518.33984375</ele>
        <time>2016-02-21T08:48:38Z</time>
      </trkpt>
      <trkpt lat="43.29038" lon="6.04173">
        <ele>518.484375</ele>
        <time>2016-02-21T08:48:39Z</time>
      </trkpt>
      <trkpt lat="43.29036" lon="6.04176">
        <ele>518.62890625</ele>
        <time>2016-02-21T08:48:40Z</time>
      </trkpt>
      <trkpt lat="43.29005" lon="6.04211">
        <ele>519.96484375</ele>
        <time>2016-02-21T08:48:53Z</time>
      </trkpt>
      <trkpt lat="43.28976" lon="6.04245">
        <ele>520.16796875</ele>
        <time>2016-02-21T08:49:07Z</time>
      </trkpt>
      <trkpt lat="43.28957" lon="6.0426">
        <ele>520.61328125</ele>
        <time>2016-02-21T08:49:16Z</time>
      </trkpt>
      <trkpt lat="43.28954" lon="6.04259">
        <ele>520.578125</ele>
        <time>2016-02-21T08:49:17Z</time>
      </trkpt>
      <trkpt lat="43.28952" lon="6.04258">
        <ele>520.5234375</ele>
        <time>2016-02-21T08:49:18Z</time>
      </trkpt>
      <trkpt lat="43.2895" lon="6.04256">
        <ele>520.4609375</ele>
        <time>2016-02-21T08:49:19Z</time>
      </trkpt>
      <trkpt lat="43.28948" lon="6.04254">
        <ele>520.40234375</ele>
        <time>2016-02-21T08:49:20Z</time>
      </trkpt>
      <trkpt lat="43.28945" lon="6.04252">
        <ele>520.35546875</ele>
        <time>2016-02-21T08:49:21Z</time>
      </trkpt>
      <trkpt lat="43.28943" lon="6.04251">
        <ele>520.3828125</ele>
        <time>2016-02-21T08:49:22Z</time>
      </trkpt>
      <trkpt lat="43.289" lon="6.04226">
        <ele>521.6640625</ele>
        <time>2016-02-21T08:49:38Z</time>
      </trkpt>
      <trkpt lat="43.28869" lon="6.0421">
        <ele>522.7578125</ele>
        <time>2016-02-21T08:49:50Z</time>
      </trkpt>
      <trkpt lat="43.28834" lon="6.04215">
        <ele>524.03125</ele>
        <time>2016-02-21T08:50:04Z</time>
      </trkpt>
      <trkpt lat="43.28824" lon="6.04261">
        <ele>527.11328125</ele>
        <time>2016-02-21T08:50:17Z</time>
      </trkpt>
      <trkpt lat="43.28807" lon="6.04301">
        <ele>530.07421875</ele>
        <time>2016-02-21T08:50:31Z</time>
      </trkpt>
      <trkpt lat="43.28783" lon="6.04333">
        <ele>530.36328125</ele>
        <time>2016-02-21T08:50:44Z</time>
      </trkpt>
      <trkpt lat="43.28751" lon="6.0436">
        <ele>532.23828125</ele>
        <time>2016-02-21T08:50:59Z</time>
      </trkpt>
      <trkpt lat="43.28708" lon="6.04375">
        <ele>533.65234375</ele>
        <time>2016-02-21T08:51:16Z</time>
      </trkpt>
      <trkpt lat="43.28673" lon="6.04372">
        <ele>534.46875</ele>
        <time>2016-02-21T08:51:31Z</time>
      </trkpt>
      <trkpt lat="43.28641" lon="6.04387">
        <ele>536.58203125</ele>
        <time>2016-02-21T08:51:46Z</time>
      </trkpt>
      <trkpt lat="43.28617" lon="6.04412">
        <ele>539.10546875</ele>
        <time>2016-02-21T08:51:59Z</time>
      </trkpt>
      <trkpt lat="43.28605" lon="6.0446">
        <ele>540.52734375</ele>
        <time>2016-02-21T08:52:14Z</time>
      </trkpt>
      <trkpt lat="43.28602" lon="6.04504">
        <ele>542.6328125</ele>
        <time>2016-02-21T08:52:27Z</time>
      </trkpt>
      <trkpt lat="43.28592" lon="6.04554">
        <ele>543.9140625</ele>
        <time>2016-02-21T08:52:42Z</time>
      </trkpt>
      <trkpt lat="43.28573" lon="6.04591">
        <ele>546.1640625</ele>
        <time>2016-02-21T08:52:55Z</time>
      </trkpt>
      <trkpt lat="43.28548" lon="6.04626">
        <ele>548.16796875</ele>
        <time>2016-02-21T08:53:09Z</time>
      </trkpt>
      <trkpt lat="43.28537" lon="6.0466">
        <ele>550.28515625</ele>
        <time>2016-02-21T08:53:21Z</time>
      </trkpt>
      <trkpt lat="43.2852" lon="6.04678">
        <ele>550.33203125</ele>
        <time>2016-02-21T08:53:32Z</time>
      </trkpt>
      <trkpt lat="43.28517" lon="6.04682">
        <ele>550.36328125</ele>
        <time>2016-02-21T08:53:35Z</time>
      </trkpt>
      <trkpt lat="43.28507" lon="6.04709">
        <ele>551.0078125</ele>
        <time>2016-02-21T08:53:49Z</time>
      </trkpt>
      <trkpt lat="43.28494" lon="6.04734">
        <ele>551.43359375</ele>
        <time>2016-02-21T08:54:03Z</time>
      </trkpt>
      <trkpt lat="43.28481" lon="6.04755">
        <ele>552.94921875</ele>
        <time>2016-02-21T08:54:17Z</time>
      </trkpt>
      <trkpt lat="43.28481" lon="6.04757">
        <ele>553.04296875</ele>
        <time>2016-02-21T08:54:18Z</time>
      </trkpt>
      <trkpt lat="43.28481" lon="6.04759">
        <ele>553.1171875</ele>
        <time>2016-02-21T08:54:19Z</time>
      </trkpt>
      <trkpt lat="43.28481" lon="6.04761">
        <ele>553.1640625</ele>
        <time>2016-02-21T08:54:20Z</time>
      </trkpt>
      <trkpt lat="43.28482" lon="6.04763">
        <ele>553.16015625</ele>
        <time>2016-02-21T08:54:21Z</time>
      </trkpt>
      <trkpt lat="43.28483" lon="6.04765">
        <ele>553.15234375</ele>
        <time>2016-02-21T08:54:22Z</time>
      </trkpt>
      <trkpt lat="43.28484" lon="6.04767">
        <ele>553.12109375</ele>
        <time>2016-02-21T08:54:23Z</time>
      </trkpt>
      <trkpt lat="43.28486" lon="6.0477">
        <ele>553.0859375</ele>
        <time>2016-02-21T08:54:24Z</time>
      </trkpt>
      <trkpt lat="43.28507" lon="6.04792">
        <ele>553.31640625</ele>
        <time>2016-02-21T08:54:32Z</time>
      </trkpt>
      <trkpt lat="43.28511" lon="6.04794">
        <ele>553.79296875</ele>
        <time>2016-02-21T08:54:33Z</time>
      </trkpt>
      <trkpt lat="43.28515" lon="6.04794">
        <ele>554.17578125</ele>
        <time>2016-02-21T08:54:34Z</time>
      </trkpt>
      <trkpt lat="43.28518" lon="6.04792">
        <ele>554.46875</ele>
        <time>2016-02-21T08:54:35Z</time>
      </trkpt>
      <trkpt lat="43.28522" lon="6.04791">
        <ele>554.71875</ele>
        <time>2016-02-21T08:54:36Z</time>
      </trkpt>
      <trkpt lat="43.28524" lon="6.0479">
        <ele>554.92578125</ele>
        <time>2016-02-21T08:54:37Z</time>
      </trkpt>
      <trkpt lat="43.28527" lon="6.04788">
        <ele>555.02734375</ele>
        <time>2016-02-21T08:54:38Z</time>
      </trkpt>
      <trkpt lat="43.28529" lon="6.04786">
        <ele>555.1015625</ele>
        <time>2016-02-21T08:54:39Z</time>
      </trkpt>
      <trkpt lat="43.2853" lon="6.04784">
        <ele>555.06640625</ele>
        <time>2016-02-21T08:54:40Z</time>
      </trkpt>
      <trkpt lat="43.28532" lon="6.04781">
        <ele>554.953125</ele>
        <time>2016-02-21T08:54:41Z</time>
      </trkpt>
      <trkpt lat="43.28533" lon="6.04778">
        <ele>554.8125</ele>
        <time>2016-02-21T08:54:42Z</time>
      </trkpt>
      <trkpt lat="43.28534" lon="6.04775">
        <ele>554.66796875</ele>
        <time>2016-02-21T08:54:43Z</time>
      </trkpt>
      <trkpt lat="43.28536" lon="6.04771">
        <ele>554.53125</ele>
        <time>2016-02-21T08:54:44Z</time>
      </trkpt>
      <trkpt lat="43.28557" lon="6.04729">
        <ele>553.9921875</ele>
        <time>2016-02-21T08:54:58Z</time>
      </trkpt>
      <trkpt lat="43.28577" lon="6.04686">
        <ele>553.671875</ele>
        <time>2016-02-21T08:55:12Z</time>
      </trkpt>
      <trkpt lat="43.2861" lon="6.0468">
        <ele>554.3828125</ele>
        <time>2016-02-21T08:55:25Z</time>
      </trkpt>
      <trkpt lat="43.2864" lon="6.04687">
        <ele>554.0078125</ele>
        <time>2016-02-21T08:55:37Z</time>
      </trkpt>
      <trkpt lat="43.28666" lon="6.04705">
        <ele>554.328125</ele>
        <time>2016-02-21T08:55:48Z</time>
      </trkpt>
      <trkpt lat="43.28705" lon="6.04733">
        <ele>554.3984375</ele>
        <time>2016-02-21T08:56:03Z</time>
      </trkpt>
      <trkpt lat="43.28738" lon="6.04756">
        <ele>553.140625</ele>
        <time>2016-02-21T08:56:16Z</time>
      </trkpt>
      <trkpt lat="43.28761" lon="6.04792">
        <ele>553.828125</ele>
        <time>2016-02-21T08:56:29Z</time>
      </trkpt>
      <trkpt lat="43.28769" lon="6.04807">
        <ele>554.41015625</ele>
        <time>2016-02-21T08:56:34Z</time>
      </trkpt>
      <trkpt lat="43.2877" lon="6.04811">
        <ele>554.6015625</ele>
        <time>2016-02-21T08:56:35Z</time>
      </trkpt>
      <trkpt lat="43.28771" lon="6.04814">
        <ele>554.7578125</ele>
        <time>2016-02-21T08:56:36Z</time>
      </trkpt>
      <trkpt lat="43.28772" lon="6.04817">
        <ele>554.90234375</ele>
        <time>2016-02-21T08:56:37Z</time>
      </trkpt>
      <trkpt lat="43.28773" lon="6.04821">
        <ele>555.11328125</ele>
        <time>2016-02-21T08:56:38Z</time>
      </trkpt>
      <trkpt lat="43.28773" lon="6.04825">
        <ele>555.36328125</ele>
        <time>2016-02-21T08:56:39Z</time>
      </trkpt>
      <trkpt lat="43.28774" lon="6.04859">
        <ele>558.70703125</ele>
        <time>2016-02-21T08:56:49Z</time>
      </trkpt>
      <trkpt lat="43.28783" lon="6.04878">
        <ele>559.57421875</ele>
        <time>2016-02-21T08:56:56Z</time>
      </trkpt>
      <trkpt lat="43.28785" lon="6.04879">
        <ele>559.6015625</ele>
        <time>2016-02-21T08:56:57Z</time>
      </trkpt>
      <trkpt lat="43.28787" lon="6.0488">
        <ele>559.609375</ele>
        <time>2016-02-21T08:56:58Z</time>
      </trkpt>
      <trkpt lat="43.28815" lon="6.04894">
        <ele>559.59375</ele>
        <time>2016-02-21T08:57:12Z</time>
      </trkpt>
      <trkpt lat="43.28835" lon="6.04917">
        <ele>560.29296875</ele>
        <time>2016-02-21T08:57:26Z</time>
      </trkpt>
      <trkpt lat="43.2885" lon="6.04952">
        <ele>562.06640625</ele>
        <time>2016-02-21T08:57:41Z</time>
      </trkpt>
      <trkpt lat="43.28852" lon="6.04982">
        <ele>564.2421875</ele>
        <time>2016-02-21T08:57:52Z</time>
      </trkpt>
      <trkpt lat="43.28861" lon="6.05018">
        <ele>566.8359375</ele>
        <time>2016-02-21T08:58:04Z</time>
      </trkpt>
      <trkpt lat="43.28864" lon="6.05019">
        <ele>566.8828125</ele>
        <time>2016-02-21T08:58:05Z</time>
      </trkpt>
      <trkpt lat="43.28867" lon="6.05019">
        <ele>566.87890625</ele>
        <time>2016-02-21T08:58:06Z</time>
      </trkpt>
      <trkpt lat="43.2887" lon="6.05019">
        <ele>566.8984375</ele>
        <time>2016-02-21T08:58:07Z</time>
      </trkpt>
      <trkpt lat="43.28872" lon="6.05018">
        <ele>566.83984375</ele>
        <time>2016-02-21T08:58:08Z</time>
      </trkpt>
      <trkpt lat="43.28874" lon="6.05017">
        <ele>566.734375</ele>
        <time>2016-02-21T08:58:09Z</time>
      </trkpt>
      <trkpt lat="43.28877" lon="6.05015">
        <ele>566.640625</ele>
        <time>2016-02-21T08:58:10Z</time>
      </trkpt>
      <trkpt lat="43.28879" lon="6.05014">
        <ele>566.54296875</ele>
        <time>2016-02-21T08:58:11Z</time>
      </trkpt>
      <trkpt lat="43.28881" lon="6.05012">
        <ele>566.40234375</ele>
        <time>2016-02-21T08:58:12Z</time>
      </trkpt>
      <trkpt lat="43.28883" lon="6.0501">
        <ele>566.234375</ele>
        <time>2016-02-21T08:58:13Z</time>
      </trkpt>
      <trkpt lat="43.28897" lon="6.04998">
        <ele>565.1875</ele>
        <time>2016-02-21T08:58:20Z</time>
      </trkpt>
      <trkpt lat="43.28899" lon="6.04998">
        <ele>565.08203125</ele>
        <time>2016-02-21T08:58:21Z</time>
      </trkpt>
      <trkpt lat="43.28901" lon="6.04997">
        <ele>564.9609375</ele>
        <time>2016-02-21T08:58:22Z</time>
      </trkpt>
      <trkpt lat="43.28902" lon="6.04997">
        <ele>564.8515625</ele>
        <time>2016-02-21T08:58:23Z</time>
      </trkpt>
      <trkpt lat="43.28904" lon="6.04996">
        <ele>564.7421875</ele>
        <time>2016-02-21T08:58:24Z</time>
      </trkpt>
      <trkpt lat="43.28923" lon="6.04999">
        <ele>564.8515625</ele>
        <time>2016-02-21T08:58:34Z</time>
      </trkpt>
      <trkpt lat="43.28925" lon="6.05">
        <ele>565.0078125</ele>
        <time>2016-02-21T08:58:35Z</time>
      </trkpt>
      <trkpt lat="43.2894" lon="6.05018">
        <ele>567.45703125</ele>
        <time>2016-02-21T08:58:46Z</time>
      </trkpt>
      <trkpt lat="43.28948" lon="6.0505">
        <ele>569.234375</ele>
        <time>2016-02-21T08:58:59Z</time>
      </trkpt>
      <trkpt lat="43.28951" lon="6.0508">
        <ele>571.4921875</ele>
        <time>2016-02-21T08:59:12Z</time>
      </trkpt>
      <trkpt lat="43.28963" lon="6.05108">
        <ele>573.48046875</ele>
        <time>2016-02-21T08:59:25Z</time>
      </trkpt>
      <trkpt lat="43.2898" lon="6.05129">
        <ele>576.3046875</ele>
        <time>2016-02-21T08:59:36Z</time>
      </trkpt>
      <trkpt lat="43.28989" lon="6.05136">
        <ele>577.41015625</ele>
        <time>2016-02-21T08:59:40Z</time>
      </trkpt>
      <trkpt lat="43.28991" lon="6.05137">
        <ele>577.6328125</ele>
        <time>2016-02-21T08:59:41Z</time>
      </trkpt>
      <trkpt lat="43.28993" lon="6.05138">
        <ele>577.859375</ele>
        <time>2016-02-21T08:59:42Z</time>
      </trkpt>
      <trkpt lat="43.28996" lon="6.05139">
        <ele>578.1171875</ele>
        <time>2016-02-21T08:59:43Z</time>
      </trkpt>
      <trkpt lat="43.28998" lon="6.05139">
        <ele>578.3125</ele>
        <time>2016-02-21T08:59:44Z</time>
      </trkpt>
      <trkpt lat="43.29" lon="6.05138">
        <ele>578.4140625</ele>
        <time>2016-02-21T08:59:45Z</time>
      </trkpt>
      <trkpt lat="43.29003" lon="6.05136">
        <ele>578.51171875</ele>
        <time>2016-02-21T08:59:46Z</time>
      </trkpt>
      <trkpt lat="43.29005" lon="6.05133">
        <ele>578.5390625</ele>
        <time>2016-02-21T08:59:47Z</time>
      </trkpt>
      <trkpt lat="43.29006" lon="6.05131">
        <ele>578.515625</ele>
        <time>2016-02-21T08:59:48Z</time>
      </trkpt>
      <trkpt lat="43.29007" lon="6.05128">
        <ele>578.515625</ele>
        <time>2016-02-21T08:59:49Z</time>
      </trkpt>
      <trkpt lat="43.29007" lon="6.05126">
        <ele>578.45703125</ele>
        <time>2016-02-21T08:59:50Z</time>
      </trkpt>
      <trkpt lat="43.29005" lon="6.0508">
        <ele>576.78125</ele>
        <time>2016-02-21T09:00:05Z</time>
      </trkpt>
      <trkpt lat="43.29014" lon="6.05036">
        <ele>578.7109375</ele>
        <time>2016-02-21T09:00:20Z</time>
      </trkpt>
      <trkpt lat="43.29029" lon="6.04996">
        <ele>581.04296875</ele>
        <time>2016-02-21T09:00:33Z</time>
      </trkpt>
      <trkpt lat="43.29041" lon="6.04962">
        <ele>582.35546875</ele>
        <time>2016-02-21T09:00:46Z</time>
      </trkpt>
      <trkpt lat="43.29056" lon="6.04927">
        <ele>583.1796875</ele>
        <time>2016-02-21T09:00:59Z</time>
      </trkpt>
      <trkpt lat="43.29077" lon="6.04895">
        <ele>583.3828125</ele>
        <time>2016-02-21T09:01:12Z</time>
      </trkpt>
      <trkpt lat="43.29079" lon="6.04894">
        <ele>583.55078125</ele>
        <time>2016-02-21T09:01:13Z</time>
      </trkpt>
      <trkpt lat="43.29081" lon="6.04894">
        <ele>583.85546875</ele>
        <time>2016-02-21T09:01:14Z</time>
      </trkpt>
      <trkpt lat="43.29083" lon="6.04895">
        <ele>584.2890625</ele>
        <time>2016-02-21T09:01:15Z</time>
      </trkpt>
      <trkpt lat="43.29085" lon="6.04897">
        <ele>584.7890625</ele>
        <time>2016-02-21T09:01:16Z</time>
      </trkpt>
      <trkpt lat="43.29087" lon="6.049">
        <ele>585.29296875</ele>
        <time>2016-02-21T09:01:17Z</time>
      </trkpt>
      <trkpt lat="43.29088" lon="6.04902">
        <ele>585.71484375</ele>
        <time>2016-02-21T09:01:18Z</time>
      </trkpt>
      <trkpt lat="43.29088" lon="6.04905">
        <ele>586.0546875</ele>
        <time>2016-02-21T09:01:19Z</time>
      </trkpt>
      <trkpt lat="43.29088" lon="6.04907">
        <ele>586.33203125</ele>
        <time>2016-02-21T09:01:20Z</time>
      </trkpt>
      <trkpt lat="43.29088" lon="6.04909">
        <ele>586.4765625</ele>
        <time>2016-02-21T09:01:21Z</time>
      </trkpt>
      <trkpt lat="43.29087" lon="6.04911">
        <ele>586.5</ele>
        <time>2016-02-21T09:01:22Z</time>
      </trkpt>
      <trkpt lat="43.29086" lon="6.04913">
        <ele>586.453125</ele>
        <time>2016-02-21T09:01:23Z</time>
      </trkpt>
      <trkpt lat="43.29079" lon="6.04922">
        <ele>586.06640625</ele>
        <time>2016-02-21T09:01:29Z</time>
      </trkpt>
      <trkpt lat="43.29078" lon="6.04924">
        <ele>586.0859375</ele>
        <time>2016-02-21T09:01:30Z</time>
      </trkpt>
      <trkpt lat="43.29077" lon="6.04926">
        <ele>586.1484375</ele>
        <time>2016-02-21T09:01:31Z</time>
      </trkpt>
      <trkpt lat="43.29071" lon="6.04965">
        <ele>587.50390625</ele>
        <time>2016-02-21T09:01:47Z</time>
      </trkpt>
      <trkpt lat="43.2907" lon="6.04984">
        <ele>588.1328125</ele>
        <time>2016-02-21T09:01:57Z</time>
      </trkpt>
      <trkpt lat="43.2907" lon="6.04985">
        <ele>588.18359375</ele>
        <time>2016-02-21T09:01:58Z</time>
      </trkpt>
      <trkpt lat="43.2907" lon="6.04987">
        <ele>588.2421875</ele>
        <time>2016-02-21T09:01:59Z</time>
      </trkpt>
      <trkpt lat="43.2907" lon="6.04989">
        <ele>588.34375</ele>
        <time>2016-02-21T09:02:00Z</time>
      </trkpt>
      <trkpt lat="43.29071" lon="6.04991">
        <ele>588.453125</ele>
        <time>2016-02-21T09:02:01Z</time>
      </trkpt>
      <trkpt lat="43.29077" lon="6.05012">
        <ele>589.6875</ele>
        <time>2016-02-21T09:02:12Z</time>
      </trkpt>
      <trkpt lat="43.29078" lon="6.05013">
        <ele>589.8828125</ele>
        <time>2016-02-21T09:02:13Z</time>
      </trkpt>
      <trkpt lat="43.2908" lon="6.05016">
        <ele>590.1875</ele>
        <time>2016-02-21T09:02:15Z</time>
      </trkpt>
      <trkpt lat="43.29087" lon="6.05044">
        <ele>591.3046875</ele>
        <time>2016-02-21T09:02:30Z</time>
      </trkpt>
      <trkpt lat="43.29098" lon="6.05074">
        <ele>591.46875</ele>
        <time>2016-02-21T09:02:45Z</time>
      </trkpt>
      <trkpt lat="43.2912" lon="6.05101">
        <ele>593.2734375</ele>
        <time>2016-02-21T09:02:59Z</time>
      </trkpt>
      <trkpt lat="43.29138" lon="6.05121">
        <ele>593.92578125</ele>
        <time>2016-02-21T09:03:11Z</time>
      </trkpt>
      <trkpt lat="43.29167" lon="6.05136">
        <ele>594.96484375</ele>
        <time>2016-02-21T09:03:25Z</time>
      </trkpt>
      <trkpt lat="43.29196" lon="6.05153">
        <ele>593.984375</ele>
        <time>2016-02-21T09:03:40Z</time>
      </trkpt>
      <trkpt lat="43.29198" lon="6.05154">
        <ele>593.85546875</ele>
        <time>2016-02-21T09:03:41Z</time>
      </trkpt>
      <trkpt lat="43.292" lon="6.05155">
        <ele>593.7109375</ele>
        <time>2016-02-21T09:03:42Z</time>
      </trkpt>
      <trkpt lat="43.29202" lon="6.05156">
        <ele>593.5703125</ele>
        <time>2016-02-21T09:03:43Z</time>
      </trkpt>
      <trkpt lat="43.29204" lon="6.05157">
        <ele>593.4140625</ele>
        <time>2016-02-21T09:03:44Z</time>
      </trkpt>
      <trkpt lat="43.29206" lon="6.05158">
        <ele>593.28515625</ele>
        <time>2016-02-21T09:03:45Z</time>
      </trkpt>
      <trkpt lat="43.29238" lon="6.05186">
        <ele>590.4375</ele>
        <time>2016-02-21T09:03:59Z</time>
      </trkpt>
      <trkpt lat="43.29253" lon="6.05225">
        <ele>587.6953125</ele>
        <time>2016-02-21T09:04:12Z</time>
      </trkpt>
      <trkpt lat="43.29253" lon="6.05237">
        <ele>587.6796875</ele>
        <time>2016-02-21T09:04:16Z</time>
      </trkpt>
      <trkpt lat="43.29252" lon="6.0524">
        <ele>587.90625</ele>
        <time>2016-02-21T09:04:17Z</time>
      </trkpt>
      <trkpt lat="43.2925" lon="6.05241">
        <ele>588.08984375</ele>
        <time>2016-02-21T09:04:18Z</time>
      </trkpt>
      <trkpt lat="43.29249" lon="6.05243">
        <ele>588.2734375</ele>
        <time>2016-02-21T09:04:19Z</time>
      </trkpt>
      <trkpt lat="43.29248" lon="6.05244">
        <ele>588.48046875</ele>
        <time>2016-02-21T09:04:20Z</time>
      </trkpt>
      <trkpt lat="43.29246" lon="6.05245">
        <ele>588.70703125</ele>
        <time>2016-02-21T09:04:21Z</time>
      </trkpt>
      <trkpt lat="43.29245" lon="6.05246">
        <ele>588.94140625</ele>
        <time>2016-02-21T09:04:22Z</time>
      </trkpt>
      <trkpt lat="43.29243" lon="6.05247">
        <ele>589.18359375</ele>
        <time>2016-02-21T09:04:23Z</time>
      </trkpt>
      <trkpt lat="43.29241" lon="6.05247">
        <ele>589.40625</ele>
        <time>2016-02-21T09:04:24Z</time>
      </trkpt>
      <trkpt lat="43.2924" lon="6.05247">
        <ele>589.59765625</ele>
        <time>2016-02-21T09:04:25Z</time>
      </trkpt>
      <trkpt lat="43.29235" lon="6.05249">
        <ele>590.390625</ele>
        <time>2016-02-21T09:04:29Z</time>
      </trkpt>
      <trkpt lat="43.29233" lon="6.0525">
        <ele>590.58203125</ele>
        <time>2016-02-21T09:04:30Z</time>
      </trkpt>
      <trkpt lat="43.29207" lon="6.05265">
        <ele>594.2890625</ele>
        <time>2016-02-21T09:04:47Z</time>
      </trkpt>
      <trkpt lat="43.29206" lon="6.05269">
        <ele>594.4921875</ele>
        <time>2016-02-21T09:04:49Z</time>
      </trkpt>
      <trkpt lat="43.29205" lon="6.0527">
        <ele>594.62109375</ele>
        <time>2016-02-21T09:04:50Z</time>
      </trkpt>
      <trkpt lat="43.29204" lon="6.05272">
        <ele>594.82421875</ele>
        <time>2016-02-21T09:04:51Z</time>
      </trkpt>
      <trkpt lat="43.29191" lon="6.053">
        <ele>597.4609375</ele>
        <time>2016-02-21T09:05:04Z</time>
      </trkpt>
      <trkpt lat="43.29182" lon="6.05327">
        <ele>600.08203125</ele>
        <time>2016-02-21T09:05:17Z</time>
      </trkpt>
      <trkpt lat="43.29172" lon="6.05367">
        <ele>603.4453125</ele>
        <time>2016-02-21T09:05:35Z</time>
      </trkpt>
      <trkpt lat="43.29163" lon="6.05388">
        <ele>605.80859375</ele>
        <time>2016-02-21T09:05:47Z</time>
      </trkpt>
      <trkpt lat="43.29145" lon="6.05409">
        <ele>608.6171875</ele>
        <time>2016-02-21T09:06:02Z</time>
      </trkpt>
      <trkpt lat="43.29139" lon="6.05433">
        <ele>610.7421875</ele>
        <time>2016-02-21T09:06:14Z</time>
      </trkpt>
      <trkpt lat="43.29138" lon="6.05434">
        <ele>610.8984375</ele>
        <time>2016-02-21T09:06:15Z</time>
      </trkpt>
      <trkpt lat="43.29137" lon="6.05436">
        <ele>611.078125</ele>
        <time>2016-02-21T09:06:16Z</time>
      </trkpt>
      <trkpt lat="43.29137" lon="6.05439">
        <ele>611.25</ele>
        <time>2016-02-21T09:06:17Z</time>
      </trkpt>
      <trkpt lat="43.29136" lon="6.05441">
        <ele>611.41796875</ele>
        <time>2016-02-21T09:06:18Z</time>
      </trkpt>
      <trkpt lat="43.29135" lon="6.05443">
        <ele>611.58203125</ele>
        <time>2016-02-21T09:06:19Z</time>
      </trkpt>
      <trkpt lat="43.29135" lon="6.05445">
        <ele>611.73046875</ele>
        <time>2016-02-21T09:06:20Z</time>
      </trkpt>
      <trkpt lat="43.29134" lon="6.05447">
        <ele>611.87109375</ele>
        <time>2016-02-21T09:06:21Z</time>
      </trkpt>
      <trkpt lat="43.29134" lon="6.05449">
        <ele>612.015625</ele>
        <time>2016-02-21T09:06:22Z</time>
      </trkpt>
      <trkpt lat="43.29133" lon="6.05451">
        <ele>612.1640625</ele>
        <time>2016-02-21T09:06:23Z</time>
      </trkpt>
      <trkpt lat="43.29133" lon="6.05453">
        <ele>612.29296875</ele>
        <time>2016-02-21T09:06:24Z</time>
      </trkpt>
      <trkpt lat="43.29133" lon="6.05455">
        <ele>612.43359375</ele>
        <time>2016-02-21T09:06:25Z</time>
      </trkpt>
      <trkpt lat="43.29133" lon="6.05458">
        <ele>612.5625</ele>
        <time>2016-02-21T09:06:26Z</time>
      </trkpt>
      <trkpt lat="43.2913" lon="6.05482">
        <ele>614.26171875</ele>
        <time>2016-02-21T09:06:38Z</time>
      </trkpt>
      <trkpt lat="43.29128" lon="6.05507">
        <ele>613.12890625</ele>
        <time>2016-02-21T09:06:51Z</time>
      </trkpt>
      <trkpt lat="43.29129" lon="6.05522">
        <ele>611.21875</ele>
        <time>2016-02-21T09:06:59Z</time>
      </trkpt>
      <trkpt lat="43.29132" lon="6.05541">
        <ele>608.42578125</ele>
        <time>2016-02-21T09:07:10Z</time>
      </trkpt>
      <trkpt lat="43.29143" lon="6.05555">
        <ele>605.49609375</ele>
        <time>2016-02-21T09:07:23Z</time>
      </trkpt>
      <trkpt lat="43.29145" lon="6.05557">
        <ele>604.734375</ele>
        <time>2016-02-21T09:07:25Z</time>
      </trkpt>
      <trkpt lat="43.29151" lon="6.05573">
        <ele>598.76171875</ele>
        <time>2016-02-21T09:07:35Z</time>
      </trkpt>
      <trkpt lat="43.29152" lon="6.0558">
        <ele>595.6171875</ele>
        <time>2016-02-21T09:07:47Z</time>
      </trkpt>
      <trkpt lat="43.29151" lon="6.05579">
        <ele>596.37890625</ele>
        <time>2016-02-21T09:08:07Z</time>
      </trkpt>
      <trkpt lat="43.29153" lon="6.05577">
        <ele>597.18359375</ele>
        <time>2016-02-21T09:08:29Z</time>
      </trkpt>
      <trkpt lat="43.29152" lon="6.05579">
        <ele>596.484375</ele>
        <time>2016-02-21T09:09:00Z</time>
      </trkpt>
      <trkpt lat="43.2915" lon="6.05576">
        <ele>597.60546875</ele>
        <time>2016-02-21T09:09:28Z</time>
      </trkpt>
      <trkpt lat="43.2915" lon="6.05578">
        <ele>596.9765625</ele>
        <time>2016-02-21T09:09:56Z</time>
      </trkpt>
      <trkpt lat="43.2915" lon="6.05578">
        <ele>596.578125</ele>
        <time>2016-02-21T09:10:23Z</time>
      </trkpt>
      <trkpt lat="43.29149" lon="6.05579">
        <ele>596.03125</ele>
        <time>2016-02-21T09:10:46Z</time>
      </trkpt>
      <trkpt lat="43.29151" lon="6.05578">
        <ele>596.578125</ele>
        <time>2016-02-21T09:11:11Z</time>
      </trkpt>
      <trkpt lat="43.29152" lon="6.05579">
        <ele>596.0859375</ele>
        <time>2016-02-21T09:11:42Z</time>
      </trkpt>
      <trkpt lat="43.29151" lon="6.05581">
        <ele>595.375</ele>
        <time>2016-02-21T09:12:06Z</time>
      </trkpt>
      <trkpt lat="43.2915" lon="6.05579">
        <ele>596.37109375</ele>
        <time>2016-02-21T09:12:34Z</time>
      </trkpt>
      <trkpt lat="43.29149" lon="6.05581">
        <ele>595.45703125</ele>
        <time>2016-02-21T09:13:05Z</time>
      </trkpt>
      <trkpt lat="43.2915" lon="6.0558">
        <ele>595.703125</ele>
        <time>2016-02-21T09:13:35Z</time>
      </trkpt>
      <trkpt lat="43.29151" lon="6.05581">
        <ele>595.19921875</ele>
        <time>2016-02-21T09:14:05Z</time>
      </trkpt>
      <trkpt lat="43.2915" lon="6.05581">
        <ele>595.5234375</ele>
        <time>2016-02-21T09:14:31Z</time>
      </trkpt>
      <trkpt lat="43.2915" lon="6.05579">
        <ele>596.328125</ele>
        <time>2016-02-21T09:14:58Z</time>
      </trkpt>
      <trkpt lat="43.29153" lon="6.05574">
        <ele>598.37109375</ele>
        <time>2016-02-21T09:15:11Z</time>
      </trkpt>
      <trkpt lat="43.29151" lon="6.05572">
        <ele>599.296875</ele>
        <time>2016-02-21T09:15:14Z</time>
      </trkpt>
      <trkpt lat="43.2914" lon="6.05551">
        <ele>606.66015625</ele>
        <time>2016-02-21T09:15:21Z</time>
      </trkpt>
      <trkpt lat="43.29107" lon="6.05529">
        <ele>608.28125</ele>
        <time>2016-02-21T09:15:30Z</time>
      </trkpt>
      <trkpt lat="43.29103" lon="6.05528">
        <ele>607.65234375</ele>
        <time>2016-02-21T09:15:31Z</time>
      </trkpt>
      <trkpt lat="43.29087" lon="6.05524">
        <ele>605.47265625</ele>
        <time>2016-02-21T09:15:34Z</time>
      </trkpt>
      <trkpt lat="43.29069" lon="6.05521">
        <ele>602.75</ele>
        <time>2016-02-21T09:15:37Z</time>
      </trkpt>
      <trkpt lat="43.29038" lon="6.05511">
        <ele>600.7734375</ele>
        <time>2016-02-21T09:15:42Z</time>
      </trkpt>
      <trkpt lat="43.29032" lon="6.05509">
        <ele>600.421875</ele>
        <time>2016-02-21T09:15:43Z</time>
      </trkpt>
      <trkpt lat="43.29026" lon="6.0551">
        <ele>599.640625</ele>
        <time>2016-02-21T09:15:44Z</time>
      </trkpt>
      <trkpt lat="43.2902" lon="6.05511">
        <ele>598.5234375</ele>
        <time>2016-02-21T09:15:45Z</time>
      </trkpt>
      <trkpt lat="43.29008" lon="6.05516">
        <ele>595.96484375</ele>
        <time>2016-02-21T09:15:47Z</time>
      </trkpt>
      <trkpt lat="43.29003" lon="6.05517">
        <ele>595.21875</ele>
        <time>2016-02-21T09:15:48Z</time>
      </trkpt>
      <trkpt lat="43.28997" lon="6.05516">
        <ele>594.9921875</ele>
        <time>2016-02-21T09:15:49Z</time>
      </trkpt>
      <trkpt lat="43.28972" lon="6.05512">
        <ele>595.36328125</ele>
        <time>2016-02-21T09:15:54Z</time>
      </trkpt>
      <trkpt lat="43.28968" lon="6.0551">
        <ele>596.17578125</ele>
        <time>2016-02-21T09:15:55Z</time>
      </trkpt>
      <trkpt lat="43.28964" lon="6.05507">
        <ele>597.09375</ele>
        <time>2016-02-21T09:15:56Z</time>
      </trkpt>
      <trkpt lat="43.28961" lon="6.05504">
        <ele>598.09765625</ele>
        <time>2016-02-21T09:15:57Z</time>
      </trkpt>
      <trkpt lat="43.28958" lon="6.05501">
        <ele>598.94921875</ele>
        <time>2016-02-21T09:15:58Z</time>
      </trkpt>
      <trkpt lat="43.28954" lon="6.055">
        <ele>599.44921875</ele>
        <time>2016-02-21T09:15:59Z</time>
      </trkpt>
      <trkpt lat="43.2895" lon="6.055">
        <ele>599.69140625</ele>
        <time>2016-02-21T09:16:00Z</time>
      </trkpt>
      <trkpt lat="43.28947" lon="6.055">
        <ele>599.71875</ele>
        <time>2016-02-21T09:16:01Z</time>
      </trkpt>
      <trkpt lat="43.28945" lon="6.05501">
        <ele>599.6328125</ele>
        <time>2016-02-21T09:16:02Z</time>
      </trkpt>
      <trkpt lat="43.28939" lon="6.05503">
        <ele>599.31640625</ele>
        <time>2016-02-21T09:16:05Z</time>
      </trkpt>
      <trkpt lat="43.28938" lon="6.05503">
        <ele>599.41796875</ele>
        <time>2016-02-21T09:16:06Z</time>
      </trkpt>
      <trkpt lat="43.28936" lon="6.05503">
        <ele>599.484375</ele>
        <time>2016-02-21T09:16:07Z</time>
      </trkpt>
      <trkpt lat="43.28921" lon="6.05506">
        <ele>599.44921875</ele>
        <time>2016-02-21T09:16:20Z</time>
      </trkpt>
      <trkpt lat="43.28919" lon="6.05509">
        <ele>598.8125</ele>
        <time>2016-02-21T09:16:34Z</time>
      </trkpt>
      <trkpt lat="43.28912" lon="6.05512">
        <ele>599.44140625</ele>
        <time>2016-02-21T09:16:46Z</time>
      </trkpt>
      <trkpt lat="43.28903" lon="6.05516">
        <ele>601.09375</ele>
        <time>2016-02-21T09:17:02Z</time>
      </trkpt>
      <trkpt lat="43.28892" lon="6.05521">
        <ele>603.4765625</ele>
        <time>2016-02-21T09:17:16Z</time>
      </trkpt>
      <trkpt lat="43.28883" lon="6.0552">
        <ele>606.1171875</ele>
        <time>2016-02-21T09:17:29Z</time>
      </trkpt>
      <trkpt lat="43.28878" lon="6.05521">
        <ele>607.31640625</ele>
        <time>2016-02-21T09:17:48Z</time>
      </trkpt>
      <trkpt lat="43.28869" lon="6.05526">
        <ele>609.41796875</ele>
        <time>2016-02-21T09:18:02Z</time>
      </trkpt>
      <trkpt lat="43.2886" lon="6.05532">
        <ele>611.95703125</ele>
        <time>2016-02-21T09:18:18Z</time>
      </trkpt>
      <trkpt lat="43.28856" lon="6.05534">
        <ele>613.18359375</ele>
        <time>2016-02-21T09:18:34Z</time>
      </trkpt>
      <trkpt lat="43.28851" lon="6.05533">
        <ele>614.66015625</ele>
        <time>2016-02-21T09:18:50Z</time>
      </trkpt>
      <trkpt lat="43.28848" lon="6.05535">
        <ele>615.49609375</ele>
        <time>2016-02-21T09:19:15Z</time>
      </trkpt>
      <trkpt lat="43.28841" lon="6.05537">
        <ele>617.76953125</ele>
        <time>2016-02-21T09:19:28Z</time>
      </trkpt>
      <trkpt lat="43.28834" lon="6.05538">
        <ele>620.0859375</ele>
        <time>2016-02-21T09:19:41Z</time>
      </trkpt>
      <trkpt lat="43.28833" lon="6.0554">
        <ele>620.4609375</ele>
        <time>2016-02-21T09:19:44Z</time>
      </trkpt>
      <trkpt lat="43.28831" lon="6.05546">
        <ele>621.16796875</ele>
        <time>2016-02-21T09:19:59Z</time>
      </trkpt>
      <trkpt lat="43.28824" lon="6.05552">
        <ele>623.1796875</ele>
        <time>2016-02-21T09:20:19Z</time>
      </trkpt>
      <trkpt lat="43.28817" lon="6.05558">
        <ele>625.35546875</ele>
        <time>2016-02-21T09:20:35Z</time>
      </trkpt>
      <trkpt lat="43.28812" lon="6.05559">
        <ele>627.0859375</ele>
        <time>2016-02-21T09:20:55Z</time>
      </trkpt>
      <trkpt lat="43.28807" lon="6.0556">
        <ele>629.06640625</ele>
        <time>2016-02-21T09:21:07Z</time>
      </trkpt>
      <trkpt lat="43.28807" lon="6.0556">
        <ele>629.12890625</ele>
        <time>2016-02-21T09:21:08Z</time>
      </trkpt>
      <trkpt lat="43.28804" lon="6.05565">
        <ele>629.7734375</ele>
        <time>2016-02-21T09:21:23Z</time>
      </trkpt>
      <trkpt lat="43.28797" lon="6.0557">
        <ele>632.3125</ele>
        <time>2016-02-21T09:21:38Z</time>
      </trkpt>
      <trkpt lat="43.28794" lon="6.05571">
        <ele>633.0078125</ele>
        <time>2016-02-21T09:21:51Z</time>
      </trkpt>
      <trkpt lat="43.28791" lon="6.05573">
        <ele>634.046875</ele>
        <time>2016-02-21T09:22:13Z</time>
      </trkpt>
      <trkpt lat="43.28783" lon="6.05573">
        <ele>636.625</ele>
        <time>2016-02-21T09:22:27Z</time>
      </trkpt>
      <trkpt lat="43.28774" lon="6.05575">
        <ele>639.5234375</ele>
        <time>2016-02-21T09:22:39Z</time>
      </trkpt>
      <trkpt lat="43.2877" lon="6.05588">
        <ele>641.15625</ele>
        <time>2016-02-21T09:22:51Z</time>
      </trkpt>
      <trkpt lat="43.2877" lon="6.05591">
        <ele>641.3359375</ele>
        <time>2016-02-21T09:23:07Z</time>
      </trkpt>
      <trkpt lat="43.28766" lon="6.05604">
        <ele>642.6484375</ele>
        <time>2016-02-21T09:23:17Z</time>
      </trkpt>
      <trkpt lat="43.28766" lon="6.05606">
        <ele>642.828125</ele>
        <time>2016-02-21T09:23:18Z</time>
      </trkpt>
      <trkpt lat="43.28762" lon="6.05612">
        <ele>643.6796875</ele>
        <time>2016-02-21T09:23:24Z</time>
      </trkpt>
      <trkpt lat="43.28757" lon="6.05621">
        <ele>645.11328125</ele>
        <time>2016-02-21T09:23:38Z</time>
      </trkpt>
      <trkpt lat="43.28748" lon="6.05626">
        <ele>647.9609375</ele>
        <time>2016-02-21T09:23:52Z</time>
      </trkpt>
      <trkpt lat="43.28744" lon="6.0563">
        <ele>649.08984375</ele>
        <time>2016-02-21T09:23:58Z</time>
      </trkpt>
      <trkpt lat="43.28736" lon="6.05643">
        <ele>651.51953125</ele>
        <time>2016-02-21T09:24:14Z</time>
      </trkpt>
      <trkpt lat="43.28734" lon="6.05646">
        <ele>652.13671875</ele>
        <time>2016-02-21T09:24:33Z</time>
      </trkpt>
      <trkpt lat="43.28732" lon="6.05648">
        <ele>652.984375</ele>
        <time>2016-02-21T09:24:36Z</time>
      </trkpt>
      <trkpt lat="43.28724" lon="6.05655">
        <ele>655.6328125</ele>
        <time>2016-02-21T09:24:45Z</time>
      </trkpt>
      <trkpt lat="43.28719" lon="6.05663">
        <ele>656.69140625</ele>
        <time>2016-02-21T09:24:53Z</time>
      </trkpt>
      <trkpt lat="43.28712" lon="6.05668">
        <ele>657.98828125</ele>
        <time>2016-02-21T09:25:02Z</time>
      </trkpt>
      <trkpt lat="43.28711" lon="6.05673">
        <ele>658.24609375</ele>
        <time>2016-02-21T09:25:16Z</time>
      </trkpt>
      <trkpt lat="43.2871" lon="6.05677">
        <ele>658.40234375</ele>
        <time>2016-02-21T09:25:18Z</time>
      </trkpt>
      <trkpt lat="43.28698" lon="6.05699">
        <ele>661.31640625</ele>
        <time>2016-02-21T09:25:33Z</time>
      </trkpt>
      <trkpt lat="43.28693" lon="6.0572">
        <ele>662.390625</ele>
        <time>2016-02-21T09:25:46Z</time>
      </trkpt>
      <trkpt lat="43.28693" lon="6.05722">
        <ele>662.53515625</ele>
        <time>2016-02-21T09:25:47Z</time>
      </trkpt>
      <trkpt lat="43.28683" lon="6.05738">
        <ele>664.56640625</ele>
        <time>2016-02-21T09:25:58Z</time>
      </trkpt>
      <trkpt lat="43.28682" lon="6.05739">
        <ele>664.8125</ele>
        <time>2016-02-21T09:25:59Z</time>
      </trkpt>
      <trkpt lat="43.28681" lon="6.0574">
        <ele>665.046875</ele>
        <time>2016-02-21T09:26:00Z</time>
      </trkpt>
      <trkpt lat="43.2868" lon="6.05743">
        <ele>665.375</ele>
        <time>2016-02-21T09:26:02Z</time>
      </trkpt>
      <trkpt lat="43.2868" lon="6.05745">
        <ele>665.39453125</ele>
        <time>2016-02-21T09:26:03Z</time>
      </trkpt>
      <trkpt lat="43.2868" lon="6.05746">
        <ele>665.3828125</ele>
        <time>2016-02-21T09:26:04Z</time>
      </trkpt>
      <trkpt lat="43.2868" lon="6.05748">
        <ele>665.390625</ele>
        <time>2016-02-21T09:26:05Z</time>
      </trkpt>
      <trkpt lat="43.2868" lon="6.0575">
        <ele>665.44140625</ele>
        <time>2016-02-21T09:26:06Z</time>
      </trkpt>
      <trkpt lat="43.2868" lon="6.05752">
        <ele>665.4765625</ele>
        <time>2016-02-21T09:26:07Z</time>
      </trkpt>
      <trkpt lat="43.2868" lon="6.05754">
        <ele>665.56640625</ele>
        <time>2016-02-21T09:26:08Z</time>
      </trkpt>
      <trkpt lat="43.28678" lon="6.05761">
        <ele>666.109375</ele>
        <time>2016-02-21T09:26:12Z</time>
      </trkpt>
      <trkpt lat="43.28677" lon="6.05762">
        <ele>666.3984375</ele>
        <time>2016-02-21T09:26:13Z</time>
      </trkpt>
      <trkpt lat="43.28676" lon="6.05765">
        <ele>666.80078125</ele>
        <time>2016-02-21T09:26:15Z</time>
      </trkpt>
      <trkpt lat="43.28675" lon="6.05767">
        <ele>666.9375</ele>
        <time>2016-02-21T09:26:16Z</time>
      </trkpt>
      <trkpt lat="43.28675" lon="6.05769">
        <ele>667.0625</ele>
        <time>2016-02-21T09:26:17Z</time>
      </trkpt>
      <trkpt lat="43.28674" lon="6.05771">
        <ele>667.16015625</ele>
        <time>2016-02-21T09:26:18Z</time>
      </trkpt>
      <trkpt lat="43.28673" lon="6.05778">
        <ele>667.453125</ele>
        <time>2016-02-21T09:26:23Z</time>
      </trkpt>
      <trkpt lat="43.2867" lon="6.05786">
        <ele>668.22265625</ele>
        <time>2016-02-21T09:26:28Z</time>
      </trkpt>
      <trkpt lat="43.2867" lon="6.05788">
        <ele>668.51171875</ele>
        <time>2016-02-21T09:26:29Z</time>
      </trkpt>
      <trkpt lat="43.28669" lon="6.05789">
        <ele>668.71875</ele>
        <time>2016-02-21T09:26:30Z</time>
      </trkpt>
      <trkpt lat="43.28668" lon="6.05791">
        <ele>668.984375</ele>
        <time>2016-02-21T09:26:31Z</time>
      </trkpt>
      <trkpt lat="43.28667" lon="6.05792">
        <ele>669.21875</ele>
        <time>2016-02-21T09:26:32Z</time>
      </trkpt>
      <trkpt lat="43.28666" lon="6.05793">
        <ele>669.46484375</ele>
        <time>2016-02-21T09:26:33Z</time>
      </trkpt>
      <trkpt lat="43.28665" lon="6.05795">
        <ele>669.65234375</ele>
        <time>2016-02-21T09:26:34Z</time>
      </trkpt>
      <trkpt lat="43.28665" lon="6.05796">
        <ele>669.74609375</ele>
        <time>2016-02-21T09:26:35Z</time>
      </trkpt>
      <trkpt lat="43.28665" lon="6.05798">
        <ele>669.84375</ele>
        <time>2016-02-21T09:26:36Z</time>
      </trkpt>
      <trkpt lat="43.28661" lon="6.05811">
        <ele>671.1015625</ele>
        <time>2016-02-21T09:26:44Z</time>
      </trkpt>
      <trkpt lat="43.2866" lon="6.05813">
        <ele>671.2578125</ele>
        <time>2016-02-21T09:26:45Z</time>
      </trkpt>
      <trkpt lat="43.28664" lon="6.05838">
        <ele>669.046875</ele>
        <time>2016-02-21T09:27:00Z</time>
      </trkpt>
      <trkpt lat="43.28664" lon="6.0584">
        <ele>668.90625</ele>
        <time>2016-02-21T09:27:01Z</time>
      </trkpt>
      <trkpt lat="43.28664" lon="6.05842">
        <ele>668.79296875</ele>
        <time>2016-02-21T09:27:02Z</time>
      </trkpt>
      <trkpt lat="43.28663" lon="6.05844">
        <ele>668.73046875</ele>
        <time>2016-02-21T09:27:03Z</time>
      </trkpt>
      <trkpt lat="43.28663" lon="6.05846">
        <ele>668.67578125</ele>
        <time>2016-02-21T09:27:04Z</time>
      </trkpt>
      <trkpt lat="43.28663" lon="6.05847">
        <ele>668.70703125</ele>
        <time>2016-02-21T09:27:05Z</time>
      </trkpt>
      <trkpt lat="43.28662" lon="6.05848">
        <ele>668.91015625</ele>
        <time>2016-02-21T09:27:06Z</time>
      </trkpt>
      <trkpt lat="43.28656" lon="6.05854">
        <ele>670.796875</ele>
        <time>2016-02-21T09:27:11Z</time>
      </trkpt>
      <trkpt lat="43.28648" lon="6.05859">
        <ele>673.5234375</ele>
        <time>2016-02-21T09:27:18Z</time>
      </trkpt>
      <trkpt lat="43.28647" lon="6.0586">
        <ele>673.8515625</ele>
        <time>2016-02-21T09:27:19Z</time>
      </trkpt>
      <trkpt lat="43.28646" lon="6.05862">
        <ele>674.13671875</ele>
        <time>2016-02-21T09:27:20Z</time>
      </trkpt>
      <trkpt lat="43.28644" lon="6.05864">
        <ele>674.6171875</ele>
        <time>2016-02-21T09:27:22Z</time>
      </trkpt>
      <trkpt lat="43.28644" lon="6.05866">
        <ele>674.6328125</ele>
        <time>2016-02-21T09:27:23Z</time>
      </trkpt>
      <trkpt lat="43.28643" lon="6.05868">
        <ele>674.76171875</ele>
        <time>2016-02-21T09:27:24Z</time>
      </trkpt>
      <trkpt lat="43.28643" lon="6.05869">
        <ele>674.80078125</ele>
        <time>2016-02-21T09:27:37Z</time>
      </trkpt>
      <trkpt lat="43.28643" lon="6.05869">
        <ele>674.8359375</ele>
        <time>2016-02-21T09:28:07Z</time>
      </trkpt>
      <trkpt lat="43.28642" lon="6.0587">
        <ele>675.171875</ele>
        <time>2016-02-21T09:28:23Z</time>
      </trkpt>
      <trkpt lat="43.28637" lon="6.05877">
        <ele>676.359375</ele>
        <time>2016-02-21T09:28:44Z</time>
      </trkpt>
      <trkpt lat="43.28636" lon="6.05878">
        <ele>676.58984375</ele>
        <time>2016-02-21T09:28:45Z</time>
      </trkpt>
      <trkpt lat="43.28635" lon="6.05879">
        <ele>676.81640625</ele>
        <time>2016-02-21T09:28:46Z</time>
      </trkpt>
      <trkpt lat="43.28631" lon="6.05886">
        <ele>677.359375</ele>
        <time>2016-02-21T09:28:52Z</time>
      </trkpt>
      <trkpt lat="43.28631" lon="6.05887">
        <ele>677.33984375</ele>
        <time>2016-02-21T09:28:53Z</time>
      </trkpt>
      <trkpt lat="43.2863" lon="6.05889">
        <ele>677.3828125</ele>
        <time>2016-02-21T09:28:54Z</time>
      </trkpt>
      <trkpt lat="43.2863" lon="6.0589">
        <ele>677.4296875</ele>
        <time>2016-02-21T09:28:55Z</time>
      </trkpt>
      <trkpt lat="43.28629" lon="6.05891">
        <ele>677.484375</ele>
        <time>2016-02-21T09:28:56Z</time>
      </trkpt>
      <trkpt lat="43.28629" lon="6.05893">
        <ele>677.4765625</ele>
        <time>2016-02-21T09:28:57Z</time>
      </trkpt>
      <trkpt lat="43.2862" lon="6.05906">
        <ele>679.36328125</ele>
        <time>2016-02-21T09:29:08Z</time>
      </trkpt>
      <trkpt lat="43.28619" lon="6.05912">
        <ele>679.0859375</ele>
        <time>2016-02-21T09:29:21Z</time>
      </trkpt>
      <trkpt lat="43.28615" lon="6.05921">
        <ele>679.34375</ele>
        <time>2016-02-21T09:29:35Z</time>
      </trkpt>
      <trkpt lat="43.2861" lon="6.05926">
        <ele>680.70703125</ele>
        <time>2016-02-21T09:29:45Z</time>
      </trkpt>
      <trkpt lat="43.28606" lon="6.05935">
        <ele>680.953125</ele>
        <time>2016-02-21T09:29:58Z</time>
      </trkpt>
      <trkpt lat="43.28603" lon="6.05939">
        <ele>681.90234375</ele>
        <time>2016-02-21T09:30:03Z</time>
      </trkpt>
      <trkpt lat="43.28602" lon="6.05939">
        <ele>682</ele>
        <time>2016-02-21T09:30:04Z</time>
      </trkpt>
      <trkpt lat="43.28598" lon="6.05951">
        <ele>682.15625</ele>
        <time>2016-02-21T09:30:19Z</time>
      </trkpt>
      <trkpt lat="43.28588" lon="6.05955">
        <ele>686.515625</ele>
        <time>2016-02-21T09:30:33Z</time>
      </trkpt>
      <trkpt lat="43.28583" lon="6.05964">
        <ele>686.91015625</ele>
        <time>2016-02-21T09:30:48Z</time>
      </trkpt>
      <trkpt lat="43.28583" lon="6.05966">
        <ele>686.37109375</ele>
        <time>2016-02-21T09:31:02Z</time>
      </trkpt>
      <trkpt lat="43.28583" lon="6.05964">
        <ele>686.99609375</ele>
        <time>2016-02-21T09:31:33Z</time>
      </trkpt>
      <trkpt lat="43.28583" lon="6.05965">
        <ele>686.6640625</ele>
        <time>2016-02-21T09:31:42Z</time>
      </trkpt>
      <trkpt lat="43.28583" lon="6.05965">
        <ele>686.8203125</ele>
        <time>2016-02-21T09:32:23Z</time>
      </trkpt>
      <trkpt lat="43.28583" lon="6.05965">
        <ele>686.75</ele>
        <time>2016-02-21T09:32:28Z</time>
      </trkpt>
      <trkpt lat="43.28583" lon="6.05963">
        <ele>687.0703125</ele>
        <time>2016-02-21T09:33:02Z</time>
      </trkpt>
      <trkpt lat="43.28581" lon="6.05963">
        <ele>687.09375</ele>
        <time>2016-02-21T09:33:16Z</time>
      </trkpt>
      <trkpt lat="43.28581" lon="6.05966">
        <ele>686.22265625</ele>
        <time>2016-02-21T09:33:46Z</time>
      </trkpt>
      <trkpt lat="43.28581" lon="6.05961">
        <ele>687.390625</ele>
        <time>2016-02-21T09:33:58Z</time>
      </trkpt>
      <trkpt lat="43.28581" lon="6.05959">
        <ele>687.60546875</ele>
        <time>2016-02-21T09:34:00Z</time>
      </trkpt>
      <trkpt lat="43.28586" lon="6.0595">
        <ele>688.2265625</ele>
        <time>2016-02-21T09:34:09Z</time>
      </trkpt>
      <trkpt lat="43.28585" lon="6.05949">
        <ele>688.390625</ele>
        <time>2016-02-21T09:34:10Z</time>
      </trkpt>
      <trkpt lat="43.28585" lon="6.05949">
        <ele>688.49609375</ele>
        <time>2016-02-21T09:34:13Z</time>
      </trkpt>
      <trkpt lat="43.28584" lon="6.05947">
        <ele>688.8828125</ele>
        <time>2016-02-21T09:34:23Z</time>
      </trkpt>
      <trkpt lat="43.2858" lon="6.05949">
        <ele>688.74609375</ele>
        <time>2016-02-21T09:34:26Z</time>
      </trkpt>
      <trkpt lat="43.28572" lon="6.05947">
        <ele>689.1328125</ele>
        <time>2016-02-21T09:34:36Z</time>
      </trkpt>
      <trkpt lat="43.28571" lon="6.05946">
        <ele>689.31640625</ele>
        <time>2016-02-21T09:34:44Z</time>
      </trkpt>
      <trkpt lat="43.2857" lon="6.05947">
        <ele>689.19140625</ele>
        <time>2016-02-21T09:35:03Z</time>
      </trkpt>
      <trkpt lat="43.28572" lon="6.05945">
        <ele>689.40625</ele>
        <time>2016-02-21T09:35:19Z</time>
      </trkpt>
      <trkpt lat="43.28566" lon="6.05949">
        <ele>689.00390625</ele>
        <time>2016-02-21T09:35:29Z</time>
      </trkpt>
      <trkpt lat="43.28565" lon="6.05949">
        <ele>688.99609375</ele>
        <time>2016-02-21T09:35:32Z</time>
      </trkpt>
      <trkpt lat="43.28564" lon="6.0595">
        <ele>688.8828125</ele>
        <time>2016-02-21T09:35:51Z</time>
      </trkpt>
      <trkpt lat="43.28565" lon="6.05951">
        <ele>688.765625</ele>
        <time>2016-02-21T09:35:52Z</time>
      </trkpt>
      <trkpt lat="43.28566" lon="6.05952">
        <ele>688.59375</ele>
        <time>2016-02-21T09:35:53Z</time>
      </trkpt>
      <trkpt lat="43.28572" lon="6.05956">
        <ele>687.9765625</ele>
        <time>2016-02-21T09:36:09Z</time>
      </trkpt>
      <trkpt lat="43.28575" lon="6.05964">
        <ele>687.00390625</ele>
        <time>2016-02-21T09:36:24Z</time>
      </trkpt>
      <trkpt lat="43.28578" lon="6.05971">
        <ele>684.78125</ele>
        <time>2016-02-21T09:36:37Z</time>
      </trkpt>
      <trkpt lat="43.28584" lon="6.05972">
        <ele>684.359375</ele>
        <time>2016-02-21T09:36:49Z</time>
      </trkpt>
      <trkpt lat="43.28583" lon="6.05973">
        <ele>684.08984375</ele>
        <time>2016-02-21T09:37:14Z</time>
      </trkpt>
      <trkpt lat="43.28584" lon="6.05973">
        <ele>684.046875</ele>
        <time>2016-02-21T09:37:23Z</time>
      </trkpt>
      <trkpt lat="43.28585" lon="6.05974">
        <ele>683.8203125</ele>
        <time>2016-02-21T09:37:57Z</time>
      </trkpt>
      <trkpt lat="43.28588" lon="6.05977">
        <ele>680.85546875</ele>
        <time>2016-02-21T09:38:11Z</time>
      </trkpt>
      <trkpt lat="43.28589" lon="6.05977">
        <ele>680.734375</ele>
        <time>2016-02-21T09:38:20Z</time>
      </trkpt>
      <trkpt lat="43.28591" lon="6.05977">
        <ele>679.69140625</ele>
        <time>2016-02-21T09:38:30Z</time>
      </trkpt>
      <trkpt lat="43.28592" lon="6.05976">
        <ele>679.19921875</ele>
        <time>2016-02-21T09:38:33Z</time>
      </trkpt>
      <trkpt lat="43.28594" lon="6.05974">
        <ele>678.8046875</ele>
        <time>2016-02-21T09:38:50Z</time>
      </trkpt>
      <trkpt lat="43.28594" lon="6.05974">
        <ele>678.58203125</ele>
        <time>2016-02-21T09:39:22Z</time>
      </trkpt>
      <trkpt lat="43.28595" lon="6.05972">
        <ele>678.8828125</ele>
        <time>2016-02-21T09:39:59Z</time>
      </trkpt>
      <trkpt lat="43.28595" lon="6.05973">
        <ele>678.65234375</ele>
        <time>2016-02-21T09:40:27Z</time>
      </trkpt>
      <trkpt lat="43.28594" lon="6.05973">
        <ele>679.0625</ele>
        <time>2016-02-21T09:40:53Z</time>
      </trkpt>
      <trkpt lat="43.28592" lon="6.05977">
        <ele>679.01171875</ele>
        <time>2016-02-21T09:41:30Z</time>
      </trkpt>
      <trkpt lat="43.28587" lon="6.05973">
        <ele>682.94921875</ele>
        <time>2016-02-21T09:41:41Z</time>
      </trkpt>
      <trkpt lat="43.28582" lon="6.05968">
        <ele>685.66796875</ele>
        <time>2016-02-21T09:41:53Z</time>
      </trkpt>
      <trkpt lat="43.28583" lon="6.05965">
        <ele>686.80859375</ele>
        <time>2016-02-21T09:42:05Z</time>
      </trkpt>
      <trkpt lat="43.28581" lon="6.05967">
        <ele>686.16015625</ele>
        <time>2016-02-21T09:42:09Z</time>
      </trkpt>
      <trkpt lat="43.28581" lon="6.05973">
        <ele>684.046875</ele>
        <time>2016-02-21T09:42:21Z</time>
      </trkpt>
      <trkpt lat="43.28581" lon="6.05974">
        <ele>683.625</ele>
        <time>2016-02-21T09:42:33Z</time>
      </trkpt>
      <trkpt lat="43.2858" lon="6.05976">
        <ele>683.1171875</ele>
        <time>2016-02-21T09:42:51Z</time>
      </trkpt>
      <trkpt lat="43.2858" lon="6.05977">
        <ele>682.7890625</ele>
        <time>2016-02-21T09:43:20Z</time>
      </trkpt>
      <trkpt lat="43.28581" lon="6.05976">
        <ele>683.0859375</ele>
        <time>2016-02-21T09:44:01Z</time>
      </trkpt>
      <trkpt lat="43.28581" lon="6.05974">
        <ele>683.6484375</ele>
        <time>2016-02-21T09:44:31Z</time>
      </trkpt>
      <trkpt lat="43.2858" lon="6.05974">
        <ele>683.76171875</ele>
        <time>2016-02-21T09:44:46Z</time>
      </trkpt>
      <trkpt lat="43.28582" lon="6.05976">
        <ele>683.05078125</ele>
        <time>2016-02-21T09:45:11Z</time>
      </trkpt>
      <trkpt lat="43.28582" lon="6.05976">
        <ele>682.98828125</ele>
        <time>2016-02-21T09:45:35Z</time>
      </trkpt>
      <trkpt lat="43.28582" lon="6.05975">
        <ele>683.35546875</ele>
        <time>2016-02-21T09:46:16Z</time>
      </trkpt>
      <trkpt lat="43.28582" lon="6.05975">
        <ele>683.32421875</ele>
        <time>2016-02-21T09:46:18Z</time>
      </trkpt>
      <trkpt lat="43.28581" lon="6.05974">
        <ele>683.7421875</ele>
        <time>2016-02-21T09:46:45Z</time>
      </trkpt>
      <trkpt lat="43.28582" lon="6.05972">
        <ele>684.34765625</ele>
        <time>2016-02-21T09:47:29Z</time>
      </trkpt>
      <trkpt lat="43.28581" lon="6.05973">
        <ele>683.953125</ele>
        <time>2016-02-21T09:48:06Z</time>
      </trkpt>
      <trkpt lat="43.28581" lon="6.05973">
        <ele>684.16015625</ele>
        <time>2016-02-21T09:48:13Z</time>
      </trkpt>
      <trkpt lat="43.28581" lon="6.05973">
        <ele>684.1171875</ele>
        <time>2016-02-21T09:48:14Z</time>
      </trkpt>
      <trkpt lat="43.28581" lon="6.05973">
        <ele>684.125</ele>
        <time>2016-02-21T09:48:15Z</time>
      </trkpt>
      <trkpt lat="43.2858" lon="6.05967">
        <ele>685.9375</ele>
        <time>2016-02-21T09:48:32Z</time>
      </trkpt>
      <trkpt lat="43.28579" lon="6.05967">
        <ele>686.07421875</ele>
        <time>2016-02-21T09:48:35Z</time>
      </trkpt>
      <trkpt lat="43.28575" lon="6.05963">
        <ele>687.1171875</ele>
        <time>2016-02-21T09:48:39Z</time>
      </trkpt>
      <trkpt lat="43.28575" lon="6.05963">
        <ele>687.1640625</ele>
        <time>2016-02-21T09:48:40Z</time>
      </trkpt>
      <trkpt lat="43.28571" lon="6.05956">
        <ele>687.98046875</ele>
        <time>2016-02-21T09:48:44Z</time>
      </trkpt>
      <trkpt lat="43.28569" lon="6.05955">
        <ele>688.15234375</ele>
        <time>2016-02-21T09:48:45Z</time>
      </trkpt>
      <trkpt lat="43.28567" lon="6.05953">
        <ele>688.41015625</ele>
        <time>2016-02-21T09:48:46Z</time>
      </trkpt>
      <trkpt lat="43.28565" lon="6.05951">
        <ele>688.78515625</ele>
        <time>2016-02-21T09:48:47Z</time>
      </trkpt>
      <trkpt lat="43.28564" lon="6.05948">
        <ele>689.140625</ele>
        <time>2016-02-21T09:48:48Z</time>
      </trkpt>
      <trkpt lat="43.28561" lon="6.05946">
        <ele>689.46484375</ele>
        <time>2016-02-21T09:48:49Z</time>
      </trkpt>
      <trkpt lat="43.2856" lon="6.05944">
        <ele>689.828125</ele>
        <time>2016-02-21T09:48:50Z</time>
      </trkpt>
      <trkpt lat="43.28559" lon="6.05942">
        <ele>690.12890625</ele>
        <time>2016-02-21T09:48:51Z</time>
      </trkpt>
      <trkpt lat="43.28558" lon="6.0594">
        <ele>690.4609375</ele>
        <time>2016-02-21T09:48:52Z</time>
      </trkpt>
      <trkpt lat="43.28558" lon="6.05938">
        <ele>690.7421875</ele>
        <time>2016-02-21T09:48:53Z</time>
      </trkpt>
      <trkpt lat="43.28558" lon="6.05936">
        <ele>690.94921875</ele>
        <time>2016-02-21T09:48:54Z</time>
      </trkpt>
      <trkpt lat="43.28558" lon="6.05935">
        <ele>691.0234375</ele>
        <time>2016-02-21T09:48:55Z</time>
      </trkpt>
      <trkpt lat="43.28557" lon="6.05933">
        <ele>691.109375</ele>
        <time>2016-02-21T09:48:56Z</time>
      </trkpt>
      <trkpt lat="43.28555" lon="6.05931">
        <ele>691.02734375</ele>
        <time>2016-02-21T09:49:09Z</time>
      </trkpt>
      <trkpt lat="43.28553" lon="6.05926">
        <ele>691.00390625</ele>
        <time>2016-02-21T09:49:20Z</time>
      </trkpt>
      <trkpt lat="43.28548" lon="6.05923">
        <ele>690.640625</ele>
        <time>2016-02-21T09:49:33Z</time>
      </trkpt>
      <trkpt lat="43.28546" lon="6.05921">
        <ele>690.5546875</ele>
        <time>2016-02-21T09:49:34Z</time>
      </trkpt>
      <trkpt lat="43.28539" lon="6.05914">
        <ele>690.36328125</ele>
        <time>2016-02-21T09:49:37Z</time>
      </trkpt>
      <trkpt lat="43.28537" lon="6.05914">
        <ele>690.1640625</ele>
        <time>2016-02-21T09:49:38Z</time>
      </trkpt>
      <trkpt lat="43.28534" lon="6.05914">
        <ele>689.99609375</ele>
        <time>2016-02-21T09:49:39Z</time>
      </trkpt>
      <trkpt lat="43.28532" lon="6.05912">
        <ele>689.9609375</ele>
        <time>2016-02-21T09:49:40Z</time>
      </trkpt>
      <trkpt lat="43.2853" lon="6.0591">
        <ele>689.91015625</ele>
        <time>2016-02-21T09:49:41Z</time>
      </trkpt>
      <trkpt lat="43.28527" lon="6.05909">
        <ele>689.34375</ele>
        <time>2016-02-21T09:49:42Z</time>
      </trkpt>
      <trkpt lat="43.28525" lon="6.05909">
        <ele>688.88671875</ele>
        <time>2016-02-21T09:49:43Z</time>
      </trkpt>
      <trkpt lat="43.28523" lon="6.05907">
        <ele>688.44921875</ele>
        <time>2016-02-21T09:49:44Z</time>
      </trkpt>
      <trkpt lat="43.28521" lon="6.05906">
        <ele>688.0078125</ele>
        <time>2016-02-21T09:49:45Z</time>
      </trkpt>
      <trkpt lat="43.28519" lon="6.05904">
        <ele>687.63671875</ele>
        <time>2016-02-21T09:49:46Z</time>
      </trkpt>
      <trkpt lat="43.28516" lon="6.05902">
        <ele>687.29296875</ele>
        <time>2016-02-21T09:49:47Z</time>
      </trkpt>
      <trkpt lat="43.28514" lon="6.059">
        <ele>686.96484375</ele>
        <time>2016-02-21T09:49:48Z</time>
      </trkpt>
      <trkpt lat="43.28512" lon="6.05898">
        <ele>686.66015625</ele>
        <time>2016-02-21T09:49:49Z</time>
      </trkpt>
      <trkpt lat="43.28509" lon="6.05897">
        <ele>686.30859375</ele>
        <time>2016-02-21T09:49:50Z</time>
      </trkpt>
      <trkpt lat="43.28508" lon="6.05897">
        <ele>686.0546875</ele>
        <time>2016-02-21T09:49:51Z</time>
      </trkpt>
      <trkpt lat="43.28508" lon="6.05898">
        <ele>685.765625</ele>
        <time>2016-02-21T09:49:52Z</time>
      </trkpt>
      <trkpt lat="43.28506" lon="6.05899">
        <ele>685.28515625</ele>
        <time>2016-02-21T09:49:53Z</time>
      </trkpt>
      <trkpt lat="43.28504" lon="6.05899">
        <ele>684.9140625</ele>
        <time>2016-02-21T09:49:54Z</time>
      </trkpt>
      <trkpt lat="43.28502" lon="6.05898">
        <ele>684.7421875</ele>
        <time>2016-02-21T09:49:55Z</time>
      </trkpt>
      <trkpt lat="43.285" lon="6.05895">
        <ele>684.2421875</ele>
        <time>2016-02-21T09:49:56Z</time>
      </trkpt>
      <trkpt lat="43.28497" lon="6.05892">
        <ele>683.8046875</ele>
        <time>2016-02-21T09:49:57Z</time>
      </trkpt>
      <trkpt lat="43.28492" lon="6.05883">
        <ele>683.37109375</ele>
        <time>2016-02-21T09:49:59Z</time>
      </trkpt>
      <trkpt lat="43.28482" lon="6.05873">
        <ele>681.09375</ele>
        <time>2016-02-21T09:50:03Z</time>
      </trkpt>
      <trkpt lat="43.28481" lon="6.05871">
        <ele>680.97265625</ele>
        <time>2016-02-21T09:50:04Z</time>
      </trkpt>
      <trkpt lat="43.2848" lon="6.0587">
        <ele>680.734375</ele>
        <time>2016-02-21T09:50:05Z</time>
      </trkpt>
      <trkpt lat="43.28478" lon="6.05869">
        <ele>680.30859375</ele>
        <time>2016-02-21T09:50:06Z</time>
      </trkpt>
      <trkpt lat="43.28476" lon="6.05868">
        <ele>679.98046875</ele>
        <time>2016-02-21T09:50:07Z</time>
      </trkpt>
      <trkpt lat="43.28475" lon="6.05866">
        <ele>679.80859375</ele>
        <time>2016-02-21T09:50:08Z</time>
      </trkpt>
      <trkpt lat="43.28473" lon="6.05864">
        <ele>679.65625</ele>
        <time>2016-02-21T09:50:09Z</time>
      </trkpt>
      <trkpt lat="43.28472" lon="6.05863">
        <ele>679.40234375</ele>
        <time>2016-02-21T09:50:10Z</time>
      </trkpt>
      <trkpt lat="43.2847" lon="6.05863">
        <ele>678.9140625</ele>
        <time>2016-02-21T09:50:11Z</time>
      </trkpt>
      <trkpt lat="43.28467" lon="6.05862">
        <ele>678.33984375</ele>
        <time>2016-02-21T09:50:12Z</time>
      </trkpt>
      <trkpt lat="43.2845" lon="6.05844">
        <ele>677.33203125</ele>
        <time>2016-02-21T09:50:20Z</time>
      </trkpt>
      <trkpt lat="43.28449" lon="6.05844">
        <ele>677.1796875</ele>
        <time>2016-02-21T09:50:21Z</time>
      </trkpt>
      <trkpt lat="43.28448" lon="6.05844">
        <ele>676.9609375</ele>
        <time>2016-02-21T09:50:22Z</time>
      </trkpt>
      <trkpt lat="43.28446" lon="6.05843">
        <ele>676.73046875</ele>
        <time>2016-02-21T09:50:23Z</time>
      </trkpt>
      <trkpt lat="43.28444" lon="6.05843">
        <ele>675.67578125</ele>
        <time>2016-02-21T09:50:24Z</time>
      </trkpt>
      <trkpt lat="43.28443" lon="6.05842">
        <ele>674.8203125</ele>
        <time>2016-02-21T09:50:25Z</time>
      </trkpt>
      <trkpt lat="43.28442" lon="6.05839">
        <ele>674.5546875</ele>
        <time>2016-02-21T09:50:26Z</time>
      </trkpt>
      <trkpt lat="43.28441" lon="6.05836">
        <ele>674.94921875</ele>
        <time>2016-02-21T09:50:27Z</time>
      </trkpt>
      <trkpt lat="43.28441" lon="6.05834">
        <ele>675.328125</ele>
        <time>2016-02-21T09:50:28Z</time>
      </trkpt>
      <trkpt lat="43.2844" lon="6.05831">
        <ele>675.48046875</ele>
        <time>2016-02-21T09:50:29Z</time>
      </trkpt>
      <trkpt lat="43.28434" lon="6.05815">
        <ele>672.7734375</ele>
        <time>2016-02-21T09:50:33Z</time>
      </trkpt>
      <trkpt lat="43.28428" lon="6.05807">
        <ele>670.203125</ele>
        <time>2016-02-21T09:50:36Z</time>
      </trkpt>
      <trkpt lat="43.28423" lon="6.05803">
        <ele>668.88671875</ele>
        <time>2016-02-21T09:50:38Z</time>
      </trkpt>
      <trkpt lat="43.2842" lon="6.05795">
        <ele>668.3984375</ele>
        <time>2016-02-21T09:50:41Z</time>
      </trkpt>
      <trkpt lat="43.28418" lon="6.05793">
        <ele>668.0546875</ele>
        <time>2016-02-21T09:50:42Z</time>
      </trkpt>
      <trkpt lat="43.28417" lon="6.05791">
        <ele>667.61328125</ele>
        <time>2016-02-21T09:50:43Z</time>
      </trkpt>
      <trkpt lat="43.28413" lon="6.0578">
        <ele>665.79296875</ele>
        <time>2016-02-21T09:50:47Z</time>
      </trkpt>
      <trkpt lat="43.28408" lon="6.05768">
        <ele>664.4921875</ele>
        <time>2016-02-21T09:50:52Z</time>
      </trkpt>
      <trkpt lat="43.28406" lon="6.05763">
        <ele>663.51171875</ele>
        <time>2016-02-21T09:50:54Z</time>
      </trkpt>
      <trkpt lat="43.28405" lon="6.05762">
        <ele>662.95703125</ele>
        <time>2016-02-21T09:50:55Z</time>
      </trkpt>
      <trkpt lat="43.284" lon="6.05757">
        <ele>661.515625</ele>
        <time>2016-02-21T09:50:58Z</time>
      </trkpt>
      <trkpt lat="43.28399" lon="6.05753">
        <ele>660.94140625</ele>
        <time>2016-02-21T09:51:06Z</time>
      </trkpt>
      <trkpt lat="43.28399" lon="6.0575">
        <ele>660.78515625</ele>
        <time>2016-02-21T09:51:07Z</time>
      </trkpt>
      <trkpt lat="43.28398" lon="6.05748">
        <ele>660.5625</ele>
        <time>2016-02-21T09:51:08Z</time>
      </trkpt>
      <trkpt lat="43.28397" lon="6.05747">
        <ele>660.31640625</ele>
        <time>2016-02-21T09:51:09Z</time>
      </trkpt>
      <trkpt lat="43.28396" lon="6.05743">
        <ele>660.02734375</ele>
        <time>2016-02-21T09:51:14Z</time>
      </trkpt>
      <trkpt lat="43.28395" lon="6.05742">
        <ele>659.828125</ele>
        <time>2016-02-21T09:51:15Z</time>
      </trkpt>
      <trkpt lat="43.28393" lon="6.0574">
        <ele>659.20703125</ele>
        <time>2016-02-21T09:51:17Z</time>
      </trkpt>
      <trkpt lat="43.28392" lon="6.05738">
        <ele>658.77734375</ele>
        <time>2016-02-21T09:51:18Z</time>
      </trkpt>
      <trkpt lat="43.28391" lon="6.05735">
        <ele>658.375</ele>
        <time>2016-02-21T09:51:19Z</time>
      </trkpt>
      <trkpt lat="43.28391" lon="6.05732">
        <ele>658.06640625</ele>
        <time>2016-02-21T09:51:20Z</time>
      </trkpt>
      <trkpt lat="43.28391" lon="6.05729">
        <ele>657.77734375</ele>
        <time>2016-02-21T09:51:21Z</time>
      </trkpt>
      <trkpt lat="43.28391" lon="6.05727">
        <ele>657.4453125</ele>
        <time>2016-02-21T09:51:22Z</time>
      </trkpt>
      <trkpt lat="43.2839" lon="6.05724">
        <ele>656.94140625</ele>
        <time>2016-02-21T09:51:23Z</time>
      </trkpt>
      <trkpt lat="43.28389" lon="6.05722">
        <ele>656.1640625</ele>
        <time>2016-02-21T09:51:24Z</time>
      </trkpt>
      <trkpt lat="43.28387" lon="6.0572">
        <ele>655.35546875</ele>
        <time>2016-02-21T09:51:25Z</time>
      </trkpt>
      <trkpt lat="43.28385" lon="6.05718">
        <ele>654.46484375</ele>
        <time>2016-02-21T09:51:26Z</time>
      </trkpt>
      <trkpt lat="43.28384" lon="6.05717">
        <ele>653.6796875</ele>
        <time>2016-02-21T09:51:27Z</time>
      </trkpt>
      <trkpt lat="43.28382" lon="6.05716">
        <ele>653.1875</ele>
        <time>2016-02-21T09:51:28Z</time>
      </trkpt>
      <trkpt lat="43.28382" lon="6.05713">
        <ele>652.90625</ele>
        <time>2016-02-21T09:51:30Z</time>
      </trkpt>
      <trkpt lat="43.28385" lon="6.05694">
        <ele>651.61328125</ele>
        <time>2016-02-21T09:51:36Z</time>
      </trkpt>
      <trkpt lat="43.28384" lon="6.05683">
        <ele>649.91796875</ele>
        <time>2016-02-21T09:51:40Z</time>
      </trkpt>
      <trkpt lat="43.28383" lon="6.05681">
        <ele>649.3125</ele>
        <time>2016-02-21T09:51:41Z</time>
      </trkpt>
      <trkpt lat="43.28384" lon="6.05678">
        <ele>648.86328125</ele>
        <time>2016-02-21T09:51:42Z</time>
      </trkpt>
      <trkpt lat="43.28384" lon="6.05676">
        <ele>648.4921875</ele>
        <time>2016-02-21T09:51:43Z</time>
      </trkpt>
      <trkpt lat="43.28384" lon="6.05661">
        <ele>645.4921875</ele>
        <time>2016-02-21T09:51:48Z</time>
      </trkpt>
      <trkpt lat="43.28384" lon="6.05658">
        <ele>644.78515625</ele>
        <time>2016-02-21T09:51:49Z</time>
      </trkpt>
      <trkpt lat="43.28384" lon="6.05653">
        <ele>643.80078125</ele>
        <time>2016-02-21T09:51:51Z</time>
      </trkpt>
      <trkpt lat="43.28385" lon="6.05651">
        <ele>643.60546875</ele>
        <time>2016-02-21T09:51:52Z</time>
      </trkpt>
      <trkpt lat="43.28386" lon="6.05647">
        <ele>642.97265625</ele>
        <time>2016-02-21T09:51:54Z</time>
      </trkpt>
      <trkpt lat="43.28386" lon="6.05645">
        <ele>642.453125</ele>
        <time>2016-02-21T09:51:55Z</time>
      </trkpt>
      <trkpt lat="43.28385" lon="6.05637">
        <ele>640.76171875</ele>
        <time>2016-02-21T09:51:59Z</time>
      </trkpt>
      <trkpt lat="43.28384" lon="6.05636">
        <ele>640.44921875</ele>
        <time>2016-02-21T09:52:00Z</time>
      </trkpt>
      <trkpt lat="43.28382" lon="6.05635">
        <ele>640.125</ele>
        <time>2016-02-21T09:52:01Z</time>
      </trkpt>
      <trkpt lat="43.28381" lon="6.05634">
        <ele>639.83203125</ele>
        <time>2016-02-21T09:52:02Z</time>
      </trkpt>
      <trkpt lat="43.28379" lon="6.05633">
        <ele>639.484375</ele>
        <time>2016-02-21T09:52:03Z</time>
      </trkpt>
      <trkpt lat="43.28379" lon="6.05631">
        <ele>639.1015625</ele>
        <time>2016-02-21T09:52:04Z</time>
      </trkpt>
      <trkpt lat="43.28378" lon="6.05629">
        <ele>638.671875</ele>
        <time>2016-02-21T09:52:05Z</time>
      </trkpt>
      <trkpt lat="43.28378" lon="6.05626">
        <ele>638.2265625</ele>
        <time>2016-02-21T09:52:06Z</time>
      </trkpt>
      <trkpt lat="43.28377" lon="6.05624">
        <ele>637.734375</ele>
        <time>2016-02-21T09:52:07Z</time>
      </trkpt>
      <trkpt lat="43.28376" lon="6.05622">
        <ele>637.2734375</ele>
        <time>2016-02-21T09:52:08Z</time>
      </trkpt>
      <trkpt lat="43.28372" lon="6.0561">
        <ele>634.8359375</ele>
        <time>2016-02-21T09:52:14Z</time>
      </trkpt>
      <trkpt lat="43.28365" lon="6.05603">
        <ele>633.15234375</ele>
        <time>2016-02-21T09:52:18Z</time>
      </trkpt>
      <trkpt lat="43.28364" lon="6.056">
        <ele>632.50390625</ele>
        <time>2016-02-21T09:52:19Z</time>
      </trkpt>
      <trkpt lat="43.28364" lon="6.05598">
        <ele>631.84375</ele>
        <time>2016-02-21T09:52:20Z</time>
      </trkpt>
      <trkpt lat="43.28363" lon="6.05595">
        <ele>631.19921875</ele>
        <time>2016-02-21T09:52:21Z</time>
      </trkpt>
      <trkpt lat="43.28363" lon="6.05592">
        <ele>630.55859375</ele>
        <time>2016-02-21T09:52:22Z</time>
      </trkpt>
      <trkpt lat="43.28363" lon="6.05589">
        <ele>629.94140625</ele>
        <time>2016-02-21T09:52:23Z</time>
      </trkpt>
      <trkpt lat="43.28363" lon="6.05586">
        <ele>629.3671875</ele>
        <time>2016-02-21T09:52:24Z</time>
      </trkpt>
      <trkpt lat="43.28363" lon="6.05584">
        <ele>628.81640625</ele>
        <time>2016-02-21T09:52:25Z</time>
      </trkpt>
      <trkpt lat="43.28363" lon="6.05581">
        <ele>628.26953125</ele>
        <time>2016-02-21T09:52:26Z</time>
      </trkpt>
      <trkpt lat="43.28363" lon="6.05578">
        <ele>627.44921875</ele>
        <time>2016-02-21T09:52:29Z</time>
      </trkpt>
      <trkpt lat="43.28363" lon="6.05576">
        <ele>627.171875</ele>
        <time>2016-02-21T09:52:30Z</time>
      </trkpt>
      <trkpt lat="43.28363" lon="6.05574">
        <ele>626.75</ele>
        <time>2016-02-21T09:52:31Z</time>
      </trkpt>
      <trkpt lat="43.28363" lon="6.05571">
        <ele>626.2109375</ele>
        <time>2016-02-21T09:52:32Z</time>
      </trkpt>
      <trkpt lat="43.28361" lon="6.05559">
        <ele>623.47265625</ele>
        <time>2016-02-21T09:52:36Z</time>
      </trkpt>
      <trkpt lat="43.28359" lon="6.05557">
        <ele>622.84765625</ele>
        <time>2016-02-21T09:52:37Z</time>
      </trkpt>
      <trkpt lat="43.28357" lon="6.05555">
        <ele>622.01171875</ele>
        <time>2016-02-21T09:52:38Z</time>
      </trkpt>
      <trkpt lat="43.28354" lon="6.05553">
        <ele>621.0078125</ele>
        <time>2016-02-21T09:52:39Z</time>
      </trkpt>
      <trkpt lat="43.28351" lon="6.05551">
        <ele>619.9140625</ele>
        <time>2016-02-21T09:52:40Z</time>
      </trkpt>
      <trkpt lat="43.28349" lon="6.05548">
        <ele>619.02734375</ele>
        <time>2016-02-21T09:52:41Z</time>
      </trkpt>
      <trkpt lat="43.28347" lon="6.05545">
        <ele>618.29296875</ele>
        <time>2016-02-21T09:52:42Z</time>
      </trkpt>
      <trkpt lat="43.28345" lon="6.05543">
        <ele>617.59375</ele>
        <time>2016-02-21T09:52:43Z</time>
      </trkpt>
      <trkpt lat="43.28344" lon="6.05541">
        <ele>617.00390625</ele>
        <time>2016-02-21T09:52:44Z</time>
      </trkpt>
      <trkpt lat="43.28342" lon="6.05539">
        <ele>616.421875</ele>
        <time>2016-02-21T09:52:45Z</time>
      </trkpt>
      <trkpt lat="43.2834" lon="6.05537">
        <ele>615.8203125</ele>
        <time>2016-02-21T09:52:46Z</time>
      </trkpt>
      <trkpt lat="43.28338" lon="6.05535">
        <ele>615.22265625</ele>
        <time>2016-02-21T09:52:47Z</time>
      </trkpt>
      <trkpt lat="43.28336" lon="6.05534">
        <ele>614.75390625</ele>
        <time>2016-02-21T09:52:48Z</time>
      </trkpt>
      <trkpt lat="43.28335" lon="6.05535">
        <ele>614.453125</ele>
        <time>2016-02-21T09:52:49Z</time>
      </trkpt>
      <trkpt lat="43.28331" lon="6.05536">
        <ele>613.546875</ele>
        <time>2016-02-21T09:52:51Z</time>
      </trkpt>
      <trkpt lat="43.2833" lon="6.05534">
        <ele>613.02734375</ele>
        <time>2016-02-21T09:52:52Z</time>
      </trkpt>
      <trkpt lat="43.28329" lon="6.05532">
        <ele>612.5390625</ele>
        <time>2016-02-21T09:52:53Z</time>
      </trkpt>
      <trkpt lat="43.28328" lon="6.05529">
        <ele>612.05859375</ele>
        <time>2016-02-21T09:52:54Z</time>
      </trkpt>
      <trkpt lat="43.28326" lon="6.05528">
        <ele>611.421875</ele>
        <time>2016-02-21T09:52:55Z</time>
      </trkpt>
      <trkpt lat="43.28324" lon="6.05526">
        <ele>610.5625</ele>
        <time>2016-02-21T09:52:56Z</time>
      </trkpt>
      <trkpt lat="43.28323" lon="6.05524">
        <ele>610.15625</ele>
        <time>2016-02-21T09:52:57Z</time>
      </trkpt>
      <trkpt lat="43.28323" lon="6.05521">
        <ele>610.00390625</ele>
        <time>2016-02-21T09:52:58Z</time>
      </trkpt>
      <trkpt lat="43.28322" lon="6.05514">
        <ele>609.109375</ele>
        <time>2016-02-21T09:53:01Z</time>
      </trkpt>
      <trkpt lat="43.2832" lon="6.05513">
        <ele>608.67578125</ele>
        <time>2016-02-21T09:53:02Z</time>
      </trkpt>
      <trkpt lat="43.28318" lon="6.05512">
        <ele>608.1875</ele>
        <time>2016-02-21T09:53:03Z</time>
      </trkpt>
      <trkpt lat="43.28317" lon="6.05511">
        <ele>607.69140625</ele>
        <time>2016-02-21T09:53:04Z</time>
      </trkpt>
      <trkpt lat="43.28315" lon="6.05509">
        <ele>607.19140625</ele>
        <time>2016-02-21T09:53:05Z</time>
      </trkpt>
      <trkpt lat="43.28307" lon="6.05502">
        <ele>605.2265625</ele>
        <time>2016-02-21T09:53:09Z</time>
      </trkpt>
      <trkpt lat="43.28303" lon="6.05495">
        <ele>603.55859375</ele>
        <time>2016-02-21T09:53:14Z</time>
      </trkpt>
      <trkpt lat="43.28303" lon="6.05494">
        <ele>603.34765625</ele>
        <time>2016-02-21T09:53:15Z</time>
      </trkpt>
      <trkpt lat="43.28302" lon="6.05491">
        <ele>602.9921875</ele>
        <time>2016-02-21T09:53:16Z</time>
      </trkpt>
      <trkpt lat="43.28302" lon="6.05483">
        <ele>602.58984375</ele>
        <time>2016-02-21T09:53:18Z</time>
      </trkpt>
      <trkpt lat="43.28302" lon="6.0548">
        <ele>602.53515625</ele>
        <time>2016-02-21T09:53:19Z</time>
      </trkpt>
      <trkpt lat="43.28302" lon="6.05477">
        <ele>602.3046875</ele>
        <time>2016-02-21T09:53:20Z</time>
      </trkpt>
      <trkpt lat="43.28301" lon="6.05475">
        <ele>601.92578125</ele>
        <time>2016-02-21T09:53:21Z</time>
      </trkpt>
      <trkpt lat="43.28299" lon="6.05473">
        <ele>601.359375</ele>
        <time>2016-02-21T09:53:22Z</time>
      </trkpt>
      <trkpt lat="43.28297" lon="6.05471">
        <ele>600.87890625</ele>
        <time>2016-02-21T09:53:23Z</time>
      </trkpt>
      <trkpt lat="43.28296" lon="6.05469">
        <ele>600.63671875</ele>
        <time>2016-02-21T09:53:24Z</time>
      </trkpt>
      <trkpt lat="43.28296" lon="6.05467">
        <ele>600.578125</ele>
        <time>2016-02-21T09:53:25Z</time>
      </trkpt>
      <trkpt lat="43.28296" lon="6.05465">
        <ele>600.5546875</ele>
        <time>2016-02-21T09:53:26Z</time>
      </trkpt>
      <trkpt lat="43.28296" lon="6.05463">
        <ele>600.48046875</ele>
        <time>2016-02-21T09:53:27Z</time>
      </trkpt>
      <trkpt lat="43.28295" lon="6.0546">
        <ele>600.02734375</ele>
        <time>2016-02-21T09:53:29Z</time>
      </trkpt>
      <trkpt lat="43.28293" lon="6.05458">
        <ele>599.6171875</ele>
        <time>2016-02-21T09:53:30Z</time>
      </trkpt>
      <trkpt lat="43.28291" lon="6.05457">
        <ele>599.12109375</ele>
        <time>2016-02-21T09:53:31Z</time>
      </trkpt>
      <trkpt lat="43.28279" lon="6.05446">
        <ele>596.91015625</ele>
        <time>2016-02-21T09:53:36Z</time>
      </trkpt>
      <trkpt lat="43.28278" lon="6.05443">
        <ele>596.81640625</ele>
        <time>2016-02-21T09:53:37Z</time>
      </trkpt>
      <trkpt lat="43.28278" lon="6.0544">
        <ele>596.79296875</ele>
        <time>2016-02-21T09:53:38Z</time>
      </trkpt>
      <trkpt lat="43.28277" lon="6.05437">
        <ele>596.63671875</ele>
        <time>2016-02-21T09:53:39Z</time>
      </trkpt>
      <trkpt lat="43.28275" lon="6.05435">
        <ele>596.1875</ele>
        <time>2016-02-21T09:53:40Z</time>
      </trkpt>
      <trkpt lat="43.28272" lon="6.05432">
        <ele>595.65234375</ele>
        <time>2016-02-21T09:53:41Z</time>
      </trkpt>
      <trkpt lat="43.28252" lon="6.05407">
        <ele>593.86328125</ele>
        <time>2016-02-21T09:53:50Z</time>
      </trkpt>
      <trkpt lat="43.28253" lon="6.05406">
        <ele>593.79296875</ele>
        <time>2016-02-21T09:54:15Z</time>
      </trkpt>
      <trkpt lat="43.28253" lon="6.05407">
        <ele>593.828125</ele>
        <time>2016-02-21T09:54:24Z</time>
      </trkpt>
      <trkpt lat="43.28256" lon="6.0541">
        <ele>593.9921875</ele>
        <time>2016-02-21T09:54:44Z</time>
      </trkpt>
      <trkpt lat="43.28257" lon="6.05411">
        <ele>593.984375</ele>
        <time>2016-02-21T09:54:45Z</time>
      </trkpt>
      <trkpt lat="43.28259" lon="6.05413">
        <ele>594</ele>
        <time>2016-02-21T09:54:46Z</time>
      </trkpt>
      <trkpt lat="43.28261" lon="6.05416">
        <ele>594.078125</ele>
        <time>2016-02-21T09:54:47Z</time>
      </trkpt>
      <trkpt lat="43.28263" lon="6.05419">
        <ele>594.23828125</ele>
        <time>2016-02-21T09:54:48Z</time>
      </trkpt>
      <trkpt lat="43.28267" lon="6.05421">
        <ele>594.5234375</ele>
        <time>2016-02-21T09:54:50Z</time>
      </trkpt>
      <trkpt lat="43.28268" lon="6.0542">
        <ele>594.54296875</ele>
        <time>2016-02-21T09:54:51Z</time>
      </trkpt>
      <trkpt lat="43.28269" lon="6.05418">
        <ele>594.484375</ele>
        <time>2016-02-21T09:54:52Z</time>
      </trkpt>
      <trkpt lat="43.28269" lon="6.05416">
        <ele>594.3828125</ele>
        <time>2016-02-21T09:54:53Z</time>
      </trkpt>
      <trkpt lat="43.2827" lon="6.05414">
        <ele>594.29296875</ele>
        <time>2016-02-21T09:54:54Z</time>
      </trkpt>
      <trkpt lat="43.28271" lon="6.05411">
        <ele>594.15234375</ele>
        <time>2016-02-21T09:54:55Z</time>
      </trkpt>
      <trkpt lat="43.28273" lon="6.05408">
        <ele>593.9140625</ele>
        <time>2016-02-21T09:54:56Z</time>
      </trkpt>
      <trkpt lat="43.28274" lon="6.05404">
        <ele>593.6328125</ele>
        <time>2016-02-21T09:54:57Z</time>
      </trkpt>
      <trkpt lat="43.28283" lon="6.05391">
        <ele>592.67578125</ele>
        <time>2016-02-21T09:55:01Z</time>
      </trkpt>
      <trkpt lat="43.28287" lon="6.05388">
        <ele>592.328125</ele>
        <time>2016-02-21T09:55:03Z</time>
      </trkpt>
      <trkpt lat="43.28289" lon="6.05386">
        <ele>592.0859375</ele>
        <time>2016-02-21T09:55:04Z</time>
      </trkpt>
      <trkpt lat="43.28292" lon="6.05385">
        <ele>591.94140625</ele>
        <time>2016-02-21T09:55:05Z</time>
      </trkpt>
      <trkpt lat="43.28295" lon="6.05384">
        <ele>591.765625</ele>
        <time>2016-02-21T09:55:06Z</time>
      </trkpt>
      <trkpt lat="43.28297" lon="6.05381">
        <ele>591.375</ele>
        <time>2016-02-21T09:55:07Z</time>
      </trkpt>
      <trkpt lat="43.28299" lon="6.05377">
        <ele>590.87109375</ele>
        <time>2016-02-21T09:55:08Z</time>
      </trkpt>
      <trkpt lat="43.2832" lon="6.05355">
        <ele>588.19140625</ele>
        <time>2016-02-21T09:55:16Z</time>
      </trkpt>
      <trkpt lat="43.28321" lon="6.05348">
        <ele>587.3984375</ele>
        <time>2016-02-21T09:55:20Z</time>
      </trkpt>
      <trkpt lat="43.28321" lon="6.05343">
        <ele>586.859375</ele>
        <time>2016-02-21T09:55:21Z</time>
      </trkpt>
      <trkpt lat="43.28321" lon="6.05337">
        <ele>586.265625</ele>
        <time>2016-02-21T09:55:22Z</time>
      </trkpt>
      <trkpt lat="43.28322" lon="6.05331">
        <ele>585.625</ele>
        <time>2016-02-21T09:55:23Z</time>
      </trkpt>
      <trkpt lat="43.28324" lon="6.05326">
        <ele>584.98828125</ele>
        <time>2016-02-21T09:55:24Z</time>
      </trkpt>
      <trkpt lat="43.28327" lon="6.0532">
        <ele>584.39453125</ele>
        <time>2016-02-21T09:55:25Z</time>
      </trkpt>
      <trkpt lat="43.28329" lon="6.05314">
        <ele>583.7890625</ele>
        <time>2016-02-21T09:55:26Z</time>
      </trkpt>
      <trkpt lat="43.28332" lon="6.05308">
        <ele>583.12890625</ele>
        <time>2016-02-21T09:55:27Z</time>
      </trkpt>
      <trkpt lat="43.28333" lon="6.05302">
        <ele>582.4765625</ele>
        <time>2016-02-21T09:55:28Z</time>
      </trkpt>
      <trkpt lat="43.28335" lon="6.05297">
        <ele>581.87890625</ele>
        <time>2016-02-21T09:55:29Z</time>
      </trkpt>
      <trkpt lat="43.28337" lon="6.05292">
        <ele>581.3515625</ele>
        <time>2016-02-21T09:55:30Z</time>
      </trkpt>
      <trkpt lat="43.2834" lon="6.05287">
        <ele>580.84375</ele>
        <time>2016-02-21T09:55:31Z</time>
      </trkpt>
      <trkpt lat="43.28344" lon="6.05283">
        <ele>580.3515625</ele>
        <time>2016-02-21T09:55:32Z</time>
      </trkpt>
      <trkpt lat="43.28347" lon="6.05279">
        <ele>579.9375</ele>
        <time>2016-02-21T09:55:33Z</time>
      </trkpt>
      <trkpt lat="43.2835" lon="6.05275">
        <ele>579.58203125</ele>
        <time>2016-02-21T09:55:34Z</time>
      </trkpt>
      <trkpt lat="43.28353" lon="6.05272">
        <ele>579.25</ele>
        <time>2016-02-21T09:55:35Z</time>
      </trkpt>
      <trkpt lat="43.28355" lon="6.05269">
        <ele>578.87890625</ele>
        <time>2016-02-21T09:55:43Z</time>
      </trkpt>
      <trkpt lat="43.28355" lon="6.05267">
        <ele>578.765625</ele>
        <time>2016-02-21T09:55:44Z</time>
      </trkpt>
      <trkpt lat="43.28354" lon="6.05267">
        <ele>578.71484375</ele>
        <time>2016-02-21T09:55:52Z</time>
      </trkpt>
      <trkpt lat="43.28354" lon="6.05268">
        <ele>578.85546875</ele>
        <time>2016-02-21T09:55:53Z</time>
      </trkpt>
      <trkpt lat="43.28363" lon="6.05271">
        <ele>579.140625</ele>
        <time>2016-02-21T09:56:04Z</time>
      </trkpt>
      <trkpt lat="43.28364" lon="6.0527">
        <ele>579.01953125</ele>
        <time>2016-02-21T09:56:05Z</time>
      </trkpt>
      <trkpt lat="43.28366" lon="6.05268">
        <ele>578.80078125</ele>
        <time>2016-02-21T09:56:06Z</time>
      </trkpt>
      <trkpt lat="43.28367" lon="6.05266">
        <ele>578.52734375</ele>
        <time>2016-02-21T09:56:07Z</time>
      </trkpt>
      <trkpt lat="43.28369" lon="6.05263">
        <ele>578.2578125</ele>
        <time>2016-02-21T09:56:08Z</time>
      </trkpt>
      <trkpt lat="43.28371" lon="6.05261">
        <ele>578.015625</ele>
        <time>2016-02-21T09:56:09Z</time>
      </trkpt>
      <trkpt lat="43.28374" lon="6.05258">
        <ele>577.74609375</ele>
        <time>2016-02-21T09:56:10Z</time>
      </trkpt>
      <trkpt lat="43.28378" lon="6.05256">
        <ele>577.4765625</ele>
        <time>2016-02-21T09:56:11Z</time>
      </trkpt>
      <trkpt lat="43.28382" lon="6.05254">
        <ele>577.25</ele>
        <time>2016-02-21T09:56:12Z</time>
      </trkpt>
      <trkpt lat="43.28387" lon="6.05252">
        <ele>577.06640625</ele>
        <time>2016-02-21T09:56:13Z</time>
      </trkpt>
      <trkpt lat="43.28391" lon="6.0525">
        <ele>576.87890625</ele>
        <time>2016-02-21T09:56:14Z</time>
      </trkpt>
      <trkpt lat="43.28394" lon="6.05247">
        <ele>576.625</ele>
        <time>2016-02-21T09:56:15Z</time>
      </trkpt>
      <trkpt lat="43.28398" lon="6.05243">
        <ele>576.26953125</ele>
        <time>2016-02-21T09:56:16Z</time>
      </trkpt>
      <trkpt lat="43.28401" lon="6.05238">
        <ele>575.9453125</ele>
        <time>2016-02-21T09:56:17Z</time>
      </trkpt>
      <trkpt lat="43.28405" lon="6.05234">
        <ele>575.55859375</ele>
        <time>2016-02-21T09:56:18Z</time>
      </trkpt>
      <trkpt lat="43.28412" lon="6.05223">
        <ele>574.640625</ele>
        <time>2016-02-21T09:56:20Z</time>
      </trkpt>
      <trkpt lat="43.28414" lon="6.05216">
        <ele>574.05859375</ele>
        <time>2016-02-21T09:56:21Z</time>
      </trkpt>
      <trkpt lat="43.28423" lon="6.05197">
        <ele>572.95703125</ele>
        <time>2016-02-21T09:56:24Z</time>
      </trkpt>
      <trkpt lat="43.28427" lon="6.05192">
        <ele>572.7265625</ele>
        <time>2016-02-21T09:56:25Z</time>
      </trkpt>
      <trkpt lat="43.2843" lon="6.05187">
        <ele>572.4453125</ele>
        <time>2016-02-21T09:56:26Z</time>
      </trkpt>
      <trkpt lat="43.28434" lon="6.05182">
        <ele>572.27734375</ele>
        <time>2016-02-21T09:56:27Z</time>
      </trkpt>
      <trkpt lat="43.28438" lon="6.05177">
        <ele>572.12109375</ele>
        <time>2016-02-21T09:56:28Z</time>
      </trkpt>
      <trkpt lat="43.28443" lon="6.05173">
        <ele>571.9140625</ele>
        <time>2016-02-21T09:56:29Z</time>
      </trkpt>
      <trkpt lat="43.28456" lon="6.05162">
        <ele>571.9921875</ele>
        <time>2016-02-21T09:56:32Z</time>
      </trkpt>
      <trkpt lat="43.28468" lon="6.0514">
        <ele>571.24609375</ele>
        <time>2016-02-21T09:56:36Z</time>
      </trkpt>
      <trkpt lat="43.28484" lon="6.05117">
        <ele>570.671875</ele>
        <time>2016-02-21T09:56:40Z</time>
      </trkpt>
      <trkpt lat="43.28499" lon="6.05069">
        <ele>568.375</ele>
        <time>2016-02-21T09:56:46Z</time>
      </trkpt>
      <trkpt lat="43.28502" lon="6.05043">
        <ele>566.734375</ele>
        <time>2016-02-21T09:56:49Z</time>
      </trkpt>
      <trkpt lat="43.28508" lon="6.05022">
        <ele>565.80078125</ele>
        <time>2016-02-21T09:56:52Z</time>
      </trkpt>
      <trkpt lat="43.2851" lon="6.05015">
        <ele>565.68359375</ele>
        <time>2016-02-21T09:56:53Z</time>
      </trkpt>
      <trkpt lat="43.28517" lon="6.04993">
        <ele>565.66015625</ele>
        <time>2016-02-21T09:56:56Z</time>
      </trkpt>
      <trkpt lat="43.2852" lon="6.04969">
        <ele>564.24609375</ele>
        <time>2016-02-21T09:56:59Z</time>
      </trkpt>
      <trkpt lat="43.28524" lon="6.04923">
        <ele>562.0859375</ele>
        <time>2016-02-21T09:57:05Z</time>
      </trkpt>
      <trkpt lat="43.28527" lon="6.04901">
        <ele>561.29296875</ele>
        <time>2016-02-21T09:57:08Z</time>
      </trkpt>
      <trkpt lat="43.28524" lon="6.04871">
        <ele>559.4296875</ele>
        <time>2016-02-21T09:57:12Z</time>
      </trkpt>
      <trkpt lat="43.28528" lon="6.04822">
        <ele>557.5546875</ele>
        <time>2016-02-21T09:57:20Z</time>
      </trkpt>
      <trkpt lat="43.28527" lon="6.04817">
        <ele>557.16796875</ele>
        <time>2016-02-21T09:57:21Z</time>
      </trkpt>
      <trkpt lat="43.28515" lon="6.04798">
        <ele>554.46484375</ele>
        <time>2016-02-21T09:57:32Z</time>
      </trkpt>
      <trkpt lat="43.28513" lon="6.04798">
        <ele>554.28125</ele>
        <time>2016-02-21T09:57:40Z</time>
      </trkpt>
      <trkpt lat="43.28494" lon="6.04784">
        <ele>553</ele>
        <time>2016-02-21T09:57:53Z</time>
      </trkpt>
      <trkpt lat="43.2849" lon="6.04778">
        <ele>553.140625</ele>
        <time>2016-02-21T09:58:01Z</time>
      </trkpt>
      <trkpt lat="43.28489" lon="6.04777">
        <ele>553.1484375</ele>
        <time>2016-02-21T09:58:02Z</time>
      </trkpt>
      <trkpt lat="43.28487" lon="6.04775">
        <ele>553.2109375</ele>
        <time>2016-02-21T09:58:03Z</time>
      </trkpt>
      <trkpt lat="43.28485" lon="6.04773">
        <ele>553.2578125</ele>
        <time>2016-02-21T09:58:04Z</time>
      </trkpt>
      <trkpt lat="43.28484" lon="6.04771">
        <ele>553.2734375</ele>
        <time>2016-02-21T09:58:05Z</time>
      </trkpt>
      <trkpt lat="43.28483" lon="6.04768">
        <ele>553.29296875</ele>
        <time>2016-02-21T09:58:06Z</time>
      </trkpt>
      <trkpt lat="43.28481" lon="6.04766">
        <ele>553.29296875</ele>
        <time>2016-02-21T09:58:07Z</time>
      </trkpt>
      <trkpt lat="43.2848" lon="6.04764">
        <ele>553.3046875</ele>
        <time>2016-02-21T09:58:08Z</time>
      </trkpt>
      <trkpt lat="43.28479" lon="6.04763">
        <ele>553.3671875</ele>
        <time>2016-02-21T09:58:09Z</time>
      </trkpt>
      <trkpt lat="43.28477" lon="6.04761">
        <ele>553.390625</ele>
        <time>2016-02-21T09:58:10Z</time>
      </trkpt>
      <trkpt lat="43.28476" lon="6.04758">
        <ele>553.37109375</ele>
        <time>2016-02-21T09:58:11Z</time>
      </trkpt>
      <trkpt lat="43.28476" lon="6.04755">
        <ele>553.296875</ele>
        <time>2016-02-21T09:58:12Z</time>
      </trkpt>
      <trkpt lat="43.28475" lon="6.04752">
        <ele>553.203125</ele>
        <time>2016-02-21T09:58:13Z</time>
      </trkpt>
      <trkpt lat="43.28476" lon="6.04713">
        <ele>551.91796875</ele>
        <time>2016-02-21T09:58:25Z</time>
      </trkpt>
      <trkpt lat="43.28463" lon="6.04672">
        <ele>552.66015625</ele>
        <time>2016-02-21T09:58:38Z</time>
      </trkpt>
      <trkpt lat="43.2845" lon="6.04632">
        <ele>553.54296875</ele>
        <time>2016-02-21T09:58:51Z</time>
      </trkpt>
      <trkpt lat="43.28444" lon="6.04591">
        <ele>554.76953125</ele>
        <time>2016-02-21T09:59:04Z</time>
      </trkpt>
      <trkpt lat="43.28427" lon="6.04561">
        <ele>557.59765625</ele>
        <time>2016-02-21T09:59:16Z</time>
      </trkpt>
      <trkpt lat="43.28402" lon="6.04528">
        <ele>560.00390625</ele>
        <time>2016-02-21T09:59:30Z</time>
      </trkpt>
      <trkpt lat="43.2838" lon="6.04493">
        <ele>561.16015625</ele>
        <time>2016-02-21T09:59:43Z</time>
      </trkpt>
      <trkpt lat="43.2835" lon="6.04463">
        <ele>564.296875</ele>
        <time>2016-02-21T09:59:59Z</time>
      </trkpt>
      <trkpt lat="43.28321" lon="6.04441">
        <ele>567.1875</ele>
        <time>2016-02-21T10:00:16Z</time>
      </trkpt>
      <trkpt lat="43.28299" lon="6.04424">
        <ele>569.12109375</ele>
        <time>2016-02-21T10:00:30Z</time>
      </trkpt>
      <trkpt lat="43.28272" lon="6.04401">
        <ele>571.51171875</ele>
        <time>2016-02-21T10:00:46Z</time>
      </trkpt>
      <trkpt lat="43.28271" lon="6.04399">
        <ele>571.546875</ele>
        <time>2016-02-21T10:00:47Z</time>
      </trkpt>
      <trkpt lat="43.2827" lon="6.04397">
        <ele>571.54296875</ele>
        <time>2016-02-21T10:00:48Z</time>
      </trkpt>
      <trkpt lat="43.28269" lon="6.04394">
        <ele>571.55859375</ele>
        <time>2016-02-21T10:00:49Z</time>
      </trkpt>
      <trkpt lat="43.28268" lon="6.04392">
        <ele>571.5625</ele>
        <time>2016-02-21T10:00:50Z</time>
      </trkpt>
      <trkpt lat="43.28268" lon="6.04389">
        <ele>571.55859375</ele>
        <time>2016-02-21T10:00:51Z</time>
      </trkpt>
      <trkpt lat="43.28267" lon="6.04386">
        <ele>571.50390625</ele>
        <time>2016-02-21T10:00:52Z</time>
      </trkpt>
      <trkpt lat="43.28267" lon="6.04383">
        <ele>571.39453125</ele>
        <time>2016-02-21T10:00:53Z</time>
      </trkpt>
      <trkpt lat="43.28267" lon="6.0438">
        <ele>571.328125</ele>
        <time>2016-02-21T10:00:54Z</time>
      </trkpt>
      <trkpt lat="43.28267" lon="6.04377">
        <ele>571.3046875</ele>
        <time>2016-02-21T10:00:55Z</time>
      </trkpt>
      <trkpt lat="43.28266" lon="6.04374">
        <ele>571.3125</ele>
        <time>2016-02-21T10:00:56Z</time>
      </trkpt>
      <trkpt lat="43.28264" lon="6.04339">
        <ele>571.26953125</ele>
        <time>2016-02-21T10:01:09Z</time>
      </trkpt>
      <trkpt lat="43.28256" lon="6.04316">
        <ele>572.375</ele>
        <time>2016-02-21T10:01:23Z</time>
      </trkpt>
      <trkpt lat="43.28246" lon="6.04282">
        <ele>574.34765625</ele>
        <time>2016-02-21T10:01:38Z</time>
      </trkpt>
      <trkpt lat="43.28226" lon="6.04236">
        <ele>576.80078125</ele>
        <time>2016-02-21T10:01:55Z</time>
      </trkpt>
      <trkpt lat="43.28203" lon="6.04193">
        <ele>579.2890625</ele>
        <time>2016-02-21T10:02:12Z</time>
      </trkpt>
      <trkpt lat="43.28184" lon="6.04156">
        <ele>581.75390625</ele>
        <time>2016-02-21T10:02:26Z</time>
      </trkpt>
      <trkpt lat="43.28159" lon="6.04116">
        <ele>584.37109375</ele>
        <time>2016-02-21T10:02:42Z</time>
      </trkpt>
      <trkpt lat="43.28135" lon="6.04096">
        <ele>584.92578125</ele>
        <time>2016-02-21T10:02:50Z</time>
      </trkpt>
      <trkpt lat="43.28131" lon="6.04093">
        <ele>584.85546875</ele>
        <time>2016-02-21T10:02:51Z</time>
      </trkpt>
      <trkpt lat="43.28096" lon="6.04074">
        <ele>582.5703125</ele>
        <time>2016-02-21T10:02:57Z</time>
      </trkpt>
      <trkpt lat="43.28073" lon="6.04059">
        <ele>580</ele>
        <time>2016-02-21T10:03:01Z</time>
      </trkpt>
      <trkpt lat="43.28061" lon="6.04049">
        <ele>578.05078125</ele>
        <time>2016-02-21T10:03:04Z</time>
      </trkpt>
      <trkpt lat="43.28052" lon="6.04041">
        <ele>576.70703125</ele>
        <time>2016-02-21T10:03:07Z</time>
      </trkpt>
      <trkpt lat="43.28032" lon="6.04028">
        <ele>575.0546875</ele>
        <time>2016-02-21T10:03:13Z</time>
      </trkpt>
      <trkpt lat="43.28027" lon="6.04025">
        <ele>574.8359375</ele>
        <time>2016-02-21T10:03:14Z</time>
      </trkpt>
      <trkpt lat="43.28022" lon="6.04023">
        <ele>574.42578125</ele>
        <time>2016-02-21T10:03:15Z</time>
      </trkpt>
      <trkpt lat="43.28018" lon="6.0402">
        <ele>573.87109375</ele>
        <time>2016-02-21T10:03:16Z</time>
      </trkpt>
      <trkpt lat="43.28016" lon="6.04016">
        <ele>573.015625</ele>
        <time>2016-02-21T10:03:17Z</time>
      </trkpt>
      <trkpt lat="43.28015" lon="6.04011">
        <ele>571.9453125</ele>
        <time>2016-02-21T10:03:18Z</time>
      </trkpt>
      <trkpt lat="43.28016" lon="6.04006">
        <ele>570.828125</ele>
        <time>2016-02-21T10:03:19Z</time>
      </trkpt>
      <trkpt lat="43.28018" lon="6.04002">
        <ele>569.91796875</ele>
        <time>2016-02-21T10:03:20Z</time>
      </trkpt>
      <trkpt lat="43.28022" lon="6.03999">
        <ele>569.2734375</ele>
        <time>2016-02-21T10:03:21Z</time>
      </trkpt>
      <trkpt lat="43.28027" lon="6.03997">
        <ele>568.8515625</ele>
        <time>2016-02-21T10:03:22Z</time>
      </trkpt>
      <trkpt lat="43.28032" lon="6.03996">
        <ele>568.50390625</ele>
        <time>2016-02-21T10:03:23Z</time>
      </trkpt>
      <trkpt lat="43.28037" lon="6.03994">
        <ele>567.98828125</ele>
        <time>2016-02-21T10:03:24Z</time>
      </trkpt>
      <trkpt lat="43.28042" lon="6.03992">
        <ele>567.34375</ele>
        <time>2016-02-21T10:03:25Z</time>
      </trkpt>
      <trkpt lat="43.28062" lon="6.03985">
        <ele>566.0703125</ele>
        <time>2016-02-21T10:03:29Z</time>
      </trkpt>
      <trkpt lat="43.28065" lon="6.03984">
        <ele>566.22265625</ele>
        <time>2016-02-21T10:03:30Z</time>
      </trkpt>
      <trkpt lat="43.2809" lon="6.03979">
        <ele>567.640625</ele>
        <time>2016-02-21T10:03:38Z</time>
      </trkpt>
      <trkpt lat="43.28094" lon="6.03974">
        <ele>567.6796875</ele>
        <time>2016-02-21T10:03:39Z</time>
      </trkpt>
      <trkpt lat="43.28098" lon="6.03967">
        <ele>567.47265625</ele>
        <time>2016-02-21T10:03:40Z</time>
      </trkpt>
      <trkpt lat="43.281" lon="6.0396">
        <ele>567.046875</ele>
        <time>2016-02-21T10:03:41Z</time>
      </trkpt>
      <trkpt lat="43.28101" lon="6.03951">
        <ele>566.3359375</ele>
        <time>2016-02-21T10:03:42Z</time>
      </trkpt>
      <trkpt lat="43.28102" lon="6.03941">
        <ele>565.41015625</ele>
        <time>2016-02-21T10:03:43Z</time>
      </trkpt>
      <trkpt lat="43.28102" lon="6.03931">
        <ele>564.39453125</ele>
        <time>2016-02-21T10:03:44Z</time>
      </trkpt>
      <trkpt lat="43.28104" lon="6.03894">
        <ele>560.4296875</ele>
        <time>2016-02-21T10:03:48Z</time>
      </trkpt>
      <trkpt lat="43.28103" lon="6.03886">
        <ele>559.328125</ele>
        <time>2016-02-21T10:03:49Z</time>
      </trkpt>
      <trkpt lat="43.28102" lon="6.03878">
        <ele>558.078125</ele>
        <time>2016-02-21T10:03:50Z</time>
      </trkpt>
      <trkpt lat="43.28099" lon="6.03871">
        <ele>556.6796875</ele>
        <time>2016-02-21T10:03:51Z</time>
      </trkpt>
      <trkpt lat="43.28096" lon="6.03865">
        <ele>555.1953125</ele>
        <time>2016-02-21T10:03:52Z</time>
      </trkpt>
      <trkpt lat="43.28091" lon="6.0386">
        <ele>553.69921875</ele>
        <time>2016-02-21T10:03:53Z</time>
      </trkpt>
      <trkpt lat="43.28086" lon="6.03856">
        <ele>552.2734375</ele>
        <time>2016-02-21T10:03:54Z</time>
      </trkpt>
      <trkpt lat="43.2808" lon="6.03852">
        <ele>551.19921875</ele>
        <time>2016-02-21T10:03:55Z</time>
      </trkpt>
      <trkpt lat="43.28064" lon="6.03836">
        <ele>547.8046875</ele>
        <time>2016-02-21T10:03:58Z</time>
      </trkpt>
      <trkpt lat="43.2806" lon="6.03828">
        <ele>546.4609375</ele>
        <time>2016-02-21T10:03:59Z</time>
      </trkpt>
      <trkpt lat="43.28056" lon="6.0382">
        <ele>545.18359375</ele>
        <time>2016-02-21T10:04:00Z</time>
      </trkpt>
      <trkpt lat="43.28032" lon="6.03769">
        <ele>540.01171875</ele>
        <time>2016-02-21T10:04:06Z</time>
      </trkpt>
      <trkpt lat="43.28028" lon="6.03762">
        <ele>539.6640625</ele>
        <time>2016-02-21T10:04:08Z</time>
      </trkpt>
      <trkpt lat="43.28029" lon="6.0376">
        <ele>539.59765625</ele>
        <time>2016-02-21T10:04:09Z</time>
      </trkpt>
      <trkpt lat="43.28031" lon="6.03759">
        <ele>539.60546875</ele>
        <time>2016-02-21T10:04:10Z</time>
      </trkpt>
      <trkpt lat="43.2805" lon="6.03748">
        <ele>539.30859375</ele>
        <time>2016-02-21T10:04:21Z</time>
      </trkpt>
      <trkpt lat="43.28068" lon="6.03736">
        <ele>538.50390625</ele>
        <time>2016-02-21T10:04:33Z</time>
      </trkpt>
      <trkpt lat="43.28084" lon="6.03718">
        <ele>537.2109375</ele>
        <time>2016-02-21T10:04:44Z</time>
      </trkpt>
      <trkpt lat="43.28088" lon="6.03711">
        <ele>536.55859375</ele>
        <time>2016-02-21T10:04:47Z</time>
      </trkpt>
      <trkpt lat="43.28107" lon="6.03697">
        <ele>534.89453125</ele>
        <time>2016-02-21T10:04:54Z</time>
      </trkpt>
      <trkpt lat="43.2812" lon="6.03692">
        <ele>534.6015625</ele>
        <time>2016-02-21T10:04:57Z</time>
      </trkpt>
      <trkpt lat="43.28125" lon="6.03688">
        <ele>534.453125</ele>
        <time>2016-02-21T10:04:58Z</time>
      </trkpt>
      <trkpt lat="43.28134" lon="6.0368">
        <ele>534.08984375</ele>
        <time>2016-02-21T10:05:00Z</time>
      </trkpt>
      <trkpt lat="43.28148" lon="6.03671">
        <ele>533.015625</ele>
        <time>2016-02-21T10:05:03Z</time>
      </trkpt>
      <trkpt lat="43.28151" lon="6.03666">
        <ele>532.33203125</ele>
        <time>2016-02-21T10:05:04Z</time>
      </trkpt>
      <trkpt lat="43.28155" lon="6.03661">
        <ele>531.55859375</ele>
        <time>2016-02-21T10:05:05Z</time>
      </trkpt>
      <trkpt lat="43.28159" lon="6.03656">
        <ele>531.1953125</ele>
        <time>2016-02-21T10:05:06Z</time>
      </trkpt>
      <trkpt lat="43.28164" lon="6.03653">
        <ele>530.8984375</ele>
        <time>2016-02-21T10:05:07Z</time>
      </trkpt>
      <trkpt lat="43.28169" lon="6.0365">
        <ele>530.62890625</ele>
        <time>2016-02-21T10:05:08Z</time>
      </trkpt>
      <trkpt lat="43.28174" lon="6.03647">
        <ele>530.53515625</ele>
        <time>2016-02-21T10:05:09Z</time>
      </trkpt>
      <trkpt lat="43.28179" lon="6.03645">
        <ele>530.4765625</ele>
        <time>2016-02-21T10:05:10Z</time>
      </trkpt>
      <trkpt lat="43.28184" lon="6.03644">
        <ele>530.4375</ele>
        <time>2016-02-21T10:05:11Z</time>
      </trkpt>
      <trkpt lat="43.28189" lon="6.03643">
        <ele>530.38671875</ele>
        <time>2016-02-21T10:05:12Z</time>
      </trkpt>
      <trkpt lat="43.28194" lon="6.03641">
        <ele>530.30859375</ele>
        <time>2016-02-21T10:05:13Z</time>
      </trkpt>
      <trkpt lat="43.28199" lon="6.03638">
        <ele>530.140625</ele>
        <time>2016-02-21T10:05:14Z</time>
      </trkpt>
      <trkpt lat="43.28205" lon="6.03636">
        <ele>529.86328125</ele>
        <time>2016-02-21T10:05:15Z</time>
      </trkpt>
      <trkpt lat="43.28216" lon="6.03631">
        <ele>529.2421875</ele>
        <time>2016-02-21T10:05:17Z</time>
      </trkpt>
      <trkpt lat="43.28239" lon="6.0362">
        <ele>528.5625</ele>
        <time>2016-02-21T10:05:21Z</time>
      </trkpt>
      <trkpt lat="43.28245" lon="6.03619">
        <ele>528.54296875</ele>
        <time>2016-02-21T10:05:22Z</time>
      </trkpt>
      <trkpt lat="43.28251" lon="6.03621">
        <ele>528.59765625</ele>
        <time>2016-02-21T10:05:23Z</time>
      </trkpt>
      <trkpt lat="43.28256" lon="6.03624">
        <ele>528.66796875</ele>
        <time>2016-02-21T10:05:24Z</time>
      </trkpt>
      <trkpt lat="43.28261" lon="6.03627">
        <ele>528.765625</ele>
        <time>2016-02-21T10:05:25Z</time>
      </trkpt>
      <trkpt lat="43.28272" lon="6.03627">
        <ele>528.6640625</ele>
        <time>2016-02-21T10:05:28Z</time>
      </trkpt>
      <trkpt lat="43.28275" lon="6.03625">
        <ele>528.515625</ele>
        <time>2016-02-21T10:05:29Z</time>
      </trkpt>
      <trkpt lat="43.28277" lon="6.03623">
        <ele>528.34765625</ele>
        <time>2016-02-21T10:05:30Z</time>
      </trkpt>
      <trkpt lat="43.28279" lon="6.03621">
        <ele>528.1953125</ele>
        <time>2016-02-21T10:05:31Z</time>
      </trkpt>
      <trkpt lat="43.2828" lon="6.03619">
        <ele>528.04296875</ele>
        <time>2016-02-21T10:05:32Z</time>
      </trkpt>
      <trkpt lat="43.28279" lon="6.03616">
        <ele>527.8515625</ele>
        <time>2016-02-21T10:05:38Z</time>
      </trkpt>
      <trkpt lat="43.28278" lon="6.03625">
        <ele>528.49609375</ele>
        <time>2016-02-21T10:05:47Z</time>
      </trkpt>
      <trkpt lat="43.28282" lon="6.03632">
        <ele>528.98046875</ele>
        <time>2016-02-21T10:05:51Z</time>
      </trkpt>
      <trkpt lat="43.28286" lon="6.03635">
        <ele>529.1796875</ele>
        <time>2016-02-21T10:05:54Z</time>
      </trkpt>
      <trkpt lat="43.28295" lon="6.03635">
        <ele>529.2265625</ele>
        <time>2016-02-21T10:05:58Z</time>
      </trkpt>
      <trkpt lat="43.28298" lon="6.03635">
        <ele>529.20703125</ele>
        <time>2016-02-21T10:05:59Z</time>
      </trkpt>
      <trkpt lat="43.283" lon="6.03635">
        <ele>529.19921875</ele>
        <time>2016-02-21T10:06:00Z</time>
      </trkpt>
      <trkpt lat="43.28303" lon="6.03634">
        <ele>529.15625</ele>
        <time>2016-02-21T10:06:01Z</time>
      </trkpt>
      <trkpt lat="43.28305" lon="6.03633">
        <ele>529.08203125</ele>
        <time>2016-02-21T10:06:02Z</time>
      </trkpt>
      <trkpt lat="43.28308" lon="6.03632">
        <ele>529.03125</ele>
        <time>2016-02-21T10:06:03Z</time>
      </trkpt>
      <trkpt lat="43.2831" lon="6.03632">
        <ele>529.08984375</ele>
        <time>2016-02-21T10:06:04Z</time>
      </trkpt>
      <trkpt lat="43.28312" lon="6.03632">
        <ele>529.1796875</ele>
        <time>2016-02-21T10:06:05Z</time>
      </trkpt>
      <trkpt lat="43.28314" lon="6.03632">
        <ele>529.2265625</ele>
        <time>2016-02-21T10:06:06Z</time>
      </trkpt>
      <trkpt lat="43.28321" lon="6.03631">
        <ele>529.40625</ele>
        <time>2016-02-21T10:06:15Z</time>
      </trkpt>
      <trkpt lat="43.28343" lon="6.03623">
        <ele>529.83203125</ele>
        <time>2016-02-21T10:06:24Z</time>
      </trkpt>
      <trkpt lat="43.28346" lon="6.03623">
        <ele>529.99609375</ele>
        <time>2016-02-21T10:06:25Z</time>
      </trkpt>
      <trkpt lat="43.2835" lon="6.03622">
        <ele>530.109375</ele>
        <time>2016-02-21T10:06:26Z</time>
      </trkpt>
      <trkpt lat="43.28353" lon="6.0362">
        <ele>530.19921875</ele>
        <time>2016-02-21T10:06:27Z</time>
      </trkpt>
      <trkpt lat="43.28357" lon="6.03619">
        <ele>530.3046875</ele>
        <time>2016-02-21T10:06:28Z</time>
      </trkpt>
      <trkpt lat="43.28361" lon="6.03617">
        <ele>530.2890625</ele>
        <time>2016-02-21T10:06:29Z</time>
      </trkpt>
      <trkpt lat="43.28364" lon="6.03614">
        <ele>530.03515625</ele>
        <time>2016-02-21T10:06:30Z</time>
      </trkpt>
      <trkpt lat="43.28367" lon="6.0361">
        <ele>529.64453125</ele>
        <time>2016-02-21T10:06:31Z</time>
      </trkpt>
      <trkpt lat="43.2837" lon="6.03607">
        <ele>529.33984375</ele>
        <time>2016-02-21T10:06:32Z</time>
      </trkpt>
      <trkpt lat="43.28373" lon="6.03604">
        <ele>528.96484375</ele>
        <time>2016-02-21T10:06:33Z</time>
      </trkpt>
      <trkpt lat="43.28375" lon="6.03601">
        <ele>528.7265625</ele>
        <time>2016-02-21T10:06:34Z</time>
      </trkpt>
      <trkpt lat="43.28378" lon="6.03598">
        <ele>528.54296875</ele>
        <time>2016-02-21T10:06:35Z</time>
      </trkpt>
      <trkpt lat="43.28381" lon="6.03596">
        <ele>528.4140625</ele>
        <time>2016-02-21T10:06:36Z</time>
      </trkpt>
      <trkpt lat="43.28385" lon="6.03594">
        <ele>528.28125</ele>
        <time>2016-02-21T10:06:37Z</time>
      </trkpt>
      <trkpt lat="43.28411" lon="6.03591">
        <ele>527.6484375</ele>
        <time>2016-02-21T10:06:46Z</time>
      </trkpt>
      <trkpt lat="43.28441" lon="6.03582">
        <ele>525.86328125</ele>
        <time>2016-02-21T10:06:55Z</time>
      </trkpt>
      <trkpt lat="43.28443" lon="6.03579">
        <ele>525.4921875</ele>
        <time>2016-02-21T10:06:56Z</time>
      </trkpt>
      <trkpt lat="43.28446" lon="6.03576">
        <ele>524.9296875</ele>
        <time>2016-02-21T10:06:57Z</time>
      </trkpt>
      <trkpt lat="43.28448" lon="6.03572">
        <ele>524.53125</ele>
        <time>2016-02-21T10:06:58Z</time>
      </trkpt>
      <trkpt lat="43.28451" lon="6.03569">
        <ele>524.18359375</ele>
        <time>2016-02-21T10:06:59Z</time>
      </trkpt>
      <trkpt lat="43.28455" lon="6.03567">
        <ele>523.90625</ele>
        <time>2016-02-21T10:07:00Z</time>
      </trkpt>
      <trkpt lat="43.28458" lon="6.03565">
        <ele>523.6875</ele>
        <time>2016-02-21T10:07:01Z</time>
      </trkpt>
      <trkpt lat="43.28461" lon="6.03563">
        <ele>523.5390625</ele>
        <time>2016-02-21T10:07:02Z</time>
      </trkpt>
      <trkpt lat="43.28481" lon="6.03561">
        <ele>523.03515625</ele>
        <time>2016-02-21T10:07:09Z</time>
      </trkpt>
      <trkpt lat="43.28483" lon="6.03561">
        <ele>522.98828125</ele>
        <time>2016-02-21T10:07:10Z</time>
      </trkpt>
      <trkpt lat="43.28485" lon="6.0356">
        <ele>522.83984375</ele>
        <time>2016-02-21T10:07:11Z</time>
      </trkpt>
      <trkpt lat="43.28495" lon="6.03557">
        <ele>522.05078125</ele>
        <time>2016-02-21T10:07:14Z</time>
      </trkpt>
      <trkpt lat="43.28511" lon="6.03546">
        <ele>520.78125</ele>
        <time>2016-02-21T10:07:18Z</time>
      </trkpt>
      <trkpt lat="43.2852" lon="6.03542">
        <ele>520.5</ele>
        <time>2016-02-21T10:07:20Z</time>
      </trkpt>
      <trkpt lat="43.28524" lon="6.0354">
        <ele>520.33203125</ele>
        <time>2016-02-21T10:07:21Z</time>
      </trkpt>
      <trkpt lat="43.28529" lon="6.03538">
        <ele>520.2421875</ele>
        <time>2016-02-21T10:07:22Z</time>
      </trkpt>
      <trkpt lat="43.28548" lon="6.03534">
        <ele>520.59765625</ele>
        <time>2016-02-21T10:07:26Z</time>
      </trkpt>
      <trkpt lat="43.28567" lon="6.03534">
        <ele>521.515625</ele>
        <time>2016-02-21T10:07:30Z</time>
      </trkpt>
      <trkpt lat="43.28572" lon="6.03535">
        <ele>521.79296875</ele>
        <time>2016-02-21T10:07:31Z</time>
      </trkpt>
      <trkpt lat="43.28583" lon="6.03536">
        <ele>522.421875</ele>
        <time>2016-02-21T10:07:38Z</time>
      </trkpt>
      <trkpt lat="43.28585" lon="6.03535">
        <ele>522.50390625</ele>
        <time>2016-02-21T10:07:51Z</time>
      </trkpt>
      <trkpt lat="43.28582" lon="6.03536">
        <ele>522.38671875</ele>
        <time>2016-02-21T10:07:55Z</time>
      </trkpt>
      <trkpt lat="43.28581" lon="6.03537">
        <ele>522.33203125</ele>
        <time>2016-02-21T10:07:56Z</time>
      </trkpt>
      <trkpt lat="43.28572" lon="6.03536">
        <ele>521.859375</ele>
        <time>2016-02-21T10:08:03Z</time>
      </trkpt>
      <trkpt lat="43.28573" lon="6.03536">
        <ele>521.87109375</ele>
        <time>2016-02-21T10:08:06Z</time>
      </trkpt>
      <trkpt lat="43.28587" lon="6.03534">
        <ele>522.546875</ele>
        <time>2016-02-21T10:08:15Z</time>
      </trkpt>
      <trkpt lat="43.28588" lon="6.03531">
        <ele>522.49609375</ele>
        <time>2016-02-21T10:08:16Z</time>
      </trkpt>
      <trkpt lat="43.2859" lon="6.03526">
        <ele>522.390625</ele>
        <time>2016-02-21T10:08:19Z</time>
      </trkpt>
      <trkpt lat="43.28592" lon="6.03525">
        <ele>522.45703125</ele>
        <time>2016-02-21T10:08:20Z</time>
      </trkpt>
      <trkpt lat="43.28598" lon="6.03525">
        <ele>522.7109375</ele>
        <time>2016-02-21T10:08:24Z</time>
      </trkpt>
      <trkpt lat="43.286" lon="6.03527">
        <ele>522.85546875</ele>
        <time>2016-02-21T10:08:25Z</time>
      </trkpt>
      <trkpt lat="43.28602" lon="6.03528">
        <ele>522.99609375</ele>
        <time>2016-02-21T10:08:26Z</time>
      </trkpt>
      <trkpt lat="43.28608" lon="6.0353">
        <ele>523.45703125</ele>
        <time>2016-02-21T10:08:36Z</time>
      </trkpt>
      <trkpt lat="43.28628" lon="6.03532">
        <ele>524.03125</ele>
        <time>2016-02-21T10:08:47Z</time>
      </trkpt>
      <trkpt lat="43.28646" lon="6.03521">
        <ele>522.81640625</ele>
        <time>2016-02-21T10:08:55Z</time>
      </trkpt>
      <trkpt lat="43.28649" lon="6.03521">
        <ele>522.70703125</ele>
        <time>2016-02-21T10:08:56Z</time>
      </trkpt>
      <trkpt lat="43.28651" lon="6.0352">
        <ele>522.63671875</ele>
        <time>2016-02-21T10:08:57Z</time>
      </trkpt>
      <trkpt lat="43.28661" lon="6.03517">
        <ele>522.30078125</ele>
        <time>2016-02-21T10:09:03Z</time>
      </trkpt>
      <trkpt lat="43.28662" lon="6.03517">
        <ele>522.25</ele>
        <time>2016-02-21T10:09:04Z</time>
      </trkpt>
      <trkpt lat="43.28664" lon="6.03516">
        <ele>522.17578125</ele>
        <time>2016-02-21T10:09:05Z</time>
      </trkpt>
      <trkpt lat="43.28665" lon="6.03516">
        <ele>522.1171875</ele>
        <time>2016-02-21T10:09:06Z</time>
      </trkpt>
      <trkpt lat="43.28667" lon="6.03516">
        <ele>522.05859375</ele>
        <time>2016-02-21T10:09:07Z</time>
      </trkpt>
      <trkpt lat="43.28668" lon="6.03516">
        <ele>522.00390625</ele>
        <time>2016-02-21T10:09:18Z</time>
      </trkpt>
      <trkpt lat="43.2867" lon="6.03516">
        <ele>521.90625</ele>
        <time>2016-02-21T10:09:38Z</time>
      </trkpt>
      <trkpt lat="43.28672" lon="6.03516">
        <ele>521.85546875</ele>
        <time>2016-02-21T10:09:41Z</time>
      </trkpt>
      <trkpt lat="43.28673" lon="6.03516">
        <ele>521.796875</ele>
        <time>2016-02-21T10:09:42Z</time>
      </trkpt>
      <trkpt lat="43.28675" lon="6.03516">
        <ele>521.72265625</ele>
        <time>2016-02-21T10:09:43Z</time>
      </trkpt>
      <trkpt lat="43.28676" lon="6.03515">
        <ele>521.64453125</ele>
        <time>2016-02-21T10:09:44Z</time>
      </trkpt>
      <trkpt lat="43.28677" lon="6.03513">
        <ele>521.56640625</ele>
        <time>2016-02-21T10:09:45Z</time>
      </trkpt>
      <trkpt lat="43.2869" lon="6.03502">
        <ele>520.6640625</ele>
        <time>2016-02-21T10:09:57Z</time>
      </trkpt>
      <trkpt lat="43.28692" lon="6.03502">
        <ele>520.5625</ele>
        <time>2016-02-21T10:09:58Z</time>
      </trkpt>
      <trkpt lat="43.28706" lon="6.03507">
        <ele>519.96875</ele>
        <time>2016-02-21T10:10:08Z</time>
      </trkpt>
      <trkpt lat="43.28707" lon="6.03509">
        <ele>519.99609375</ele>
        <time>2016-02-21T10:10:09Z</time>
      </trkpt>
      <trkpt lat="43.28708" lon="6.03512">
        <ele>520.05078125</ele>
        <time>2016-02-21T10:10:10Z</time>
      </trkpt>
      <trkpt lat="43.2871" lon="6.03513">
        <ele>520.046875</ele>
        <time>2016-02-21T10:10:11Z</time>
      </trkpt>
      <trkpt lat="43.28712" lon="6.03514">
        <ele>519.98828125</ele>
        <time>2016-02-21T10:10:12Z</time>
      </trkpt>
      <trkpt lat="43.28715" lon="6.03515">
        <ele>519.94140625</ele>
        <time>2016-02-21T10:10:13Z</time>
      </trkpt>
      <trkpt lat="43.28717" lon="6.03515">
        <ele>519.87890625</ele>
        <time>2016-02-21T10:10:14Z</time>
      </trkpt>
      <trkpt lat="43.28719" lon="6.03515">
        <ele>519.76953125</ele>
        <time>2016-02-21T10:10:15Z</time>
      </trkpt>
      <trkpt lat="43.28722" lon="6.03515">
        <ele>519.609375</ele>
        <time>2016-02-21T10:10:16Z</time>
      </trkpt>
      <trkpt lat="43.28724" lon="6.03513">
        <ele>519.34375</ele>
        <time>2016-02-21T10:10:17Z</time>
      </trkpt>
      <trkpt lat="43.28726" lon="6.03511">
        <ele>518.96875</ele>
        <time>2016-02-21T10:10:18Z</time>
      </trkpt>
      <trkpt lat="43.28729" lon="6.0351">
        <ele>518.60546875</ele>
        <time>2016-02-21T10:10:19Z</time>
      </trkpt>
      <trkpt lat="43.28731" lon="6.03508">
        <ele>518.2421875</ele>
        <time>2016-02-21T10:10:20Z</time>
      </trkpt>
      <trkpt lat="43.28734" lon="6.03507">
        <ele>517.87109375</ele>
        <time>2016-02-21T10:10:21Z</time>
      </trkpt>
      <trkpt lat="43.28737" lon="6.03506">
        <ele>517.48046875</ele>
        <time>2016-02-21T10:10:22Z</time>
      </trkpt>
      <trkpt lat="43.2874" lon="6.03504">
        <ele>517</ele>
        <time>2016-02-21T10:10:23Z</time>
      </trkpt>
      <trkpt lat="43.28743" lon="6.03502">
        <ele>516.4921875</ele>
        <time>2016-02-21T10:10:24Z</time>
      </trkpt>
      <trkpt lat="43.28746" lon="6.03499">
        <ele>516.015625</ele>
        <time>2016-02-21T10:10:25Z</time>
      </trkpt>
      <trkpt lat="43.28748" lon="6.03497">
        <ele>515.5859375</ele>
        <time>2016-02-21T10:10:26Z</time>
      </trkpt>
      <trkpt lat="43.28751" lon="6.03496">
        <ele>515.20703125</ele>
        <time>2016-02-21T10:10:27Z</time>
      </trkpt>
      <trkpt lat="43.28756" lon="6.03492">
        <ele>514.421875</ele>
        <time>2016-02-21T10:10:30Z</time>
      </trkpt>
      <trkpt lat="43.28758" lon="6.03491">
        <ele>514.2109375</ele>
        <time>2016-02-21T10:10:31Z</time>
      </trkpt>
      <trkpt lat="43.2876" lon="6.0349">
        <ele>513.953125</ele>
        <time>2016-02-21T10:10:32Z</time>
      </trkpt>
      <trkpt lat="43.28762" lon="6.03489">
        <ele>513.70703125</ele>
        <time>2016-02-21T10:10:33Z</time>
      </trkpt>
      <trkpt lat="43.28764" lon="6.03488">
        <ele>513.484375</ele>
        <time>2016-02-21T10:10:34Z</time>
      </trkpt>
      <trkpt lat="43.28767" lon="6.03486">
        <ele>513.0390625</ele>
        <time>2016-02-21T10:10:36Z</time>
      </trkpt>
      <trkpt lat="43.28769" lon="6.03487">
        <ele>512.8671875</ele>
        <time>2016-02-21T10:10:37Z</time>
      </trkpt>
      <trkpt lat="43.28771" lon="6.03486">
        <ele>512.65234375</ele>
        <time>2016-02-21T10:10:38Z</time>
      </trkpt>
      <trkpt lat="43.28773" lon="6.03484">
        <ele>512.29296875</ele>
        <time>2016-02-21T10:10:39Z</time>
      </trkpt>
      <trkpt lat="43.28776" lon="6.03482">
        <ele>511.890625</ele>
        <time>2016-02-21T10:10:40Z</time>
      </trkpt>
      <trkpt lat="43.28779" lon="6.0348">
        <ele>511.48828125</ele>
        <time>2016-02-21T10:10:41Z</time>
      </trkpt>
      <trkpt lat="43.28782" lon="6.03478">
        <ele>511.015625</ele>
        <time>2016-02-21T10:10:42Z</time>
      </trkpt>
      <trkpt lat="43.28784" lon="6.03476">
        <ele>510.546875</ele>
        <time>2016-02-21T10:10:43Z</time>
      </trkpt>
      <trkpt lat="43.28787" lon="6.03473">
        <ele>510.0859375</ele>
        <time>2016-02-21T10:10:44Z</time>
      </trkpt>
      <trkpt lat="43.28804" lon="6.0346">
        <ele>506.578125</ele>
        <time>2016-02-21T10:10:53Z</time>
      </trkpt>
      <trkpt lat="43.28805" lon="6.0346">
        <ele>506.3125</ele>
        <time>2016-02-21T10:10:54Z</time>
      </trkpt>
      <trkpt lat="43.28807" lon="6.03458">
        <ele>506.02734375</ele>
        <time>2016-02-21T10:10:55Z</time>
      </trkpt>
      <trkpt lat="43.28809" lon="6.03457">
        <ele>505.8125</ele>
        <time>2016-02-21T10:10:56Z</time>
      </trkpt>
      <trkpt lat="43.28811" lon="6.03455">
        <ele>505.6015625</ele>
        <time>2016-02-21T10:10:57Z</time>
      </trkpt>
      <trkpt lat="43.28819" lon="6.03446">
        <ele>504.7265625</ele>
        <time>2016-02-21T10:11:06Z</time>
      </trkpt>
      <trkpt lat="43.28821" lon="6.03446">
        <ele>504.51171875</ele>
        <time>2016-02-21T10:11:09Z</time>
      </trkpt>
      <trkpt lat="43.28822" lon="6.03445">
        <ele>504.3828125</ele>
        <time>2016-02-21T10:11:10Z</time>
      </trkpt>
      <trkpt lat="43.28823" lon="6.03444">
        <ele>504.28515625</ele>
        <time>2016-02-21T10:11:11Z</time>
      </trkpt>
      <trkpt lat="43.28825" lon="6.03443">
        <ele>504.0703125</ele>
        <time>2016-02-21T10:11:13Z</time>
      </trkpt>
      <trkpt lat="43.28826" lon="6.03443">
        <ele>503.9140625</ele>
        <time>2016-02-21T10:11:14Z</time>
      </trkpt>
      <trkpt lat="43.28828" lon="6.03442">
        <ele>503.73046875</ele>
        <time>2016-02-21T10:11:15Z</time>
      </trkpt>
      <trkpt lat="43.2883" lon="6.0344">
        <ele>503.52734375</ele>
        <time>2016-02-21T10:11:16Z</time>
      </trkpt>
      <trkpt lat="43.28832" lon="6.03438">
        <ele>503.296875</ele>
        <time>2016-02-21T10:11:17Z</time>
      </trkpt>
      <trkpt lat="43.28834" lon="6.03436">
        <ele>503.0859375</ele>
        <time>2016-02-21T10:11:18Z</time>
      </trkpt>
      <trkpt lat="43.28839" lon="6.03434">
        <ele>502.546875</ele>
        <time>2016-02-21T10:11:28Z</time>
      </trkpt>
      <trkpt lat="43.28842" lon="6.03432">
        <ele>502.1796875</ele>
        <time>2016-02-21T10:11:57Z</time>
      </trkpt>
      <trkpt lat="43.28842" lon="6.03433">
        <ele>502.17578125</ele>
        <time>2016-02-21T10:12:22Z</time>
      </trkpt>
      <trkpt lat="43.28846" lon="6.03431">
        <ele>501.82421875</ele>
        <time>2016-02-21T10:12:46Z</time>
      </trkpt>
      <trkpt lat="43.28849" lon="6.03427">
        <ele>501.44140625</ele>
        <time>2016-02-21T10:13:01Z</time>
      </trkpt>
      <trkpt lat="43.28851" lon="6.03426">
        <ele>501.265625</ele>
        <time>2016-02-21T10:13:04Z</time>
      </trkpt>
      <trkpt lat="43.28852" lon="6.03426">
        <ele>501.0859375</ele>
        <time>2016-02-21T10:13:05Z</time>
      </trkpt>
      <trkpt lat="43.28854" lon="6.03424">
        <ele>500.90625</ele>
        <time>2016-02-21T10:13:06Z</time>
      </trkpt>
      <trkpt lat="43.28856" lon="6.03422">
        <ele>500.73046875</ele>
        <time>2016-02-21T10:13:07Z</time>
      </trkpt>
      <trkpt lat="43.28858" lon="6.0342">
        <ele>500.515625</ele>
        <time>2016-02-21T10:13:08Z</time>
      </trkpt>
      <trkpt lat="43.2886" lon="6.03419">
        <ele>500.26171875</ele>
        <time>2016-02-21T10:13:09Z</time>
      </trkpt>
      <trkpt lat="43.28863" lon="6.03416">
        <ele>499.98828125</ele>
        <time>2016-02-21T10:13:10Z</time>
      </trkpt>
      <trkpt lat="43.28865" lon="6.03414">
        <ele>499.74609375</ele>
        <time>2016-02-21T10:13:11Z</time>
      </trkpt>
      <trkpt lat="43.28896" lon="6.0339">
        <ele>496.42578125</ele>
        <time>2016-02-21T10:13:23Z</time>
      </trkpt>
      <trkpt lat="43.28901" lon="6.03353">
        <ele>495.82421875</ele>
        <time>2016-02-21T10:13:32Z</time>
      </trkpt>
      <trkpt lat="43.28903" lon="6.0335">
        <ele>495.4921875</ele>
        <time>2016-02-21T10:13:37Z</time>
      </trkpt>
      <trkpt lat="43.28904" lon="6.03348">
        <ele>495.34765625</ele>
        <time>2016-02-21T10:13:38Z</time>
      </trkpt>
      <trkpt lat="43.28906" lon="6.03346">
        <ele>495.1640625</ele>
        <time>2016-02-21T10:13:39Z</time>
      </trkpt>
      <trkpt lat="43.28919" lon="6.03327">
        <ele>492.9375</ele>
        <time>2016-02-21T10:13:49Z</time>
      </trkpt>
      <trkpt lat="43.2892" lon="6.03324">
        <ele>492.765625</ele>
        <time>2016-02-21T10:13:55Z</time>
      </trkpt>
      <trkpt lat="43.28921" lon="6.03323">
        <ele>492.63671875</ele>
        <time>2016-02-21T10:13:56Z</time>
      </trkpt>
      <trkpt lat="43.28922" lon="6.03321">
        <ele>492.46484375</ele>
        <time>2016-02-21T10:13:57Z</time>
      </trkpt>
      <trkpt lat="43.28923" lon="6.03319">
        <ele>492.27734375</ele>
        <time>2016-02-21T10:13:58Z</time>
      </trkpt>
      <trkpt lat="43.28925" lon="6.03317">
        <ele>492.08984375</ele>
        <time>2016-02-21T10:13:59Z</time>
      </trkpt>
      <trkpt lat="43.28926" lon="6.03316">
        <ele>491.9296875</ele>
        <time>2016-02-21T10:14:00Z</time>
      </trkpt>
      <trkpt lat="43.2893" lon="6.03312">
        <ele>491.41796875</ele>
        <time>2016-02-21T10:14:06Z</time>
      </trkpt>
      <trkpt lat="43.28931" lon="6.03311">
        <ele>491.24609375</ele>
        <time>2016-02-21T10:14:07Z</time>
      </trkpt>
      <trkpt lat="43.28936" lon="6.03307">
        <ele>490.54296875</ele>
        <time>2016-02-21T10:14:17Z</time>
      </trkpt>
      <trkpt lat="43.2894" lon="6.03306">
        <ele>490.1015625</ele>
        <time>2016-02-21T10:14:34Z</time>
      </trkpt>
      <trkpt lat="43.2895" lon="6.03296">
        <ele>488.81640625</ele>
        <time>2016-02-21T10:14:44Z</time>
      </trkpt>
      <trkpt lat="43.28952" lon="6.03295">
        <ele>488.7421875</ele>
        <time>2016-02-21T10:14:45Z</time>
      </trkpt>
      <trkpt lat="43.28954" lon="6.03295">
        <ele>488.66015625</ele>
        <time>2016-02-21T10:14:46Z</time>
      </trkpt>
      <trkpt lat="43.28982" lon="6.03286">
        <ele>486.92578125</ele>
        <time>2016-02-21T10:14:56Z</time>
      </trkpt>
      <trkpt lat="43.28993" lon="6.03285">
        <ele>486.08984375</ele>
        <time>2016-02-21T10:14:59Z</time>
      </trkpt>
      <trkpt lat="43.28997" lon="6.03283">
        <ele>485.73828125</ele>
        <time>2016-02-21T10:15:00Z</time>
      </trkpt>
      <trkpt lat="43.29002" lon="6.03283">
        <ele>485.40234375</ele>
        <time>2016-02-21T10:15:01Z</time>
      </trkpt>
      <trkpt lat="43.29007" lon="6.03282">
        <ele>485.1953125</ele>
        <time>2016-02-21T10:15:02Z</time>
      </trkpt>
      <trkpt lat="43.29012" lon="6.03281">
        <ele>484.9765625</ele>
        <time>2016-02-21T10:15:03Z</time>
      </trkpt>
      <trkpt lat="43.2904" lon="6.03271">
        <ele>483.59375</ele>
        <time>2016-02-21T10:15:10Z</time>
      </trkpt>
      <trkpt lat="43.29081" lon="6.03254">
        <ele>480.9765625</ele>
        <time>2016-02-21T10:15:22Z</time>
      </trkpt>
      <trkpt lat="43.29102" lon="6.03233">
        <ele>478.6171875</ele>
        <time>2016-02-21T10:15:29Z</time>
      </trkpt>
      <trkpt lat="43.29113" lon="6.03225">
        <ele>477.98828125</ele>
        <time>2016-02-21T10:15:32Z</time>
      </trkpt>
      <trkpt lat="43.29115" lon="6.03221">
        <ele>477.84375</ele>
        <time>2016-02-21T10:15:33Z</time>
      </trkpt>
      <trkpt lat="43.29117" lon="6.03217">
        <ele>477.68359375</ele>
        <time>2016-02-21T10:15:34Z</time>
      </trkpt>
      <trkpt lat="43.2912" lon="6.03215">
        <ele>477.44921875</ele>
        <time>2016-02-21T10:15:35Z</time>
      </trkpt>
      <trkpt lat="43.29124" lon="6.03213">
        <ele>477.18359375</ele>
        <time>2016-02-21T10:15:36Z</time>
      </trkpt>
      <trkpt lat="43.29127" lon="6.03211">
        <ele>476.9140625</ele>
        <time>2016-02-21T10:15:37Z</time>
      </trkpt>
      <trkpt lat="43.29168" lon="6.03208">
        <ele>474.9921875</ele>
        <time>2016-02-21T10:15:48Z</time>
      </trkpt>
      <trkpt lat="43.29191" lon="6.0321">
        <ele>474.83984375</ele>
        <time>2016-02-21T10:15:59Z</time>
      </trkpt>
      <trkpt lat="43.29188" lon="6.03211">
        <ele>474.88671875</ele>
        <time>2016-02-21T10:16:25Z</time>
      </trkpt>
      <trkpt lat="43.29191" lon="6.03206">
        <ele>474.7109375</ele>
        <time>2016-02-21T10:16:56Z</time>
      </trkpt>
      <trkpt lat="43.29188" lon="6.03209">
        <ele>474.828125</ele>
        <time>2016-02-21T10:17:24Z</time>
      </trkpt>
      <trkpt lat="43.2919" lon="6.03207">
        <ele>474.74609375</ele>
        <time>2016-02-21T10:17:58Z</time>
      </trkpt>
      <trkpt lat="43.29196" lon="6.03207">
        <ele>474.671875</ele>
        <time>2016-02-21T10:18:30Z</time>
      </trkpt>
      <trkpt lat="43.29214" lon="6.03188">
        <ele>474.00390625</ele>
        <time>2016-02-21T10:18:41Z</time>
      </trkpt>
      <trkpt lat="43.29238" lon="6.0317">
        <ele>474</ele>
        <time>2016-02-21T10:18:53Z</time>
      </trkpt>
      <trkpt lat="43.29253" lon="6.03166">
        <ele>474.015625</ele>
        <time>2016-02-21T10:19:02Z</time>
      </trkpt>
      <trkpt lat="43.29255" lon="6.03166">
        <ele>474.03515625</ele>
        <time>2016-02-21T10:19:03Z</time>
      </trkpt>
      <trkpt lat="43.29285" lon="6.0316">
        <ele>474</ele>
        <time>2016-02-21T10:19:11Z</time>
      </trkpt>
      <trkpt lat="43.29289" lon="6.03159">
        <ele>474</ele>
        <time>2016-02-21T10:19:12Z</time>
      </trkpt>
      <trkpt lat="43.29294" lon="6.03157">
        <ele>474</ele>
        <time>2016-02-21T10:19:13Z</time>
      </trkpt>
      <trkpt lat="43.29298" lon="6.03154">
        <ele>474</ele>
        <time>2016-02-21T10:19:14Z</time>
      </trkpt>
      <trkpt lat="43.29303" lon="6.03152">
        <ele>474</ele>
        <time>2016-02-21T10:19:15Z</time>
      </trkpt>
      <trkpt lat="43.29308" lon="6.0315">
        <ele>474</ele>
        <time>2016-02-21T10:19:16Z</time>
      </trkpt>
      <trkpt lat="43.29318" lon="6.03148">
        <ele>474</ele>
        <time>2016-02-21T10:19:18Z</time>
      </trkpt>
      <trkpt lat="43.29322" lon="6.03148">
        <ele>474</ele>
        <time>2016-02-21T10:19:19Z</time>
      </trkpt>
      <trkpt lat="43.29336" lon="6.03146">
        <ele>474</ele>
        <time>2016-02-21T10:19:23Z</time>
      </trkpt>
      <trkpt lat="43.29365" lon="6.03131">
        <ele>474.0625</ele>
        <time>2016-02-21T10:19:33Z</time>
      </trkpt>
      <trkpt lat="43.29396" lon="6.03125">
        <ele>474.26171875</ele>
        <time>2016-02-21T10:19:44Z</time>
      </trkpt>
      <trkpt lat="43.29407" lon="6.03114">
        <ele>474.6796875</ele>
        <time>2016-02-21T10:19:51Z</time>
      </trkpt>
      <trkpt lat="43.29409" lon="6.03114">
        <ele>474.67578125</ele>
        <time>2016-02-21T10:19:52Z</time>
      </trkpt>
      <trkpt lat="43.29412" lon="6.03114">
        <ele>474.65625</ele>
        <time>2016-02-21T10:19:53Z</time>
      </trkpt>
      <trkpt lat="43.29414" lon="6.03115">
        <ele>474.6171875</ele>
        <time>2016-02-21T10:19:54Z</time>
      </trkpt>
      <trkpt lat="43.29416" lon="6.03116">
        <ele>474.58203125</ele>
        <time>2016-02-21T10:19:55Z</time>
      </trkpt>
      <trkpt lat="43.29418" lon="6.03117">
        <ele>474.53515625</ele>
        <time>2016-02-21T10:19:56Z</time>
      </trkpt>
      <trkpt lat="43.29421" lon="6.03117">
        <ele>474.43359375</ele>
        <time>2016-02-21T10:19:57Z</time>
      </trkpt>
      <trkpt lat="43.29423" lon="6.03117">
        <ele>474.34375</ele>
        <time>2016-02-21T10:19:58Z</time>
      </trkpt>
      <trkpt lat="43.29456" lon="6.03119">
        <ele>472.765625</ele>
        <time>2016-02-21T10:20:10Z</time>
      </trkpt>
      <trkpt lat="43.29478" lon="6.03116">
        <ele>471.27734375</ele>
        <time>2016-02-21T10:20:17Z</time>
      </trkpt>
      <trkpt lat="43.2948" lon="6.03118">
        <ele>471.046875</ele>
        <time>2016-02-21T10:20:18Z</time>
      </trkpt>
      <trkpt lat="43.29481" lon="6.03122">
        <ele>470.8359375</ele>
        <time>2016-02-21T10:20:19Z</time>
      </trkpt>
      <trkpt lat="43.29481" lon="6.03126">
        <ele>470.6640625</ele>
        <time>2016-02-21T10:20:20Z</time>
      </trkpt>
      <trkpt lat="43.2948" lon="6.03131">
        <ele>470.546875</ele>
        <time>2016-02-21T10:20:21Z</time>
      </trkpt>
      <trkpt lat="43.2948" lon="6.03136">
        <ele>470.546875</ele>
        <time>2016-02-21T10:20:22Z</time>
      </trkpt>
      <trkpt lat="43.2948" lon="6.03141">
        <ele>470.5703125</ele>
        <time>2016-02-21T10:20:23Z</time>
      </trkpt>
      <trkpt lat="43.29481" lon="6.03146">
        <ele>470.59765625</ele>
        <time>2016-02-21T10:20:24Z</time>
      </trkpt>
      <trkpt lat="43.29484" lon="6.03155">
        <ele>470.53515625</ele>
        <time>2016-02-21T10:20:26Z</time>
      </trkpt>
      <trkpt lat="43.29487" lon="6.03158">
        <ele>470.4609375</ele>
        <time>2016-02-21T10:20:27Z</time>
      </trkpt>
      <trkpt lat="43.29491" lon="6.0316">
        <ele>470.359375</ele>
        <time>2016-02-21T10:20:28Z</time>
      </trkpt>
      <trkpt lat="43.29527" lon="6.03184">
        <ele>469.92578125</ele>
        <time>2016-02-21T10:20:38Z</time>
      </trkpt>
      <trkpt lat="43.29533" lon="6.03194">
        <ele>470.75390625</ele>
        <time>2016-02-21T10:20:40Z</time>
      </trkpt>
      <trkpt lat="43.29535" lon="6.032">
        <ele>471.36328125</ele>
        <time>2016-02-21T10:20:41Z</time>
      </trkpt>
      <trkpt lat="43.29537" lon="6.03207">
        <ele>471.953125</ele>
        <time>2016-02-21T10:20:42Z</time>
      </trkpt>
      <trkpt lat="43.29538" lon="6.03214">
        <ele>472.4921875</ele>
        <time>2016-02-21T10:20:43Z</time>
      </trkpt>
      <trkpt lat="43.29537" lon="6.0322">
        <ele>472.8828125</ele>
        <time>2016-02-21T10:20:44Z</time>
      </trkpt>
      <trkpt lat="43.29536" lon="6.03225">
        <ele>473.11328125</ele>
        <time>2016-02-21T10:20:45Z</time>
      </trkpt>
      <trkpt lat="43.29534" lon="6.0323">
        <ele>473.30078125</ele>
        <time>2016-02-21T10:20:46Z</time>
      </trkpt>
      <trkpt lat="43.29532" lon="6.03235">
        <ele>473.5</ele>
        <time>2016-02-21T10:20:47Z</time>
      </trkpt>
      <trkpt lat="43.29514" lon="6.03279">
        <ele>474.859375</ele>
        <time>2016-02-21T10:21:00Z</time>
      </trkpt>
      <trkpt lat="43.29513" lon="6.03284">
        <ele>475.09765625</ele>
        <time>2016-02-21T10:21:02Z</time>
      </trkpt>
      <trkpt lat="43.29514" lon="6.03286">
        <ele>475.2421875</ele>
        <time>2016-02-21T10:21:03Z</time>
      </trkpt>
      <trkpt lat="43.29515" lon="6.03288">
        <ele>475.390625</ele>
        <time>2016-02-21T10:21:04Z</time>
      </trkpt>
      <trkpt lat="43.29525" lon="6.03293">
        <ele>476.359375</ele>
        <time>2016-02-21T10:21:14Z</time>
      </trkpt>
      <trkpt lat="43.29535" lon="6.03296">
        <ele>477.484375</ele>
        <time>2016-02-21T10:21:28Z</time>
      </trkpt>
      <trkpt lat="43.29539" lon="6.033">
        <ele>478.18359375</ele>
        <time>2016-02-21T10:21:42Z</time>
      </trkpt>
      <trkpt lat="43.29547" lon="6.03309">
        <ele>479.8515625</ele>
        <time>2016-02-21T10:21:50Z</time>
      </trkpt>
      <trkpt lat="43.29561" lon="6.03296">
        <ele>480.1328125</ele>
        <time>2016-02-21T10:22:02Z</time>
      </trkpt>
      <trkpt lat="43.29568" lon="6.03293">
        <ele>480.34375</ele>
        <time>2016-02-21T10:22:06Z</time>
      </trkpt>
      <trkpt lat="43.29574" lon="6.0329">
        <ele>480.64453125</ele>
        <time>2016-02-21T10:22:10Z</time>
      </trkpt>
      <trkpt lat="43.29579" lon="6.03289">
        <ele>480.8984375</ele>
        <time>2016-02-21T10:22:13Z</time>
      </trkpt>
      <trkpt lat="43.29602" lon="6.03276">
        <ele>481.69140625</ele>
        <time>2016-02-21T10:22:25Z</time>
      </trkpt>
      <trkpt lat="43.29625" lon="6.03267">
        <ele>482.51171875</ele>
        <time>2016-02-21T10:22:36Z</time>
      </trkpt>
      <trkpt lat="43.29647" lon="6.03239">
        <ele>481.1875</ele>
        <time>2016-02-21T10:22:45Z</time>
      </trkpt>
      <trkpt lat="43.29679" lon="6.03211">
        <ele>481.10546875</ele>
        <time>2016-02-21T10:22:56Z</time>
      </trkpt>
      <trkpt lat="43.29695" lon="6.03203">
        <ele>481.1015625</ele>
        <time>2016-02-21T10:23:02Z</time>
      </trkpt>
      <trkpt lat="43.29703" lon="6.03193">
        <ele>480.39453125</ele>
        <time>2016-02-21T10:23:11Z</time>
      </trkpt>
      <trkpt lat="43.29704" lon="6.03181">
        <ele>479.60546875</ele>
        <time>2016-02-21T10:23:15Z</time>
      </trkpt>
      <trkpt lat="43.29716" lon="6.03172">
        <ele>479.26171875</ele>
        <time>2016-02-21T10:23:20Z</time>
      </trkpt>
      <trkpt lat="43.29748" lon="6.03174">
        <ele>480.8125</ele>
        <time>2016-02-21T10:23:32Z</time>
      </trkpt>
      <trkpt lat="43.29772" lon="6.03175">
        <ele>482.203125</ele>
        <time>2016-02-21T10:23:44Z</time>
      </trkpt>
      <trkpt lat="43.29791" lon="6.03175">
        <ele>483.23046875</ele>
        <time>2016-02-21T10:23:53Z</time>
      </trkpt>
      <trkpt lat="43.29794" lon="6.03175">
        <ele>483.37890625</ele>
        <time>2016-02-21T10:24:03Z</time>
      </trkpt>
      <trkpt lat="43.29792" lon="6.03174">
        <ele>483.21875</ele>
        <time>2016-02-21T10:24:06Z</time>
      </trkpt>
      <trkpt lat="43.29786" lon="6.0317">
        <ele>482.7421875</ele>
        <time>2016-02-21T10:24:12Z</time>
      </trkpt>
      <trkpt lat="43.29784" lon="6.03168">
        <ele>482.5390625</ele>
        <time>2016-02-21T10:24:18Z</time>
      </trkpt>
      <trkpt lat="43.29786" lon="6.03165">
        <ele>482.4765625</ele>
        <time>2016-02-21T10:24:30Z</time>
      </trkpt>
      <trkpt lat="43.29785" lon="6.03169">
        <ele>482.63671875</ele>
        <time>2016-02-21T10:24:35Z</time>
      </trkpt>
      <trkpt lat="43.29764" lon="6.03173">
        <ele>481.609375</ele>
        <time>2016-02-21T10:24:45Z</time>
      </trkpt>
      <trkpt lat="43.2976" lon="6.03161">
        <ele>480.73046875</ele>
        <time>2016-02-21T10:24:53Z</time>
      </trkpt>
      <trkpt lat="43.29763" lon="6.0316">
        <ele>480.859375</ele>
        <time>2016-02-21T10:24:55Z</time>
      </trkpt>
      <trkpt lat="43.29767" lon="6.03149">
        <ele>480.5234375</ele>
        <time>2016-02-21T10:25:04Z</time>
      </trkpt>
      <trkpt lat="43.29772" lon="6.03147">
        <ele>480.72265625</ele>
        <time>2016-02-21T10:25:19Z</time>
      </trkpt>
      <trkpt lat="43.29777" lon="6.03144">
        <ele>480.78515625</ele>
        <time>2016-02-21T10:25:35Z</time>
      </trkpt>
      <trkpt lat="43.29781" lon="6.03139">
        <ele>480.6484375</ele>
        <time>2016-02-21T10:25:49Z</time>
      </trkpt>
      <trkpt lat="43.29782" lon="6.03138">
        <ele>480.58203125</ele>
        <time>2016-02-21T10:25:51Z</time>
      </trkpt>
      <trkpt lat="43.29787" lon="6.03126">
        <ele>480.5859375</ele>
        <time>2016-02-21T10:26:01Z</time>
      </trkpt>
      <trkpt lat="43.29787" lon="6.03123">
        <ele>480.61328125</ele>
        <time>2016-02-21T10:26:05Z</time>
      </trkpt>
      <trkpt lat="43.29793" lon="6.03116">
        <ele>481.00390625</ele>
        <time>2016-02-21T10:26:16Z</time>
      </trkpt>
      <trkpt lat="43.29796" lon="6.03113">
        <ele>481.2265625</ele>
        <time>2016-02-21T10:26:29Z</time>
      </trkpt>
      <trkpt lat="43.29802" lon="6.03114">
        <ele>481.66015625</ele>
        <time>2016-02-21T10:26:39Z</time>
      </trkpt>
      <trkpt lat="43.29808" lon="6.03107">
        <ele>481.953125</ele>
        <time>2016-02-21T10:26:52Z</time>
      </trkpt>
      <trkpt lat="43.2981" lon="6.03099">
        <ele>481.86328125</ele>
        <time>2016-02-21T10:27:06Z</time>
      </trkpt>
      <trkpt lat="43.29816" lon="6.03096">
        <ele>481.66796875</ele>
        <time>2016-02-21T10:27:18Z</time>
      </trkpt>
      <trkpt lat="43.29822" lon="6.03091">
        <ele>481.4375</ele>
        <time>2016-02-21T10:27:29Z</time>
      </trkpt>
      <trkpt lat="43.29823" lon="6.0309">
        <ele>481.39453125</ele>
        <time>2016-02-21T10:27:32Z</time>
      </trkpt>
      <trkpt lat="43.29829" lon="6.03085">
        <ele>481.16796875</ele>
        <time>2016-02-21T10:27:41Z</time>
      </trkpt>
      <trkpt lat="43.29828" lon="6.03075">
        <ele>481.2109375</ele>
        <time>2016-02-21T10:27:52Z</time>
      </trkpt>
      <trkpt lat="43.29828" lon="6.03067">
        <ele>481.234375</ele>
        <time>2016-02-21T10:27:58Z</time>
      </trkpt>
      <trkpt lat="43.29835" lon="6.03056">
        <ele>480.9296875</ele>
        <time>2016-02-21T10:28:12Z</time>
      </trkpt>
      <trkpt lat="43.29836" lon="6.03049">
        <ele>480.8125</ele>
        <time>2016-02-21T10:28:25Z</time>
      </trkpt>
      <trkpt lat="43.29844" lon="6.03039">
        <ele>479.94921875</ele>
        <time>2016-02-21T10:28:34Z</time>
      </trkpt>
      <trkpt lat="43.29854" lon="6.03031">
        <ele>478.9375</ele>
        <time>2016-02-21T10:28:47Z</time>
      </trkpt>
      <trkpt lat="43.29865" lon="6.03023">
        <ele>477.6171875</ele>
        <time>2016-02-21T10:28:52Z</time>
      </trkpt>
      <trkpt lat="43.29867" lon="6.03024">
        <ele>477.27734375</ele>
        <time>2016-02-21T10:28:53Z</time>
      </trkpt>
      <trkpt lat="43.29876" lon="6.03024">
        <ele>476.12890625</ele>
        <time>2016-02-21T10:28:58Z</time>
      </trkpt>
      <trkpt lat="43.29881" lon="6.03014">
        <ele>474.96875</ele>
        <time>2016-02-21T10:29:03Z</time>
      </trkpt>
      <trkpt lat="43.29895" lon="6.03015">
        <ele>473.01171875</ele>
        <time>2016-02-21T10:29:12Z</time>
      </trkpt>
      <trkpt lat="43.29904" lon="6.03003">
        <ele>471.21875</ele>
        <time>2016-02-21T10:29:20Z</time>
      </trkpt>
      <trkpt lat="43.29906" lon="6.02997">
        <ele>470.671875</ele>
        <time>2016-02-21T10:29:22Z</time>
      </trkpt>
      <trkpt lat="43.29912" lon="6.02989">
        <ele>469.46484375</ele>
        <time>2016-02-21T10:29:25Z</time>
      </trkpt>
      <trkpt lat="43.29917" lon="6.02989">
        <ele>468.73046875</ele>
        <time>2016-02-21T10:29:27Z</time>
      </trkpt>
      <trkpt lat="43.2993" lon="6.02991">
        <ele>466.171875</ele>
        <time>2016-02-21T10:29:35Z</time>
      </trkpt>
      <trkpt lat="43.2993" lon="6.0299">
        <ele>465.9296875</ele>
        <time>2016-02-21T10:29:36Z</time>
      </trkpt>
      <trkpt lat="43.29948" lon="6.02987">
        <ele>461.76953125</ele>
        <time>2016-02-21T10:29:45Z</time>
      </trkpt>
      <trkpt lat="43.29956" lon="6.02979">
        <ele>459.28515625</ele>
        <time>2016-02-21T10:29:51Z</time>
      </trkpt>
      <trkpt lat="43.29963" lon="6.0295">
        <ele>455.3515625</ele>
        <time>2016-02-21T10:30:00Z</time>
      </trkpt>
      <trkpt lat="43.29963" lon="6.02919">
        <ele>454.5</ele>
        <time>2016-02-21T10:30:09Z</time>
      </trkpt>
      <trkpt lat="43.29971" lon="6.0291">
        <ele>452.5625</ele>
        <time>2016-02-21T10:30:13Z</time>
      </trkpt>
      <trkpt lat="43.29974" lon="6.02904">
        <ele>451.53125</ele>
        <time>2016-02-21T10:30:15Z</time>
      </trkpt>
      <trkpt lat="43.29992" lon="6.02888">
        <ele>446.78125</ele>
        <time>2016-02-21T10:30:22Z</time>
      </trkpt>
      <trkpt lat="43.29997" lon="6.02887">
        <ele>445.76171875</ele>
        <time>2016-02-21T10:30:25Z</time>
      </trkpt>
      <trkpt lat="43.29999" lon="6.02886">
        <ele>445.140625</ele>
        <time>2016-02-21T10:30:29Z</time>
      </trkpt>
      <trkpt lat="43.30019" lon="6.0286">
        <ele>440.71875</ele>
        <time>2016-02-21T10:30:39Z</time>
      </trkpt>
      <trkpt lat="43.30025" lon="6.02854">
        <ele>439.26171875</ele>
        <time>2016-02-21T10:30:41Z</time>
      </trkpt>
      <trkpt lat="43.30042" lon="6.02849">
        <ele>434.8046875</ele>
        <time>2016-02-21T10:30:48Z</time>
      </trkpt>
      <trkpt lat="43.30044" lon="6.0285">
        <ele>434.140625</ele>
        <time>2016-02-21T10:30:49Z</time>
      </trkpt>
      <trkpt lat="43.3005" lon="6.02851">
        <ele>431.83984375</ele>
        <time>2016-02-21T10:30:53Z</time>
      </trkpt>
      <trkpt lat="43.30064" lon="6.02854">
        <ele>425.484375</ele>
        <time>2016-02-21T10:31:00Z</time>
      </trkpt>
      <trkpt lat="43.30073" lon="6.02854">
        <ele>421.28515625</ele>
        <time>2016-02-21T10:31:03Z</time>
      </trkpt>
      <trkpt lat="43.30085" lon="6.02848">
        <ele>417.21484375</ele>
        <time>2016-02-21T10:31:07Z</time>
      </trkpt>
      <trkpt lat="43.30089" lon="6.02846">
        <ele>415.74609375</ele>
        <time>2016-02-21T10:31:08Z</time>
      </trkpt>
      <trkpt lat="43.30099" lon="6.02839">
        <ele>411.73828125</ele>
        <time>2016-02-21T10:31:11Z</time>
      </trkpt>
      <trkpt lat="43.30111" lon="6.0283">
        <ele>406.65625</ele>
        <time>2016-02-21T10:31:16Z</time>
      </trkpt>
      <trkpt lat="43.30116" lon="6.02828">
        <ele>404.25</ele>
        <time>2016-02-21T10:31:28Z</time>
      </trkpt>
      <trkpt lat="43.30121" lon="6.02816">
        <ele>403.3515625</ele>
        <time>2016-02-21T10:31:33Z</time>
      </trkpt>
      <trkpt lat="43.30137" lon="6.02783">
        <ele>402.55859375</ele>
        <time>2016-02-21T10:31:42Z</time>
      </trkpt>
      <trkpt lat="43.30157" lon="6.02757">
        <ele>405.21875</ele>
        <time>2016-02-21T10:31:52Z</time>
      </trkpt>
      <trkpt lat="43.30159" lon="6.02754">
        <ele>405.7890625</ele>
        <time>2016-02-21T10:31:54Z</time>
      </trkpt>
      <trkpt lat="43.30162" lon="6.02751">
        <ele>406.0078125</ele>
        <time>2016-02-21T10:31:56Z</time>
      </trkpt>
      <trkpt lat="43.30164" lon="6.02742">
        <ele>407.953125</ele>
        <time>2016-02-21T10:32:00Z</time>
      </trkpt>
      <trkpt lat="43.30167" lon="6.02738">
        <ele>407.8671875</ele>
        <time>2016-02-21T10:32:03Z</time>
      </trkpt>
      <trkpt lat="43.30178" lon="6.02727">
        <ele>407.90625</ele>
        <time>2016-02-21T10:32:11Z</time>
      </trkpt>
      <trkpt lat="43.30179" lon="6.02726">
        <ele>407.8515625</ele>
        <time>2016-02-21T10:32:12Z</time>
      </trkpt>
      <trkpt lat="43.30182" lon="6.02726">
        <ele>407.3828125</ele>
        <time>2016-02-21T10:32:14Z</time>
      </trkpt>
      <trkpt lat="43.30185" lon="6.02727">
        <ele>406.765625</ele>
        <time>2016-02-21T10:32:25Z</time>
      </trkpt>
      <trkpt lat="43.30196" lon="6.02736">
        <ele>404.12109375</ele>
        <time>2016-02-21T10:32:37Z</time>
      </trkpt>
      <trkpt lat="43.30199" lon="6.02741">
        <ele>403.23046875</ele>
        <time>2016-02-21T10:32:45Z</time>
      </trkpt>
      <trkpt lat="43.30197" lon="6.02748">
        <ele>401.53515625</ele>
        <time>2016-02-21T10:32:58Z</time>
      </trkpt>
      <trkpt lat="43.30198" lon="6.0275">
        <ele>400.9140625</ele>
        <time>2016-02-21T10:33:13Z</time>
      </trkpt>
      <trkpt lat="43.30198" lon="6.02749">
        <ele>401.16015625</ele>
        <time>2016-02-21T10:33:27Z</time>
      </trkpt>
      <trkpt lat="43.30199" lon="6.02751">
        <ele>400.5546875</ele>
        <time>2016-02-21T10:33:39Z</time>
      </trkpt>
      <trkpt lat="43.302" lon="6.02749">
        <ele>401.1484375</ele>
        <time>2016-02-21T10:33:49Z</time>
      </trkpt>
      <trkpt lat="43.302" lon="6.02746">
        <ele>402.23046875</ele>
        <time>2016-02-21T10:34:00Z</time>
      </trkpt>
      <trkpt lat="43.302" lon="6.02744">
        <ele>402.62890625</ele>
        <time>2016-02-21T10:34:36Z</time>
      </trkpt>
      <trkpt lat="43.30202" lon="6.02744">
        <ele>402.7578125</ele>
        <time>2016-02-21T10:35:16Z</time>
      </trkpt>
      <trkpt lat="43.30204" lon="6.02745">
        <ele>402.2578125</ele>
        <time>2016-02-21T10:35:53Z</time>
      </trkpt>
      <trkpt lat="43.30203" lon="6.02746">
        <ele>401.8671875</ele>
        <time>2016-02-21T10:36:08Z</time>
      </trkpt>
      <trkpt lat="43.30208" lon="6.02747">
        <ele>401.3515625</ele>
        <time>2016-02-21T10:36:19Z</time>
      </trkpt>
      <trkpt lat="43.3021" lon="6.02741">
        <ele>402.92578125</ele>
        <time>2016-02-21T10:36:24Z</time>
      </trkpt>
      <trkpt lat="43.30218" lon="6.02736">
        <ele>403.46484375</ele>
        <time>2016-02-21T10:36:37Z</time>
      </trkpt>
      <trkpt lat="43.30219" lon="6.02736">
        <ele>403.4765625</ele>
        <time>2016-02-21T10:36:46Z</time>
      </trkpt>
      <trkpt lat="43.30227" lon="6.02736">
        <ele>403.18359375</ele>
        <time>2016-02-21T10:36:58Z</time>
      </trkpt>
      <trkpt lat="43.30228" lon="6.02735">
        <ele>403.25390625</ele>
        <time>2016-02-21T10:36:59Z</time>
      </trkpt>
      <trkpt lat="43.30236" lon="6.02728">
        <ele>404.19140625</ele>
        <time>2016-02-21T10:37:05Z</time>
      </trkpt>
      <trkpt lat="43.30254" lon="6.02741">
        <ele>400.05859375</ele>
        <time>2016-02-21T10:37:14Z</time>
      </trkpt>
      <trkpt lat="43.30271" lon="6.02742">
        <ele>396.7109375</ele>
        <time>2016-02-21T10:37:20Z</time>
      </trkpt>
      <trkpt lat="43.30275" lon="6.02746">
        <ele>394.83203125</ele>
        <time>2016-02-21T10:37:23Z</time>
      </trkpt>
      <trkpt lat="43.30295" lon="6.02736">
        <ele>393.41796875</ele>
        <time>2016-02-21T10:37:33Z</time>
      </trkpt>
      <trkpt lat="43.30297" lon="6.02736">
        <ele>393</ele>
        <time>2016-02-21T10:37:34Z</time>
      </trkpt>
      <trkpt lat="43.30298" lon="6.02735">
        <ele>393.015625</ele>
        <time>2016-02-21T10:37:35Z</time>
      </trkpt>
      <trkpt lat="43.30318" lon="6.02725">
        <ele>390.46484375</ele>
        <time>2016-02-21T10:37:44Z</time>
      </trkpt>
      <trkpt lat="43.30327" lon="6.02714">
        <ele>389.875</ele>
        <time>2016-02-21T10:37:48Z</time>
      </trkpt>
      <trkpt lat="43.3034" lon="6.02713">
        <ele>386.4375</ele>
        <time>2016-02-21T10:37:52Z</time>
      </trkpt>
      <trkpt lat="43.30348" lon="6.02722">
        <ele>382.78515625</ele>
        <time>2016-02-21T10:37:55Z</time>
      </trkpt>
      <trkpt lat="43.30353" lon="6.02724">
        <ele>380.953125</ele>
        <time>2016-02-21T10:37:57Z</time>
      </trkpt>
      <trkpt lat="43.30361" lon="6.02715">
        <ele>380.23828125</ele>
        <time>2016-02-21T10:38:00Z</time>
      </trkpt>
      <trkpt lat="43.30358" lon="6.02693">
        <ele>381.11328125</ele>
        <time>2016-02-21T10:38:06Z</time>
      </trkpt>
      <trkpt lat="43.30366" lon="6.02691">
        <ele>378.77734375</ele>
        <time>2016-02-21T10:38:12Z</time>
      </trkpt>
      <trkpt lat="43.30372" lon="6.02704">
        <ele>377.046875</ele>
        <time>2016-02-21T10:38:17Z</time>
      </trkpt>
      <trkpt lat="43.30375" lon="6.02715">
        <ele>376.1953125</ele>
        <time>2016-02-21T10:38:20Z</time>
      </trkpt>
      <trkpt lat="43.3039" lon="6.02712">
        <ele>371.80078125</ele>
        <time>2016-02-21T10:38:26Z</time>
      </trkpt>
      <trkpt lat="43.30403" lon="6.02711">
        <ele>368.01953125</ele>
        <time>2016-02-21T10:38:31Z</time>
      </trkpt>
      <trkpt lat="43.3041" lon="6.02711">
        <ele>366.16796875</ele>
        <time>2016-02-21T10:38:33Z</time>
      </trkpt>
      <trkpt lat="43.30416" lon="6.02712">
        <ele>364.33984375</ele>
        <time>2016-02-21T10:38:35Z</time>
      </trkpt>
      <trkpt lat="43.30429" lon="6.02719">
        <ele>361.15625</ele>
        <time>2016-02-21T10:38:40Z</time>
      </trkpt>
      <trkpt lat="43.30436" lon="6.02718">
        <ele>359.69921875</ele>
        <time>2016-02-21T10:38:42Z</time>
      </trkpt>
      <trkpt lat="43.30447" lon="6.02711">
        <ele>357.62109375</ele>
        <time>2016-02-21T10:38:47Z</time>
      </trkpt>
      <trkpt lat="43.30449" lon="6.02712">
        <ele>357.4140625</ele>
        <time>2016-02-21T10:38:48Z</time>
      </trkpt>
      <trkpt lat="43.30457" lon="6.02705">
        <ele>356.30859375</ele>
        <time>2016-02-21T10:38:51Z</time>
      </trkpt>
      <trkpt lat="43.30475" lon="6.02689">
        <ele>353.70703125</ele>
        <time>2016-02-21T10:38:57Z</time>
      </trkpt>
      <trkpt lat="43.30484" lon="6.02672">
        <ele>353.03125</ele>
        <time>2016-02-21T10:39:02Z</time>
      </trkpt>
      <trkpt lat="43.30495" lon="6.0265">
        <ele>352.734375</ele>
        <time>2016-02-21T10:39:10Z</time>
      </trkpt>
      <trkpt lat="43.30502" lon="6.02643">
        <ele>352.49609375</ele>
        <time>2016-02-21T10:39:23Z</time>
      </trkpt>
      <trkpt lat="43.30503" lon="6.02644">
        <ele>352.36328125</ele>
        <time>2016-02-21T10:39:27Z</time>
      </trkpt>
      <trkpt lat="43.30536" lon="6.0263">
        <ele>349.79296875</ele>
        <time>2016-02-21T10:39:38Z</time>
      </trkpt>
      <trkpt lat="43.30545" lon="6.02627">
        <ele>349.49609375</ele>
        <time>2016-02-21T10:39:40Z</time>
      </trkpt>
      <trkpt lat="43.30563" lon="6.02615">
        <ele>348.46484375</ele>
        <time>2016-02-21T10:39:45Z</time>
      </trkpt>
      <trkpt lat="43.30563" lon="6.02611">
        <ele>348.4765625</ele>
        <time>2016-02-21T10:39:46Z</time>
      </trkpt>
      <trkpt lat="43.30562" lon="6.02608">
        <ele>348.546875</ele>
        <time>2016-02-21T10:39:47Z</time>
      </trkpt>
      <trkpt lat="43.30557" lon="6.02573">
        <ele>348.75</ele>
        <time>2016-02-21T10:39:59Z</time>
      </trkpt>
      <trkpt lat="43.30554" lon="6.02512">
        <ele>347.84765625</ele>
        <time>2016-02-21T10:40:14Z</time>
      </trkpt>
      <trkpt lat="43.30554" lon="6.025">
        <ele>347.41796875</ele>
        <time>2016-02-21T10:40:16Z</time>
      </trkpt>
      <trkpt lat="43.30554" lon="6.02494">
        <ele>347.203125</ele>
        <time>2016-02-21T10:40:17Z</time>
      </trkpt>
      <trkpt lat="43.3056" lon="6.0242">
        <ele>344.0390625</ele>
        <time>2016-02-21T10:40:26Z</time>
      </trkpt>
      <trkpt lat="43.30569" lon="6.02386">
        <ele>342.67578125</ele>
        <time>2016-02-21T10:40:30Z</time>
      </trkpt>
      <trkpt lat="43.30572" lon="6.0238">
        <ele>342.29296875</ele>
        <time>2016-02-21T10:40:31Z</time>
      </trkpt>
      <trkpt lat="43.30575" lon="6.02375">
        <ele>341.93359375</ele>
        <time>2016-02-21T10:40:32Z</time>
      </trkpt>
      <trkpt lat="43.30578" lon="6.02371">
        <ele>341.57421875</ele>
        <time>2016-02-21T10:40:33Z</time>
      </trkpt>
      <trkpt lat="43.30581" lon="6.02368">
        <ele>341.25390625</ele>
        <time>2016-02-21T10:40:34Z</time>
      </trkpt>
      <trkpt lat="43.30596" lon="6.02346">
        <ele>340.41796875</ele>
        <time>2016-02-21T10:40:44Z</time>
      </trkpt>
      <trkpt lat="43.30598" lon="6.02345">
        <ele>340.328125</ele>
        <time>2016-02-21T10:40:45Z</time>
      </trkpt>
      <trkpt lat="43.306" lon="6.02344">
        <ele>340.17578125</ele>
        <time>2016-02-21T10:40:46Z</time>
      </trkpt>
      <trkpt lat="43.30603" lon="6.02345">
        <ele>339.99609375</ele>
        <time>2016-02-21T10:40:47Z</time>
      </trkpt>
      <trkpt lat="43.30605" lon="6.02345">
        <ele>339.8125</ele>
        <time>2016-02-21T10:40:48Z</time>
      </trkpt>
      <trkpt lat="43.30608" lon="6.02345">
        <ele>339.625</ele>
        <time>2016-02-21T10:40:49Z</time>
      </trkpt>
      <trkpt lat="43.30619" lon="6.02345">
        <ele>339.06640625</ele>
        <time>2016-02-21T10:40:53Z</time>
      </trkpt>
      <trkpt lat="43.30622" lon="6.02344">
        <ele>339.0078125</ele>
        <time>2016-02-21T10:40:54Z</time>
      </trkpt>
      <trkpt lat="43.30625" lon="6.02343">
        <ele>338.95703125</ele>
        <time>2016-02-21T10:40:55Z</time>
      </trkpt>
      <trkpt lat="43.30628" lon="6.02342">
        <ele>338.8828125</ele>
        <time>2016-02-21T10:40:56Z</time>
      </trkpt>
      <trkpt lat="43.3063" lon="6.02342">
        <ele>338.81640625</ele>
        <time>2016-02-21T10:40:57Z</time>
      </trkpt>
      <trkpt lat="43.30636" lon="6.02341">
        <ele>338.6328125</ele>
        <time>2016-02-21T10:41:08Z</time>
      </trkpt>
      <trkpt lat="43.30639" lon="6.02334">
        <ele>338.76953125</ele>
        <time>2016-02-21T10:41:15Z</time>
      </trkpt>
      <trkpt lat="43.30641" lon="6.02328">
        <ele>338.96875</ele>
        <time>2016-02-21T10:41:22Z</time>
      </trkpt>
      <trkpt lat="43.3066" lon="6.02322">
        <ele>339.38671875</ele>
        <time>2016-02-21T10:41:32Z</time>
      </trkpt>
      <trkpt lat="43.30691" lon="6.02324">
        <ele>337.39453125</ele>
        <time>2016-02-21T10:41:40Z</time>
      </trkpt>
      <trkpt lat="43.30694" lon="6.02322">
        <ele>337.25390625</ele>
        <time>2016-02-21T10:41:41Z</time>
      </trkpt>
      <trkpt lat="43.30704" lon="6.0231">
        <ele>337.30859375</ele>
        <time>2016-02-21T10:41:46Z</time>
      </trkpt>
      <trkpt lat="43.30705" lon="6.02309">
        <ele>337.2890625</ele>
        <time>2016-02-21T10:41:47Z</time>
      </trkpt>
      <trkpt lat="43.30719" lon="6.02294">
        <ele>337.59375</ele>
        <time>2016-02-21T10:41:56Z</time>
      </trkpt>
      <trkpt lat="43.30721" lon="6.02292">
        <ele>337.62890625</ele>
        <time>2016-02-21T10:41:57Z</time>
      </trkpt>
      <trkpt lat="43.30722" lon="6.0229">
        <ele>337.6796875</ele>
        <time>2016-02-21T10:41:58Z</time>
      </trkpt>
      <trkpt lat="43.30725" lon="6.02287">
        <ele>337.92578125</ele>
        <time>2016-02-21T10:42:00Z</time>
      </trkpt>
      <trkpt lat="43.30727" lon="6.02286">
        <ele>338.015625</ele>
        <time>2016-02-21T10:42:01Z</time>
      </trkpt>
      <trkpt lat="43.30729" lon="6.02284">
        <ele>338.09765625</ele>
        <time>2016-02-21T10:42:02Z</time>
      </trkpt>
      <trkpt lat="43.3073" lon="6.02283">
        <ele>338.19140625</ele>
        <time>2016-02-21T10:42:03Z</time>
      </trkpt>
      <trkpt lat="43.30731" lon="6.02282">
        <ele>338.28515625</ele>
        <time>2016-02-21T10:42:04Z</time>
      </trkpt>
      <trkpt lat="43.30733" lon="6.02281">
        <ele>338.328125</ele>
        <time>2016-02-21T10:42:05Z</time>
      </trkpt>
      <trkpt lat="43.30734" lon="6.02281">
        <ele>338.3359375</ele>
        <time>2016-02-21T10:42:06Z</time>
      </trkpt>
      <trkpt lat="43.30736" lon="6.02281">
        <ele>338.36328125</ele>
        <time>2016-02-21T10:42:07Z</time>
      </trkpt>
      <trkpt lat="43.30738" lon="6.02281">
        <ele>338.37890625</ele>
        <time>2016-02-21T10:42:08Z</time>
      </trkpt>
      <trkpt lat="43.30741" lon="6.02281">
        <ele>338.36328125</ele>
        <time>2016-02-21T10:42:09Z</time>
      </trkpt>
      <trkpt lat="43.30743" lon="6.02281">
        <ele>338.32421875</ele>
        <time>2016-02-21T10:42:10Z</time>
      </trkpt>
      <trkpt lat="43.30775" lon="6.02274">
        <ele>337.9609375</ele>
        <time>2016-02-21T10:42:21Z</time>
      </trkpt>
      <trkpt lat="43.30784" lon="6.02273">
        <ele>337.93359375</ele>
        <time>2016-02-21T10:42:25Z</time>
      </trkpt>
      <trkpt lat="43.30787" lon="6.02274">
        <ele>337.8515625</ele>
        <time>2016-02-21T10:42:26Z</time>
      </trkpt>
      <trkpt lat="43.30791" lon="6.02275">
        <ele>337.71875</ele>
        <time>2016-02-21T10:42:28Z</time>
      </trkpt>
      <trkpt lat="43.30793" lon="6.02275">
        <ele>337.71484375</ele>
        <time>2016-02-21T10:42:29Z</time>
      </trkpt>
      <trkpt lat="43.30795" lon="6.02276">
        <ele>337.6484375</ele>
        <time>2016-02-21T10:42:30Z</time>
      </trkpt>
      <trkpt lat="43.30798" lon="6.02277">
        <ele>337.49609375</ele>
        <time>2016-02-21T10:42:31Z</time>
      </trkpt>
      <trkpt lat="43.30801" lon="6.02279">
        <ele>337.2734375</ele>
        <time>2016-02-21T10:42:32Z</time>
      </trkpt>
      <trkpt lat="43.30804" lon="6.02282">
        <ele>336.91015625</ele>
        <time>2016-02-21T10:42:33Z</time>
      </trkpt>
      <trkpt lat="43.30808" lon="6.02285">
        <ele>336.44140625</ele>
        <time>2016-02-21T10:42:34Z</time>
      </trkpt>
      <trkpt lat="43.30812" lon="6.02286">
        <ele>336.12890625</ele>
        <time>2016-02-21T10:42:35Z</time>
      </trkpt>
      <trkpt lat="43.30815" lon="6.02287">
        <ele>335.9453125</ele>
        <time>2016-02-21T10:42:36Z</time>
      </trkpt>
      <trkpt lat="43.30818" lon="6.02287">
        <ele>335.71875</ele>
        <time>2016-02-21T10:42:37Z</time>
      </trkpt>
      <trkpt lat="43.30821" lon="6.02288">
        <ele>335.46875</ele>
        <time>2016-02-21T10:42:38Z</time>
      </trkpt>
      <trkpt lat="43.30824" lon="6.02289">
        <ele>335.23046875</ele>
        <time>2016-02-21T10:42:39Z</time>
      </trkpt>
      <trkpt lat="43.30847" lon="6.02287">
        <ele>334.17578125</ele>
        <time>2016-02-21T10:42:46Z</time>
      </trkpt>
      <trkpt lat="43.3085" lon="6.02285">
        <ele>334.14453125</ele>
        <time>2016-02-21T10:42:47Z</time>
      </trkpt>
      <trkpt lat="43.30852" lon="6.02283">
        <ele>334.09765625</ele>
        <time>2016-02-21T10:42:48Z</time>
      </trkpt>
      <trkpt lat="43.30855" lon="6.02281">
        <ele>334.05078125</ele>
        <time>2016-02-21T10:42:49Z</time>
      </trkpt>
      <trkpt lat="43.30857" lon="6.02279">
        <ele>334.01953125</ele>
        <time>2016-02-21T10:42:50Z</time>
      </trkpt>
      <trkpt lat="43.30859" lon="6.02276">
        <ele>334.0078125</ele>
        <time>2016-02-21T10:42:51Z</time>
      </trkpt>
      <trkpt lat="43.30881" lon="6.02256">
        <ele>333.1953125</ele>
        <time>2016-02-21T10:43:02Z</time>
      </trkpt>
      <trkpt lat="43.30888" lon="6.02249">
        <ele>332.859375</ele>
        <time>2016-02-21T10:43:09Z</time>
      </trkpt>
      <trkpt lat="43.30894" lon="6.02239">
        <ele>332.9921875</ele>
        <time>2016-02-21T10:43:18Z</time>
      </trkpt>
      <trkpt lat="43.30903" lon="6.0221">
        <ele>333.80078125</ele>
        <time>2016-02-21T10:43:30Z</time>
      </trkpt>
      <trkpt lat="43.30918" lon="6.02168">
        <ele>333.625</ele>
        <time>2016-02-21T10:43:42Z</time>
      </trkpt>
      <trkpt lat="43.30919" lon="6.02161">
        <ele>333.6875</ele>
        <time>2016-02-21T10:43:44Z</time>
      </trkpt>
      <trkpt lat="43.3093" lon="6.02147">
        <ele>332.08203125</ele>
        <time>2016-02-21T10:43:52Z</time>
      </trkpt>
      <trkpt lat="43.30932" lon="6.02147">
        <ele>331.77734375</ele>
        <time>2016-02-21T10:43:54Z</time>
      </trkpt>
      <trkpt lat="43.30939" lon="6.02147">
        <ele>330.8046875</ele>
        <time>2016-02-21T10:44:04Z</time>
      </trkpt>
      <trkpt lat="43.30943" lon="6.02143">
        <ele>330.2109375</ele>
        <time>2016-02-21T10:44:13Z</time>
      </trkpt>
      <trkpt lat="43.30959" lon="6.02114">
        <ele>329.46484375</ele>
        <time>2016-02-21T10:44:28Z</time>
      </trkpt>
      <trkpt lat="43.30961" lon="6.02092">
        <ele>329.39453125</ele>
        <time>2016-02-21T10:44:38Z</time>
      </trkpt>
      <trkpt lat="43.30961" lon="6.0209">
        <ele>329.3984375</ele>
        <time>2016-02-21T10:44:39Z</time>
      </trkpt>
      <trkpt lat="43.30963" lon="6.02072">
        <ele>329.4140625</ele>
        <time>2016-02-21T10:44:47Z</time>
      </trkpt>
      <trkpt lat="43.30964" lon="6.02071">
        <ele>329.38671875</ele>
        <time>2016-02-21T10:44:48Z</time>
      </trkpt>
      <trkpt lat="43.30975" lon="6.02065">
        <ele>328.9140625</ele>
        <time>2016-02-21T10:44:55Z</time>
      </trkpt>
      <trkpt lat="43.30978" lon="6.02021">
        <ele>328.79296875</ele>
        <time>2016-02-21T10:45:12Z</time>
      </trkpt>
      <trkpt lat="43.30977" lon="6.01984">
        <ele>328.83203125</ele>
        <time>2016-02-21T10:45:26Z</time>
      </trkpt>
      <trkpt lat="43.3099" lon="6.01945">
        <ele>328.640625</ele>
        <time>2016-02-21T10:45:41Z</time>
      </trkpt>
      <trkpt lat="43.30995" lon="6.01907">
        <ele>328.43359375</ele>
        <time>2016-02-21T10:45:55Z</time>
      </trkpt>
      <trkpt lat="43.30993" lon="6.01899">
        <ele>328.40625</ele>
        <time>2016-02-21T10:45:59Z</time>
      </trkpt>
      <trkpt lat="43.30994" lon="6.01897">
        <ele>328.29296875</ele>
        <time>2016-02-21T10:46:00Z</time>
      </trkpt>
      <trkpt lat="43.30995" lon="6.01894">
        <ele>328.10546875</ele>
        <time>2016-02-21T10:46:01Z</time>
      </trkpt>
      <trkpt lat="43.30995" lon="6.01892">
        <ele>327.921875</ele>
        <time>2016-02-21T10:46:02Z</time>
      </trkpt>
      <trkpt lat="43.30995" lon="6.01889">
        <ele>327.828125</ele>
        <time>2016-02-21T10:46:03Z</time>
      </trkpt>
      <trkpt lat="43.30995" lon="6.01886">
        <ele>327.78125</ele>
        <time>2016-02-21T10:46:04Z</time>
      </trkpt>
      <trkpt lat="43.30992" lon="6.0186">
        <ele>328.19921875</ele>
        <time>2016-02-21T10:46:15Z</time>
      </trkpt>
      <trkpt lat="43.30992" lon="6.01858">
        <ele>328.1640625</ele>
        <time>2016-02-21T10:46:16Z</time>
      </trkpt>
      <trkpt lat="43.30992" lon="6.01852">
        <ele>328.1328125</ele>
        <time>2016-02-21T10:46:30Z</time>
      </trkpt>
      <trkpt lat="43.30991" lon="6.01852">
        <ele>328.23828125</ele>
        <time>2016-02-21T10:46:33Z</time>
      </trkpt>
      <trkpt lat="43.30991" lon="6.0185">
        <ele>328.27734375</ele>
        <time>2016-02-21T10:46:34Z</time>
      </trkpt>
      <trkpt lat="43.30991" lon="6.01847">
        <ele>328.30859375</ele>
        <time>2016-02-21T10:46:35Z</time>
      </trkpt>
      <trkpt lat="43.3099" lon="6.01844">
        <ele>328.375</ele>
        <time>2016-02-21T10:46:36Z</time>
      </trkpt>
      <trkpt lat="43.3099" lon="6.01841">
        <ele>328.38671875</ele>
        <time>2016-02-21T10:46:37Z</time>
      </trkpt>
      <trkpt lat="43.30991" lon="6.01839">
        <ele>328.375</ele>
        <time>2016-02-21T10:46:38Z</time>
      </trkpt>
      <trkpt lat="43.30993" lon="6.01797">
        <ele>328.14453125</ele>
        <time>2016-02-21T10:46:50Z</time>
      </trkpt>
      <trkpt lat="43.30994" lon="6.01732">
        <ele>327.8828125</ele>
        <time>2016-02-21T10:47:06Z</time>
      </trkpt>
      <trkpt lat="43.30988" lon="6.01672">
        <ele>327.46875</ele>
        <time>2016-02-21T10:47:19Z</time>
      </trkpt>
      <trkpt lat="43.3098" lon="6.01647">
        <ele>327.65625</ele>
        <time>2016-02-21T10:47:24Z</time>
      </trkpt>
      <trkpt lat="43.30977" lon="6.01641">
        <ele>327.73046875</ele>
        <time>2016-02-21T10:47:25Z</time>
      </trkpt>
      <trkpt lat="43.30972" lon="6.01631">
        <ele>327.97265625</ele>
        <time>2016-02-21T10:47:27Z</time>
      </trkpt>
      <trkpt lat="43.30966" lon="6.01622">
        <ele>328.453125</ele>
        <time>2016-02-21T10:47:29Z</time>
      </trkpt>
      <trkpt lat="43.30944" lon="6.01605">
        <ele>330.0078125</ele>
        <time>2016-02-21T10:47:35Z</time>
      </trkpt>
      <trkpt lat="43.30938" lon="6.01601">
        <ele>330.74609375</ele>
        <time>2016-02-21T10:47:37Z</time>
      </trkpt>
      <trkpt lat="43.30928" lon="6.01595">
        <ele>331.55078125</ele>
        <time>2016-02-21T10:47:40Z</time>
      </trkpt>
      <trkpt lat="43.30925" lon="6.01591">
        <ele>331.546875</ele>
        <time>2016-02-21T10:47:41Z</time>
      </trkpt>
      <trkpt lat="43.30923" lon="6.01573">
        <ele>330.6484375</ele>
        <time>2016-02-21T10:47:45Z</time>
      </trkpt>
      <trkpt lat="43.30944" lon="6.01554">
        <ele>329.01953125</ele>
        <time>2016-02-21T10:47:56Z</time>
      </trkpt>
      <trkpt lat="43.30975" lon="6.01517">
        <ele>328.03515625</ele>
        <time>2016-02-21T10:48:11Z</time>
      </trkpt>
      <trkpt lat="43.30973" lon="6.01467">
        <ele>329.91015625</ele>
        <time>2016-02-21T10:48:25Z</time>
      </trkpt>
      <trkpt lat="43.30968" lon="6.01425">
        <ele>331.79296875</ele>
        <time>2016-02-21T10:48:39Z</time>
      </trkpt>
      <trkpt lat="43.30963" lon="6.01376">
        <ele>333.3359375</ele>
        <time>2016-02-21T10:48:54Z</time>
      </trkpt>
      <trkpt lat="43.30965" lon="6.01369">
        <ele>333.2734375</ele>
        <time>2016-02-21T10:48:56Z</time>
      </trkpt>
      <trkpt lat="43.30967" lon="6.01366">
        <ele>333.1875</ele>
        <time>2016-02-21T10:48:57Z</time>
      </trkpt>
      <trkpt lat="43.3097" lon="6.01364">
        <ele>333.07421875</ele>
        <time>2016-02-21T10:48:58Z</time>
      </trkpt>
      <trkpt lat="43.30974" lon="6.01362">
        <ele>332.98828125</ele>
        <time>2016-02-21T10:48:59Z</time>
      </trkpt>
      <trkpt lat="43.30977" lon="6.01361">
        <ele>332.97265625</ele>
        <time>2016-02-21T10:49:00Z</time>
      </trkpt>
      <trkpt lat="43.3098" lon="6.0136">
        <ele>332.9609375</ele>
        <time>2016-02-21T10:49:01Z</time>
      </trkpt>
      <trkpt lat="43.31014" lon="6.01347">
        <ele>332.5078125</ele>
        <time>2016-02-21T10:49:14Z</time>
      </trkpt>
      <trkpt lat="43.31039" lon="6.01339">
        <ele>332</ele>
        <time>2016-02-21T10:49:26Z</time>
      </trkpt>
      <trkpt lat="43.31062" lon="6.01331">
        <ele>332</ele>
        <time>2016-02-21T10:49:36Z</time>
      </trkpt>
      <trkpt lat="43.31069" lon="6.0133">
        <ele>332</ele>
        <time>2016-02-21T10:49:40Z</time>
      </trkpt>
      <trkpt lat="43.3107" lon="6.01331">
        <ele>332</ele>
        <time>2016-02-21T10:49:41Z</time>
      </trkpt>
      <trkpt lat="43.31071" lon="6.01332">
        <ele>332</ele>
        <time>2016-02-21T10:49:42Z</time>
      </trkpt>
      <trkpt lat="43.31072" lon="6.01334">
        <ele>332</ele>
        <time>2016-02-21T10:49:43Z</time>
      </trkpt>
      <trkpt lat="43.31073" lon="6.01339">
        <ele>332</ele>
        <time>2016-02-21T10:49:57Z</time>
      </trkpt>
      <trkpt lat="43.31075" lon="6.01341">
        <ele>332</ele>
        <time>2016-02-21T10:50:31Z</time>
      </trkpt>
      <trkpt lat="43.31073" lon="6.01342">
        <ele>332</ele>
        <time>2016-02-21T10:51:06Z</time>
      </trkpt>
      <trkpt lat="43.31074" lon="6.01341">
        <ele>332</ele>
        <time>2016-02-21T10:51:40Z</time>
      </trkpt>
      <trkpt lat="43.31073" lon="6.01339">
        <ele>332</ele>
        <time>2016-02-21T10:52:06Z</time>
      </trkpt>
      <trkpt lat="43.31072" lon="6.01338">
        <ele>332</ele>
        <time>2016-02-21T10:52:27Z</time>
      </trkpt>
      <trkpt lat="43.31075" lon="6.01338">
        <ele>332</ele>
        <time>2016-02-21T10:52:51Z</time>
      </trkpt>
      <trkpt lat="43.31073" lon="6.01338">
        <ele>332</ele>
        <time>2016-02-21T10:53:27Z</time>
      </trkpt>
      <trkpt lat="43.31076" lon="6.01335">
        <ele>332</ele>
        <time>2016-02-21T10:53:54Z</time>
      </trkpt>
      <trkpt lat="43.31077" lon="6.01334">
        <ele>332</ele>
        <time>2016-02-21T10:54:24Z</time>
      </trkpt>
      <trkpt lat="43.31074" lon="6.01336">
        <ele>332</ele>
        <time>2016-02-21T10:55:01Z</time>
      </trkpt>
      <trkpt lat="43.31074" lon="6.01335">
        <ele>332</ele>
        <time>2016-02-21T10:55:33Z</time>
      </trkpt>
      <trkpt lat="43.31075" lon="6.01334">
        <ele>332</ele>
        <time>2016-02-21T10:56:07Z</time>
      </trkpt>
      <trkpt lat="43.31073" lon="6.01337">
        <ele>332</ele>
        <time>2016-02-21T10:56:44Z</time>
      </trkpt>
      <trkpt lat="43.31071" lon="6.01337">
        <ele>332</ele>
        <time>2016-02-21T10:57:34Z</time>
      </trkpt>
      <trkpt lat="43.31075" lon="6.01338">
        <ele>332</ele>
        <time>2016-02-21T10:58:07Z</time>
      </trkpt>
      <trkpt lat="43.31074" lon="6.01336">
        <ele>332</ele>
        <time>2016-02-21T10:58:51Z</time>
      </trkpt>
      <trkpt lat="43.31074" lon="6.01335">
        <ele>332</ele>
        <time>2016-02-21T10:59:25Z</time>
      </trkpt>
      <trkpt lat="43.31075" lon="6.01339">
        <ele>332</ele>
        <time>2016-02-21T10:59:54Z</time>
      </trkpt>
      <trkpt lat="43.31073" lon="6.01337">
        <ele>332</ele>
        <time>2016-02-21T11:00:37Z</time>
      </trkpt>
      <trkpt lat="43.31076" lon="6.01339">
        <ele>332</ele>
        <time>2016-02-21T11:00:58Z</time>
      </trkpt>
      <trkpt lat="43.31076" lon="6.01339">
        <ele>332</ele>
        <time>2016-02-21T11:01:40Z</time>
      </trkpt>
      <trkpt lat="43.31076" lon="6.01333">
        <ele>332</ele>
        <time>2016-02-21T11:02:00Z</time>
      </trkpt>
      <trkpt lat="43.31075" lon="6.01327">
        <ele>332</ele>
        <time>2016-02-21T11:02:13Z</time>
      </trkpt>
      <trkpt lat="43.31075" lon="6.01325">
        <ele>332</ele>
        <time>2016-02-21T11:02:14Z</time>
      </trkpt>
      <trkpt lat="43.31077" lon="6.01324">
        <ele>332</ele>
        <time>2016-02-21T11:02:16Z</time>
      </trkpt>
      <trkpt lat="43.31088" lon="6.01322">
        <ele>331.84765625</ele>
        <time>2016-02-21T11:02:22Z</time>
      </trkpt>
      <trkpt lat="43.31089" lon="6.01321">
        <ele>331.79296875</ele>
        <time>2016-02-21T11:02:23Z</time>
      </trkpt>
      <trkpt lat="43.31091" lon="6.01321">
        <ele>331.7265625</ele>
        <time>2016-02-21T11:02:25Z</time>
      </trkpt>
      <trkpt lat="43.31092" lon="6.01322">
        <ele>331.6953125</ele>
        <time>2016-02-21T11:02:26Z</time>
      </trkpt>
      <trkpt lat="43.31093" lon="6.01323">
        <ele>331.64453125</ele>
        <time>2016-02-21T11:02:27Z</time>
      </trkpt>
      <trkpt lat="43.31095" lon="6.01324">
        <ele>331.58203125</ele>
        <time>2016-02-21T11:02:28Z</time>
      </trkpt>
      <trkpt lat="43.31098" lon="6.01323">
        <ele>331.47265625</ele>
        <time>2016-02-21T11:02:29Z</time>
      </trkpt>
      <trkpt lat="43.31101" lon="6.01322">
        <ele>331.37109375</ele>
        <time>2016-02-21T11:02:30Z</time>
      </trkpt>
      <trkpt lat="43.31104" lon="6.01321">
        <ele>331.26953125</ele>
        <time>2016-02-21T11:02:32Z</time>
      </trkpt>
      <trkpt lat="43.31105" lon="6.0132">
        <ele>331.234375</ele>
        <time>2016-02-21T11:02:33Z</time>
      </trkpt>
      <trkpt lat="43.31105" lon="6.01318">
        <ele>331.20703125</ele>
        <time>2016-02-21T11:02:34Z</time>
      </trkpt>
      <trkpt lat="43.31105" lon="6.01315">
        <ele>331.203125</ele>
        <time>2016-02-21T11:02:35Z</time>
      </trkpt>
      <trkpt lat="43.31105" lon="6.01312">
        <ele>331.21484375</ele>
        <time>2016-02-21T11:02:36Z</time>
      </trkpt>
      <trkpt lat="43.31094" lon="6.01261">
        <ele>330.859375</ele>
        <time>2016-02-21T11:02:50Z</time>
      </trkpt>
      <trkpt lat="43.31093" lon="6.01257">
        <ele>330.7265625</ele>
        <time>2016-02-21T11:02:51Z</time>
      </trkpt>
      <trkpt lat="43.31093" lon="6.01253">
        <ele>330.64453125</ele>
        <time>2016-02-21T11:02:52Z</time>
      </trkpt>
      <trkpt lat="43.31083" lon="6.01209">
        <ele>330.72265625</ele>
        <time>2016-02-21T11:03:04Z</time>
      </trkpt>
      <trkpt lat="43.31071" lon="6.01154">
        <ele>330.16015625</ele>
        <time>2016-02-21T11:03:17Z</time>
      </trkpt>
      <trkpt lat="43.31071" lon="6.01147">
        <ele>329.90625</ele>
        <time>2016-02-21T11:03:21Z</time>
      </trkpt>
      <trkpt lat="43.31071" lon="6.01144">
        <ele>329.828125</ele>
        <time>2016-02-21T11:03:22Z</time>
      </trkpt>
      <trkpt lat="43.3107" lon="6.01141">
        <ele>329.7421875</ele>
        <time>2016-02-21T11:03:23Z</time>
      </trkpt>
      <trkpt lat="43.3107" lon="6.01138">
        <ele>329.66796875</ele>
        <time>2016-02-21T11:03:24Z</time>
      </trkpt>
      <trkpt lat="43.31069" lon="6.01135">
        <ele>329.58203125</ele>
        <time>2016-02-21T11:03:25Z</time>
      </trkpt>
      <trkpt lat="43.31068" lon="6.01133">
        <ele>329.54296875</ele>
        <time>2016-02-21T11:03:26Z</time>
      </trkpt>
      <trkpt lat="43.31068" lon="6.01129">
        <ele>329.56640625</ele>
        <time>2016-02-21T11:03:27Z</time>
      </trkpt>
      <trkpt lat="43.31067" lon="6.01126">
        <ele>329.58203125</ele>
        <time>2016-02-21T11:03:28Z</time>
      </trkpt>
      <trkpt lat="43.31067" lon="6.01122">
        <ele>329.59765625</ele>
        <time>2016-02-21T11:03:29Z</time>
      </trkpt>
      <trkpt lat="43.31066" lon="6.01119">
        <ele>329.63671875</ele>
        <time>2016-02-21T11:03:30Z</time>
      </trkpt>
      <trkpt lat="43.31065" lon="6.01115">
        <ele>329.67578125</ele>
        <time>2016-02-21T11:03:31Z</time>
      </trkpt>
      <trkpt lat="43.31064" lon="6.0111">
        <ele>329.69140625</ele>
        <time>2016-02-21T11:03:32Z</time>
      </trkpt>
      <trkpt lat="43.31064" lon="6.01106">
        <ele>329.7109375</ele>
        <time>2016-02-21T11:03:33Z</time>
      </trkpt>
      <trkpt lat="43.31063" lon="6.01102">
        <ele>329.7421875</ele>
        <time>2016-02-21T11:03:34Z</time>
      </trkpt>
      <trkpt lat="43.3106" lon="6.0109">
        <ele>329.84375</ele>
        <time>2016-02-21T11:03:37Z</time>
      </trkpt>
      <trkpt lat="43.31061" lon="6.01089">
        <ele>329.8046875</ele>
        <time>2016-02-21T11:03:47Z</time>
      </trkpt>
      <trkpt lat="43.31063" lon="6.01088">
        <ele>329.7421875</ele>
        <time>2016-02-21T11:04:05Z</time>
      </trkpt>
      <trkpt lat="43.31063" lon="6.01087">
        <ele>329.73046875</ele>
        <time>2016-02-21T11:04:44Z</time>
      </trkpt>
      <trkpt lat="43.31064" lon="6.01089">
        <ele>329.6796875</ele>
        <time>2016-02-21T11:05:23Z</time>
      </trkpt>
      <trkpt lat="43.31062" lon="6.0109">
        <ele>329.77734375</ele>
        <time>2016-02-21T11:05:59Z</time>
      </trkpt>
      <trkpt lat="43.31065" lon="6.01089">
        <ele>329.64453125</ele>
        <time>2016-02-21T11:06:32Z</time>
      </trkpt>
      <trkpt lat="43.31066" lon="6.01089">
        <ele>329.62109375</ele>
        <time>2016-02-21T11:07:01Z</time>
      </trkpt>
      <trkpt lat="43.31063" lon="6.01088">
        <ele>329.72265625</ele>
        <time>2016-02-21T11:07:32Z</time>
      </trkpt>
      <trkpt lat="43.31063" lon="6.01087">
        <ele>329.7265625</ele>
        <time>2016-02-21T11:08:13Z</time>
      </trkpt>
    </trkseg>
  </trk>
</gpx>